<?xml version="1.0" encoding="UTF-8" standalone="no" ?>
<gpx xmlns="http://www.topografix.com/GPX/1/1" xmlns:xsi="http://www.w3.org/2001/XMLSchema-instance" xsi:schemaLocation="http://www.topografix.com/GPX/1/1 http://www.topografix.com/GPX/1/1/gpx.xsd" version="1.1" creator="VisuGPX - https://www.visugpx.com">
  <metadata>
    <name>Lacourt Col d'Ayens Erp boucle - L'ORSALHER VTT</name>
    <desc><![CDATA[Boucle depuis Lacourt réalisée par Kristian et Jean-Jacques.]]></desc>
  </metadata>
  <trk>
    <name><![CDATA[2022-08-01_074501]]></name>
    <extensions>
      <line xmlns="http://www.topografix.com/GPX/gpx_style/0/2">
        <color>ff0000</color>
        <width>4</width>
          <extensions>
            <sens>1</sens>
          </extensions>
      </line>
    </extensions>
    <trkseg>
      <trkpt lat="42.94618" lon="1.17429">
        <ele>420.8</ele>
        <time>2022-08-01T05:45:01.000Z</time>
      </trkpt>
      <trkpt lat="42.94618" lon="1.17428">
        <ele>419.7</ele>
        <time>2022-08-01T05:45:04.000Z</time>
      </trkpt>
      <trkpt lat="42.9461" lon="1.17429">
        <ele>420.2</ele>
        <time>2022-08-01T05:45:19.000Z</time>
      </trkpt>
      <trkpt lat="42.946" lon="1.17433">
        <ele>421</ele>
        <time>2022-08-01T05:45:44.000Z</time>
      </trkpt>
      <trkpt lat="42.9459" lon="1.17439">
        <ele>421.3</ele>
        <time>2022-08-01T05:45:49.000Z</time>
      </trkpt>
      <trkpt lat="42.94582" lon="1.17447">
        <ele>421.3</ele>
        <time>2022-08-01T05:45:53.000Z</time>
      </trkpt>
      <trkpt lat="42.94573" lon="1.17454">
        <ele>421.6</ele>
        <time>2022-08-01T05:45:57.000Z</time>
      </trkpt>
      <trkpt lat="42.94564" lon="1.17458">
        <ele>422</ele>
        <time>2022-08-01T05:46:01.000Z</time>
      </trkpt>
      <trkpt lat="42.94556" lon="1.17465">
        <ele>422</ele>
        <time>2022-08-01T05:46:05.000Z</time>
      </trkpt>
      <trkpt lat="42.94545" lon="1.17469">
        <ele>421.8</ele>
        <time>2022-08-01T05:46:09.000Z</time>
      </trkpt>
      <trkpt lat="42.94534" lon="1.17466">
        <ele>421.6</ele>
        <time>2022-08-01T05:46:12.000Z</time>
      </trkpt>
      <trkpt lat="42.94524" lon="1.17461">
        <ele>421.3</ele>
        <time>2022-08-01T05:46:15.000Z</time>
      </trkpt>
      <trkpt lat="42.94515" lon="1.17457">
        <ele>421.7</ele>
        <time>2022-08-01T05:46:18.000Z</time>
      </trkpt>
      <trkpt lat="42.94506" lon="1.17453">
        <ele>422</ele>
        <time>2022-08-01T05:46:21.000Z</time>
      </trkpt>
      <trkpt lat="42.94495" lon="1.17452">
        <ele>422.2</ele>
        <time>2022-08-01T05:46:25.000Z</time>
      </trkpt>
      <trkpt lat="42.94484" lon="1.1745">
        <ele>422</ele>
        <time>2022-08-01T05:46:29.000Z</time>
      </trkpt>
      <trkpt lat="42.94477" lon="1.1744">
        <ele>421.5</ele>
        <time>2022-08-01T05:46:32.000Z</time>
      </trkpt>
      <trkpt lat="42.94472" lon="1.17426">
        <ele>420.9</ele>
        <time>2022-08-01T05:46:35.000Z</time>
      </trkpt>
      <trkpt lat="42.94462" lon="1.17422">
        <ele>420.8</ele>
        <time>2022-08-01T05:46:38.000Z</time>
      </trkpt>
      <trkpt lat="42.94452" lon="1.17426">
        <ele>421</ele>
        <time>2022-08-01T05:46:41.000Z</time>
      </trkpt>
      <trkpt lat="42.9444" lon="1.17425">
        <ele>420.5</ele>
        <time>2022-08-01T05:46:44.000Z</time>
      </trkpt>
      <trkpt lat="42.94431" lon="1.17423">
        <ele>420.4</ele>
        <time>2022-08-01T05:46:46.000Z</time>
      </trkpt>
      <trkpt lat="42.94421" lon="1.1742">
        <ele>419.6</ele>
        <time>2022-08-01T05:46:48.000Z</time>
      </trkpt>
      <trkpt lat="42.94411" lon="1.17415">
        <ele>419</ele>
        <time>2022-08-01T05:46:50.000Z</time>
      </trkpt>
      <trkpt lat="42.94399" lon="1.17415">
        <ele>418.1</ele>
        <time>2022-08-01T05:46:53.000Z</time>
      </trkpt>
      <trkpt lat="42.94388" lon="1.17425">
        <ele>417.8</ele>
        <time>2022-08-01T05:46:56.000Z</time>
      </trkpt>
      <trkpt lat="42.94381" lon="1.17435">
        <ele>417.1</ele>
        <time>2022-08-01T05:46:58.000Z</time>
      </trkpt>
      <trkpt lat="42.94374" lon="1.17447">
        <ele>416.4</ele>
        <time>2022-08-01T05:47:00.000Z</time>
      </trkpt>
      <trkpt lat="42.94366" lon="1.17459">
        <ele>416.3</ele>
        <time>2022-08-01T05:47:02.000Z</time>
      </trkpt>
      <trkpt lat="42.94358" lon="1.1747">
        <ele>415.7</ele>
        <time>2022-08-01T05:47:04.000Z</time>
      </trkpt>
      <trkpt lat="42.94351" lon="1.17482">
        <ele>416.7</ele>
        <time>2022-08-01T05:47:07.000Z</time>
      </trkpt>
      <trkpt lat="42.94343" lon="1.17494">
        <ele>417.7</ele>
        <time>2022-08-01T05:47:11.000Z</time>
      </trkpt>
      <trkpt lat="42.94335" lon="1.17502">
        <ele>418</ele>
        <time>2022-08-01T05:47:15.000Z</time>
      </trkpt>
      <trkpt lat="42.94329" lon="1.17512">
        <ele>418.3</ele>
        <time>2022-08-01T05:47:18.000Z</time>
      </trkpt>
      <trkpt lat="42.94321" lon="1.17524">
        <ele>418.4</ele>
        <time>2022-08-01T05:47:22.000Z</time>
      </trkpt>
      <trkpt lat="42.94313" lon="1.17535">
        <ele>418.8</ele>
        <time>2022-08-01T05:47:26.000Z</time>
      </trkpt>
      <trkpt lat="42.94306" lon="1.17544">
        <ele>419</ele>
        <time>2022-08-01T05:47:29.000Z</time>
      </trkpt>
      <trkpt lat="42.94296" lon="1.17552">
        <ele>418.8</ele>
        <time>2022-08-01T05:47:32.000Z</time>
      </trkpt>
      <trkpt lat="42.94287" lon="1.17562">
        <ele>419.1</ele>
        <time>2022-08-01T05:47:35.000Z</time>
      </trkpt>
      <trkpt lat="42.94279" lon="1.17573">
        <ele>419.6</ele>
        <time>2022-08-01T05:47:38.000Z</time>
      </trkpt>
      <trkpt lat="42.94272" lon="1.17583">
        <ele>420</ele>
        <time>2022-08-01T05:47:41.000Z</time>
      </trkpt>
      <trkpt lat="42.94264" lon="1.17594">
        <ele>420.4</ele>
        <time>2022-08-01T05:47:45.000Z</time>
      </trkpt>
      <trkpt lat="42.94257" lon="1.17606">
        <ele>421.5</ele>
        <time>2022-08-01T05:47:49.000Z</time>
      </trkpt>
      <trkpt lat="42.94249" lon="1.17617">
        <ele>422.4</ele>
        <time>2022-08-01T05:47:53.000Z</time>
      </trkpt>
      <trkpt lat="42.94242" lon="1.17629">
        <ele>422.9</ele>
        <time>2022-08-01T05:47:57.000Z</time>
      </trkpt>
      <trkpt lat="42.94237" lon="1.17639">
        <ele>423.8</ele>
        <time>2022-08-01T05:48:00.000Z</time>
      </trkpt>
      <trkpt lat="42.9423" lon="1.17652">
        <ele>424.4</ele>
        <time>2022-08-01T05:48:04.000Z</time>
      </trkpt>
      <trkpt lat="42.94223" lon="1.17665">
        <ele>425</ele>
        <time>2022-08-01T05:48:08.000Z</time>
      </trkpt>
      <trkpt lat="42.94216" lon="1.17679">
        <ele>426.4</ele>
        <time>2022-08-01T05:48:12.000Z</time>
      </trkpt>
      <trkpt lat="42.94209" lon="1.17692">
        <ele>426.8</ele>
        <time>2022-08-01T05:48:16.000Z</time>
      </trkpt>
      <trkpt lat="42.94203" lon="1.17704">
        <ele>427.7</ele>
        <time>2022-08-01T05:48:20.000Z</time>
      </trkpt>
      <trkpt lat="42.94196" lon="1.17717">
        <ele>428.2</ele>
        <time>2022-08-01T05:48:24.000Z</time>
      </trkpt>
      <trkpt lat="42.94191" lon="1.17729">
        <ele>427.8</ele>
        <time>2022-08-01T05:48:27.000Z</time>
      </trkpt>
      <trkpt lat="42.94184" lon="1.17741">
        <ele>427.8</ele>
        <time>2022-08-01T05:48:30.000Z</time>
      </trkpt>
      <trkpt lat="42.94179" lon="1.17751">
        <ele>427.5</ele>
        <time>2022-08-01T05:48:32.000Z</time>
      </trkpt>
      <trkpt lat="42.94171" lon="1.17765">
        <ele>426.8</ele>
        <time>2022-08-01T05:48:35.000Z</time>
      </trkpt>
      <trkpt lat="42.94163" lon="1.17776">
        <ele>427.3</ele>
        <time>2022-08-01T05:48:38.000Z</time>
      </trkpt>
      <trkpt lat="42.94155" lon="1.17785">
        <ele>427.6</ele>
        <time>2022-08-01T05:48:41.000Z</time>
      </trkpt>
      <trkpt lat="42.94147" lon="1.17793">
        <ele>428.7</ele>
        <time>2022-08-01T05:48:44.000Z</time>
      </trkpt>
      <trkpt lat="42.9414" lon="1.178">
        <ele>430.4</ele>
        <time>2022-08-01T05:48:47.000Z</time>
      </trkpt>
      <trkpt lat="42.9413" lon="1.17807">
        <ele>431.4</ele>
        <time>2022-08-01T05:48:51.000Z</time>
      </trkpt>
      <trkpt lat="42.94121" lon="1.17814">
        <ele>433.2</ele>
        <time>2022-08-01T05:48:55.000Z</time>
      </trkpt>
      <trkpt lat="42.94111" lon="1.1782">
        <ele>434.5</ele>
        <time>2022-08-01T05:48:59.000Z</time>
      </trkpt>
      <trkpt lat="42.941" lon="1.17825">
        <ele>435.4</ele>
        <time>2022-08-01T05:49:03.000Z</time>
      </trkpt>
      <trkpt lat="42.9409" lon="1.17826">
        <ele>436.4</ele>
        <time>2022-08-01T05:49:07.000Z</time>
      </trkpt>
      <trkpt lat="42.94081" lon="1.17827">
        <ele>437.3</ele>
        <time>2022-08-01T05:49:11.000Z</time>
      </trkpt>
      <trkpt lat="42.9407" lon="1.17828">
        <ele>438</ele>
        <time>2022-08-01T05:49:15.000Z</time>
      </trkpt>
      <trkpt lat="42.9406" lon="1.17828">
        <ele>438.7</ele>
        <time>2022-08-01T05:49:19.000Z</time>
      </trkpt>
      <trkpt lat="42.94051" lon="1.17827">
        <ele>439.8</ele>
        <time>2022-08-01T05:49:23.000Z</time>
      </trkpt>
      <trkpt lat="42.94042" lon="1.17824">
        <ele>440.5</ele>
        <time>2022-08-01T05:49:27.000Z</time>
      </trkpt>
      <trkpt lat="42.94032" lon="1.17821">
        <ele>441</ele>
        <time>2022-08-01T05:49:31.000Z</time>
      </trkpt>
      <trkpt lat="42.94023" lon="1.17817">
        <ele>441.8</ele>
        <time>2022-08-01T05:49:35.000Z</time>
      </trkpt>
      <trkpt lat="42.94014" lon="1.17814">
        <ele>442.5</ele>
        <time>2022-08-01T05:49:39.000Z</time>
      </trkpt>
      <trkpt lat="42.94004" lon="1.17812">
        <ele>443.5</ele>
        <time>2022-08-01T05:49:43.000Z</time>
      </trkpt>
      <trkpt lat="42.93994" lon="1.17808">
        <ele>444.1</ele>
        <time>2022-08-01T05:49:47.000Z</time>
      </trkpt>
      <trkpt lat="42.93985" lon="1.17803">
        <ele>445.2</ele>
        <time>2022-08-01T05:49:51.000Z</time>
      </trkpt>
      <trkpt lat="42.93974" lon="1.17803">
        <ele>446.4</ele>
        <time>2022-08-01T05:49:55.000Z</time>
      </trkpt>
      <trkpt lat="42.93964" lon="1.17802">
        <ele>447.5</ele>
        <time>2022-08-01T05:49:59.000Z</time>
      </trkpt>
      <trkpt lat="42.93954" lon="1.17798">
        <ele>448.3</ele>
        <time>2022-08-01T05:50:03.000Z</time>
      </trkpt>
      <trkpt lat="42.93944" lon="1.17795">
        <ele>449</ele>
        <time>2022-08-01T05:50:07.000Z</time>
      </trkpt>
      <trkpt lat="42.93935" lon="1.17792">
        <ele>450.6</ele>
        <time>2022-08-01T05:50:11.000Z</time>
      </trkpt>
      <trkpt lat="42.93926" lon="1.17788">
        <ele>451.4</ele>
        <time>2022-08-01T05:50:15.000Z</time>
      </trkpt>
      <trkpt lat="42.93918" lon="1.17784">
        <ele>452.1</ele>
        <time>2022-08-01T05:50:19.000Z</time>
      </trkpt>
      <trkpt lat="42.93908" lon="1.1778">
        <ele>453</ele>
        <time>2022-08-01T05:50:23.000Z</time>
      </trkpt>
      <trkpt lat="42.93899" lon="1.17777">
        <ele>454.1</ele>
        <time>2022-08-01T05:50:27.000Z</time>
      </trkpt>
      <trkpt lat="42.9389" lon="1.17774">
        <ele>455.4</ele>
        <time>2022-08-01T05:50:31.000Z</time>
      </trkpt>
      <trkpt lat="42.9388" lon="1.1777">
        <ele>457.4</ele>
        <time>2022-08-01T05:50:36.000Z</time>
      </trkpt>
      <trkpt lat="42.93869" lon="1.17769">
        <ele>459</ele>
        <time>2022-08-01T05:50:41.000Z</time>
      </trkpt>
      <trkpt lat="42.9386" lon="1.1777">
        <ele>460.9</ele>
        <time>2022-08-01T05:50:46.000Z</time>
      </trkpt>
      <trkpt lat="42.9385" lon="1.17775">
        <ele>462.8</ele>
        <time>2022-08-01T05:50:52.000Z</time>
      </trkpt>
      <trkpt lat="42.93842" lon="1.17785">
        <ele>464.4</ele>
        <time>2022-08-01T05:50:57.000Z</time>
      </trkpt>
      <trkpt lat="42.93835" lon="1.17796">
        <ele>465.4</ele>
        <time>2022-08-01T05:51:02.000Z</time>
      </trkpt>
      <trkpt lat="42.93828" lon="1.17806">
        <ele>466</ele>
        <time>2022-08-01T05:51:06.000Z</time>
      </trkpt>
      <trkpt lat="42.93821" lon="1.17815">
        <ele>466.6</ele>
        <time>2022-08-01T05:51:10.000Z</time>
      </trkpt>
      <trkpt lat="42.93812" lon="1.17825">
        <ele>467.6</ele>
        <time>2022-08-01T05:51:14.000Z</time>
      </trkpt>
      <trkpt lat="42.93803" lon="1.17835">
        <ele>468.1</ele>
        <time>2022-08-01T05:51:18.000Z</time>
      </trkpt>
      <trkpt lat="42.93795" lon="1.17844">
        <ele>468.6</ele>
        <time>2022-08-01T05:51:22.000Z</time>
      </trkpt>
      <trkpt lat="42.93788" lon="1.17851">
        <ele>469.9</ele>
        <time>2022-08-01T05:51:26.000Z</time>
      </trkpt>
      <trkpt lat="42.93779" lon="1.17859">
        <ele>470.6</ele>
        <time>2022-08-01T05:51:31.000Z</time>
      </trkpt>
      <trkpt lat="42.9377" lon="1.17864">
        <ele>471</ele>
        <time>2022-08-01T05:51:35.000Z</time>
      </trkpt>
      <trkpt lat="42.93761" lon="1.17869">
        <ele>471.7</ele>
        <time>2022-08-01T05:51:39.000Z</time>
      </trkpt>
      <trkpt lat="42.93751" lon="1.17873">
        <ele>472.4</ele>
        <time>2022-08-01T05:51:43.000Z</time>
      </trkpt>
      <trkpt lat="42.93742" lon="1.17878">
        <ele>473</ele>
        <time>2022-08-01T05:51:47.000Z</time>
      </trkpt>
      <trkpt lat="42.93732" lon="1.17881">
        <ele>473.2</ele>
        <time>2022-08-01T05:51:51.000Z</time>
      </trkpt>
      <trkpt lat="42.93721" lon="1.17883">
        <ele>473.5</ele>
        <time>2022-08-01T05:51:55.000Z</time>
      </trkpt>
      <trkpt lat="42.9371" lon="1.17887">
        <ele>474</ele>
        <time>2022-08-01T05:51:59.000Z</time>
      </trkpt>
      <trkpt lat="42.93699" lon="1.17891">
        <ele>474.9</ele>
        <time>2022-08-01T05:52:03.000Z</time>
      </trkpt>
      <trkpt lat="42.93689" lon="1.17896">
        <ele>475.8</ele>
        <time>2022-08-01T05:52:07.000Z</time>
      </trkpt>
      <trkpt lat="42.9368" lon="1.17901">
        <ele>476.2</ele>
        <time>2022-08-01T05:52:11.000Z</time>
      </trkpt>
      <trkpt lat="42.9367" lon="1.17905">
        <ele>477.2</ele>
        <time>2022-08-01T05:52:15.000Z</time>
      </trkpt>
      <trkpt lat="42.93661" lon="1.17906">
        <ele>478.3</ele>
        <time>2022-08-01T05:52:19.000Z</time>
      </trkpt>
      <trkpt lat="42.93652" lon="1.17909">
        <ele>479.3</ele>
        <time>2022-08-01T05:52:23.000Z</time>
      </trkpt>
      <trkpt lat="42.93643" lon="1.17919">
        <ele>480.9</ele>
        <time>2022-08-01T05:52:28.000Z</time>
      </trkpt>
      <trkpt lat="42.93635" lon="1.17929">
        <ele>482.1</ele>
        <time>2022-08-01T05:52:33.000Z</time>
      </trkpt>
      <trkpt lat="42.93625" lon="1.17937">
        <ele>484.3</ele>
        <time>2022-08-01T05:52:38.000Z</time>
      </trkpt>
      <trkpt lat="42.93615" lon="1.17938">
        <ele>486.3</ele>
        <time>2022-08-01T05:52:43.000Z</time>
      </trkpt>
      <trkpt lat="42.93604" lon="1.17942">
        <ele>487.9</ele>
        <time>2022-08-01T05:52:48.000Z</time>
      </trkpt>
      <trkpt lat="42.93595" lon="1.17946">
        <ele>488.8</ele>
        <time>2022-08-01T05:52:52.000Z</time>
      </trkpt>
      <trkpt lat="42.93586" lon="1.17954">
        <ele>490.1</ele>
        <time>2022-08-01T05:52:57.000Z</time>
      </trkpt>
      <trkpt lat="42.93578" lon="1.17962">
        <ele>491.2</ele>
        <time>2022-08-01T05:53:02.000Z</time>
      </trkpt>
      <trkpt lat="42.9357" lon="1.1797">
        <ele>492.8</ele>
        <time>2022-08-01T05:53:07.000Z</time>
      </trkpt>
      <trkpt lat="42.93561" lon="1.17972">
        <ele>493.7</ele>
        <time>2022-08-01T05:53:11.000Z</time>
      </trkpt>
      <trkpt lat="42.93552" lon="1.17971">
        <ele>494.8</ele>
        <time>2022-08-01T05:53:15.000Z</time>
      </trkpt>
      <trkpt lat="42.93542" lon="1.17967">
        <ele>495.6</ele>
        <time>2022-08-01T05:53:20.000Z</time>
      </trkpt>
      <trkpt lat="42.93531" lon="1.17967">
        <ele>496.6</ele>
        <time>2022-08-01T05:53:25.000Z</time>
      </trkpt>
      <trkpt lat="42.93521" lon="1.17972">
        <ele>497.2</ele>
        <time>2022-08-01T05:53:29.000Z</time>
      </trkpt>
      <trkpt lat="42.93511" lon="1.17977">
        <ele>498.4</ele>
        <time>2022-08-01T05:53:34.000Z</time>
      </trkpt>
      <trkpt lat="42.93501" lon="1.17983">
        <ele>499.6</ele>
        <time>2022-08-01T05:53:39.000Z</time>
      </trkpt>
      <trkpt lat="42.93493" lon="1.17988">
        <ele>500.6</ele>
        <time>2022-08-01T05:53:43.000Z</time>
      </trkpt>
      <trkpt lat="42.93483" lon="1.17994">
        <ele>501.9</ele>
        <time>2022-08-01T05:53:48.000Z</time>
      </trkpt>
      <trkpt lat="42.93474" lon="1.18001">
        <ele>503.1</ele>
        <time>2022-08-01T05:53:53.000Z</time>
      </trkpt>
      <trkpt lat="42.93464" lon="1.18007">
        <ele>504.3</ele>
        <time>2022-08-01T05:53:58.000Z</time>
      </trkpt>
      <trkpt lat="42.93456" lon="1.18013">
        <ele>505.2</ele>
        <time>2022-08-01T05:54:02.000Z</time>
      </trkpt>
      <trkpt lat="42.93447" lon="1.18018">
        <ele>506.4</ele>
        <time>2022-08-01T05:54:07.000Z</time>
      </trkpt>
      <trkpt lat="42.93438" lon="1.18022">
        <ele>508.2</ele>
        <time>2022-08-01T05:54:12.000Z</time>
      </trkpt>
      <trkpt lat="42.93429" lon="1.18027">
        <ele>508.9</ele>
        <time>2022-08-01T05:54:17.000Z</time>
      </trkpt>
      <trkpt lat="42.9342" lon="1.18033">
        <ele>510</ele>
        <time>2022-08-01T05:54:21.000Z</time>
      </trkpt>
      <trkpt lat="42.9341" lon="1.18039">
        <ele>510.8</ele>
        <time>2022-08-01T05:54:26.000Z</time>
      </trkpt>
      <trkpt lat="42.934" lon="1.18044">
        <ele>511.8</ele>
        <time>2022-08-01T05:54:31.000Z</time>
      </trkpt>
      <trkpt lat="42.93392" lon="1.1805">
        <ele>513</ele>
        <time>2022-08-01T05:54:35.000Z</time>
      </trkpt>
      <trkpt lat="42.93383" lon="1.18059">
        <ele>514.6</ele>
        <time>2022-08-01T05:54:40.000Z</time>
      </trkpt>
      <trkpt lat="42.93377" lon="1.1807">
        <ele>515.5</ele>
        <time>2022-08-01T05:54:45.000Z</time>
      </trkpt>
      <trkpt lat="42.93371" lon="1.1808">
        <ele>516.6</ele>
        <time>2022-08-01T05:54:50.000Z</time>
      </trkpt>
      <trkpt lat="42.93365" lon="1.18091">
        <ele>518.4</ele>
        <time>2022-08-01T05:54:55.000Z</time>
      </trkpt>
      <trkpt lat="42.9336" lon="1.18102">
        <ele>519.7</ele>
        <time>2022-08-01T05:55:00.000Z</time>
      </trkpt>
      <trkpt lat="42.9336" lon="1.18115">
        <ele>521.1</ele>
        <time>2022-08-01T05:55:05.000Z</time>
      </trkpt>
      <trkpt lat="42.93363" lon="1.18127">
        <ele>522.3</ele>
        <time>2022-08-01T05:55:10.000Z</time>
      </trkpt>
      <trkpt lat="42.93367" lon="1.18139">
        <ele>523.8</ele>
        <time>2022-08-01T05:55:15.000Z</time>
      </trkpt>
      <trkpt lat="42.93371" lon="1.18153">
        <ele>525.5</ele>
        <time>2022-08-01T05:55:20.000Z</time>
      </trkpt>
      <trkpt lat="42.93374" lon="1.18166">
        <ele>526.6</ele>
        <time>2022-08-01T05:55:25.000Z</time>
      </trkpt>
      <trkpt lat="42.93374" lon="1.1818">
        <ele>527.7</ele>
        <time>2022-08-01T05:55:30.000Z</time>
      </trkpt>
      <trkpt lat="42.93374" lon="1.18193">
        <ele>529.2</ele>
        <time>2022-08-01T05:55:35.000Z</time>
      </trkpt>
      <trkpt lat="42.93383" lon="1.18191">
        <ele>532</ele>
        <time>2022-08-01T05:55:43.000Z</time>
      </trkpt>
      <trkpt lat="42.93385" lon="1.18178">
        <ele>533.4</ele>
        <time>2022-08-01T05:55:48.000Z</time>
      </trkpt>
      <trkpt lat="42.93386" lon="1.18164">
        <ele>534.4</ele>
        <time>2022-08-01T05:55:53.000Z</time>
      </trkpt>
      <trkpt lat="42.93387" lon="1.1815">
        <ele>535.4</ele>
        <time>2022-08-01T05:55:58.000Z</time>
      </trkpt>
      <trkpt lat="42.93388" lon="1.18136">
        <ele>536.8</ele>
        <time>2022-08-01T05:56:03.000Z</time>
      </trkpt>
      <trkpt lat="42.93396" lon="1.18145">
        <ele>538.8</ele>
        <time>2022-08-01T05:56:09.000Z</time>
      </trkpt>
      <trkpt lat="42.93398" lon="1.18157">
        <ele>540.5</ele>
        <time>2022-08-01T05:56:13.000Z</time>
      </trkpt>
      <trkpt lat="42.93399" lon="1.18173">
        <ele>542.3</ele>
        <time>2022-08-01T05:56:18.000Z</time>
      </trkpt>
      <trkpt lat="42.934" lon="1.18187">
        <ele>543.7</ele>
        <time>2022-08-01T05:56:23.000Z</time>
      </trkpt>
      <trkpt lat="42.93399" lon="1.18199">
        <ele>545.1</ele>
        <time>2022-08-01T05:56:27.000Z</time>
      </trkpt>
      <trkpt lat="42.934" lon="1.18211">
        <ele>546</ele>
        <time>2022-08-01T05:56:31.000Z</time>
      </trkpt>
      <trkpt lat="42.93402" lon="1.18223">
        <ele>546.3</ele>
        <time>2022-08-01T05:56:35.000Z</time>
      </trkpt>
      <trkpt lat="42.93401" lon="1.18236">
        <ele>546.2</ele>
        <time>2022-08-01T05:56:39.000Z</time>
      </trkpt>
      <trkpt lat="42.93398" lon="1.1825">
        <ele>546.8</ele>
        <time>2022-08-01T05:56:43.000Z</time>
      </trkpt>
      <trkpt lat="42.93396" lon="1.18264">
        <ele>547</ele>
        <time>2022-08-01T05:56:47.000Z</time>
      </trkpt>
      <trkpt lat="42.93393" lon="1.18277">
        <ele>547.9</ele>
        <time>2022-08-01T05:56:51.000Z</time>
      </trkpt>
      <trkpt lat="42.93389" lon="1.18289">
        <ele>548.9</ele>
        <time>2022-08-01T05:56:55.000Z</time>
      </trkpt>
      <trkpt lat="42.93384" lon="1.183">
        <ele>550.2</ele>
        <time>2022-08-01T05:56:59.000Z</time>
      </trkpt>
      <trkpt lat="42.93377" lon="1.18308">
        <ele>551.3</ele>
        <time>2022-08-01T05:57:03.000Z</time>
      </trkpt>
      <trkpt lat="42.93368" lon="1.18316">
        <ele>552.6</ele>
        <time>2022-08-01T05:57:08.000Z</time>
      </trkpt>
      <trkpt lat="42.93358" lon="1.18323">
        <ele>554.2</ele>
        <time>2022-08-01T05:57:13.000Z</time>
      </trkpt>
      <trkpt lat="42.93349" lon="1.18328">
        <ele>556.2</ele>
        <time>2022-08-01T05:57:18.000Z</time>
      </trkpt>
      <trkpt lat="42.93341" lon="1.18334">
        <ele>557.8</ele>
        <time>2022-08-01T05:57:23.000Z</time>
      </trkpt>
      <trkpt lat="42.93334" lon="1.18345">
        <ele>558.7</ele>
        <time>2022-08-01T05:57:28.000Z</time>
      </trkpt>
      <trkpt lat="42.93326" lon="1.18354">
        <ele>560.2</ele>
        <time>2022-08-01T05:57:33.000Z</time>
      </trkpt>
      <trkpt lat="42.93316" lon="1.18359">
        <ele>561.2</ele>
        <time>2022-08-01T05:57:38.000Z</time>
      </trkpt>
      <trkpt lat="42.93307" lon="1.18356">
        <ele>561.8</ele>
        <time>2022-08-01T05:57:42.000Z</time>
      </trkpt>
      <trkpt lat="42.93297" lon="1.1835">
        <ele>561.8</ele>
        <time>2022-08-01T05:57:46.000Z</time>
      </trkpt>
      <trkpt lat="42.93288" lon="1.18344">
        <ele>562.3</ele>
        <time>2022-08-01T05:57:50.000Z</time>
      </trkpt>
      <trkpt lat="42.93278" lon="1.18339">
        <ele>563.2</ele>
        <time>2022-08-01T05:57:54.000Z</time>
      </trkpt>
      <trkpt lat="42.93269" lon="1.18337">
        <ele>563.6</ele>
        <time>2022-08-01T05:57:58.000Z</time>
      </trkpt>
      <trkpt lat="42.93259" lon="1.18342">
        <ele>563.8</ele>
        <time>2022-08-01T05:58:03.000Z</time>
      </trkpt>
      <trkpt lat="42.93251" lon="1.18351">
        <ele>564</ele>
        <time>2022-08-01T05:58:07.000Z</time>
      </trkpt>
      <trkpt lat="42.93244" lon="1.18361">
        <ele>564.2</ele>
        <time>2022-08-01T05:58:11.000Z</time>
      </trkpt>
      <trkpt lat="42.93238" lon="1.18372">
        <ele>564.3</ele>
        <time>2022-08-01T05:58:15.000Z</time>
      </trkpt>
      <trkpt lat="42.93235" lon="1.18387">
        <ele>564.2</ele>
        <time>2022-08-01T05:58:19.000Z</time>
      </trkpt>
      <trkpt lat="42.93234" lon="1.18403">
        <ele>564.2</ele>
        <time>2022-08-01T05:58:23.000Z</time>
      </trkpt>
      <trkpt lat="42.93232" lon="1.18417">
        <ele>563.8</ele>
        <time>2022-08-01T05:58:26.000Z</time>
      </trkpt>
      <trkpt lat="42.93229" lon="1.18432">
        <ele>563.8</ele>
        <time>2022-08-01T05:58:29.000Z</time>
      </trkpt>
      <trkpt lat="42.93228" lon="1.18447">
        <ele>563.5</ele>
        <time>2022-08-01T05:58:32.000Z</time>
      </trkpt>
      <trkpt lat="42.93228" lon="1.1846">
        <ele>563.1</ele>
        <time>2022-08-01T05:58:35.000Z</time>
      </trkpt>
      <trkpt lat="42.93232" lon="1.18476">
        <ele>563.7</ele>
        <time>2022-08-01T05:58:39.000Z</time>
      </trkpt>
      <trkpt lat="42.93238" lon="1.18489">
        <ele>564.5</ele>
        <time>2022-08-01T05:58:43.000Z</time>
      </trkpt>
      <trkpt lat="42.93242" lon="1.18504">
        <ele>565.2</ele>
        <time>2022-08-01T05:58:47.000Z</time>
      </trkpt>
      <trkpt lat="42.9324" lon="1.18517">
        <ele>566.2</ele>
        <time>2022-08-01T05:58:51.000Z</time>
      </trkpt>
      <trkpt lat="42.93233" lon="1.18528">
        <ele>567.1</ele>
        <time>2022-08-01T05:58:55.000Z</time>
      </trkpt>
      <trkpt lat="42.93224" lon="1.18536">
        <ele>567.8</ele>
        <time>2022-08-01T05:58:59.000Z</time>
      </trkpt>
      <trkpt lat="42.93215" lon="1.18543">
        <ele>568.4</ele>
        <time>2022-08-01T05:59:03.000Z</time>
      </trkpt>
      <trkpt lat="42.93207" lon="1.18549">
        <ele>569.3</ele>
        <time>2022-08-01T05:59:07.000Z</time>
      </trkpt>
      <trkpt lat="42.93201" lon="1.18559">
        <ele>570.5</ele>
        <time>2022-08-01T05:59:11.000Z</time>
      </trkpt>
      <trkpt lat="42.93201" lon="1.18574">
        <ele>571.9</ele>
        <time>2022-08-01T05:59:16.000Z</time>
      </trkpt>
      <trkpt lat="42.93203" lon="1.18588">
        <ele>574.3</ele>
        <time>2022-08-01T05:59:21.000Z</time>
      </trkpt>
      <trkpt lat="42.93202" lon="1.18602">
        <ele>575.8</ele>
        <time>2022-08-01T05:59:26.000Z</time>
      </trkpt>
      <trkpt lat="42.93198" lon="1.18614">
        <ele>577</ele>
        <time>2022-08-01T05:59:30.000Z</time>
      </trkpt>
      <trkpt lat="42.93192" lon="1.18624">
        <ele>577</ele>
        <time>2022-08-01T05:59:34.000Z</time>
      </trkpt>
      <trkpt lat="42.93187" lon="1.18637">
        <ele>577.4</ele>
        <time>2022-08-01T05:59:38.000Z</time>
      </trkpt>
      <trkpt lat="42.93183" lon="1.18651">
        <ele>576.6</ele>
        <time>2022-08-01T05:59:41.000Z</time>
      </trkpt>
      <trkpt lat="42.93184" lon="1.18669">
        <ele>575.8</ele>
        <time>2022-08-01T05:59:44.000Z</time>
      </trkpt>
      <trkpt lat="42.93183" lon="1.18684">
        <ele>574.7</ele>
        <time>2022-08-01T05:59:46.000Z</time>
      </trkpt>
      <trkpt lat="42.93179" lon="1.18697">
        <ele>573.6</ele>
        <time>2022-08-01T05:59:48.000Z</time>
      </trkpt>
      <trkpt lat="42.9317" lon="1.18701">
        <ele>573.3</ele>
        <time>2022-08-01T05:59:50.000Z</time>
      </trkpt>
      <trkpt lat="42.93159" lon="1.18695">
        <ele>573.3</ele>
        <time>2022-08-01T05:59:53.000Z</time>
      </trkpt>
      <trkpt lat="42.93147" lon="1.18693">
        <ele>573.8</ele>
        <time>2022-08-01T05:59:56.000Z</time>
      </trkpt>
      <trkpt lat="42.93137" lon="1.18694">
        <ele>574.2</ele>
        <time>2022-08-01T05:59:59.000Z</time>
      </trkpt>
      <trkpt lat="42.93127" lon="1.18694">
        <ele>574.7</ele>
        <time>2022-08-01T06:00:02.000Z</time>
      </trkpt>
      <trkpt lat="42.93117" lon="1.18696">
        <ele>574.6</ele>
        <time>2022-08-01T06:00:05.000Z</time>
      </trkpt>
      <trkpt lat="42.93109" lon="1.18703">
        <ele>575.5</ele>
        <time>2022-08-01T06:00:08.000Z</time>
      </trkpt>
      <trkpt lat="42.93102" lon="1.18715">
        <ele>576.4</ele>
        <time>2022-08-01T06:00:12.000Z</time>
      </trkpt>
      <trkpt lat="42.93098" lon="1.18728">
        <ele>577.9</ele>
        <time>2022-08-01T06:00:16.000Z</time>
      </trkpt>
      <trkpt lat="42.93095" lon="1.18741">
        <ele>578.9</ele>
        <time>2022-08-01T06:00:20.000Z</time>
      </trkpt>
      <trkpt lat="42.9309" lon="1.18754">
        <ele>579.5</ele>
        <time>2022-08-01T06:00:24.000Z</time>
      </trkpt>
      <trkpt lat="42.93082" lon="1.18764">
        <ele>580.6</ele>
        <time>2022-08-01T06:00:28.000Z</time>
      </trkpt>
      <trkpt lat="42.93071" lon="1.1877">
        <ele>580.7</ele>
        <time>2022-08-01T06:00:32.000Z</time>
      </trkpt>
      <trkpt lat="42.93062" lon="1.18774">
        <ele>580.9</ele>
        <time>2022-08-01T06:00:35.000Z</time>
      </trkpt>
      <trkpt lat="42.93054" lon="1.1878">
        <ele>581.3</ele>
        <time>2022-08-01T06:00:38.000Z</time>
      </trkpt>
      <trkpt lat="42.93047" lon="1.18789">
        <ele>581.5</ele>
        <time>2022-08-01T06:00:41.000Z</time>
      </trkpt>
      <trkpt lat="42.93041" lon="1.18803">
        <ele>581.9</ele>
        <time>2022-08-01T06:00:45.000Z</time>
      </trkpt>
      <trkpt lat="42.9304" lon="1.18817">
        <ele>582.3</ele>
        <time>2022-08-01T06:00:49.000Z</time>
      </trkpt>
      <trkpt lat="42.9304" lon="1.18832">
        <ele>583</ele>
        <time>2022-08-01T06:00:53.000Z</time>
      </trkpt>
      <trkpt lat="42.9304" lon="1.18847">
        <ele>583.7</ele>
        <time>2022-08-01T06:00:57.000Z</time>
      </trkpt>
      <trkpt lat="42.93039" lon="1.18861">
        <ele>585.5</ele>
        <time>2022-08-01T06:01:01.000Z</time>
      </trkpt>
      <trkpt lat="42.93035" lon="1.18873">
        <ele>585.4</ele>
        <time>2022-08-01T06:01:04.000Z</time>
      </trkpt>
      <trkpt lat="42.93031" lon="1.18888">
        <ele>585.8</ele>
        <time>2022-08-01T06:01:08.000Z</time>
      </trkpt>
      <trkpt lat="42.93027" lon="1.189">
        <ele>586</ele>
        <time>2022-08-01T06:01:11.000Z</time>
      </trkpt>
      <trkpt lat="42.93023" lon="1.18913">
        <ele>585.7</ele>
        <time>2022-08-01T06:01:14.000Z</time>
      </trkpt>
      <trkpt lat="42.93013" lon="1.1892">
        <ele>588.3</ele>
        <time>2022-08-01T06:01:18.000Z</time>
      </trkpt>
      <trkpt lat="42.93002" lon="1.18919">
        <ele>589.3</ele>
        <time>2022-08-01T06:01:22.000Z</time>
      </trkpt>
      <trkpt lat="42.92993" lon="1.18921">
        <ele>589.2</ele>
        <time>2022-08-01T06:01:25.000Z</time>
      </trkpt>
      <trkpt lat="42.92981" lon="1.18924">
        <ele>589.5</ele>
        <time>2022-08-01T06:01:29.000Z</time>
      </trkpt>
      <trkpt lat="42.92972" lon="1.18934">
        <ele>589.5</ele>
        <time>2022-08-01T06:01:33.000Z</time>
      </trkpt>
      <trkpt lat="42.92964" lon="1.18944">
        <ele>589.4</ele>
        <time>2022-08-01T06:01:37.000Z</time>
      </trkpt>
      <trkpt lat="42.92954" lon="1.18949">
        <ele>590</ele>
        <time>2022-08-01T06:01:41.000Z</time>
      </trkpt>
      <trkpt lat="42.92943" lon="1.18952">
        <ele>590.7</ele>
        <time>2022-08-01T06:01:45.000Z</time>
      </trkpt>
      <trkpt lat="42.92931" lon="1.18953">
        <ele>591.2</ele>
        <time>2022-08-01T06:01:49.000Z</time>
      </trkpt>
      <trkpt lat="42.92921" lon="1.18954">
        <ele>591.9</ele>
        <time>2022-08-01T06:01:53.000Z</time>
      </trkpt>
      <trkpt lat="42.92911" lon="1.18952">
        <ele>592.5</ele>
        <time>2022-08-01T06:01:57.000Z</time>
      </trkpt>
      <trkpt lat="42.92902" lon="1.18952">
        <ele>593.4</ele>
        <time>2022-08-01T06:02:01.000Z</time>
      </trkpt>
      <trkpt lat="42.92891" lon="1.18952">
        <ele>595.1</ele>
        <time>2022-08-01T06:02:05.000Z</time>
      </trkpt>
      <trkpt lat="42.92882" lon="1.18959">
        <ele>595.4</ele>
        <time>2022-08-01T06:02:09.000Z</time>
      </trkpt>
      <trkpt lat="42.92874" lon="1.18965">
        <ele>597</ele>
        <time>2022-08-01T06:02:12.000Z</time>
      </trkpt>
      <trkpt lat="42.92865" lon="1.18973">
        <ele>597.6</ele>
        <time>2022-08-01T06:02:16.000Z</time>
      </trkpt>
      <trkpt lat="42.92856" lon="1.1898">
        <ele>598.7</ele>
        <time>2022-08-01T06:02:21.000Z</time>
      </trkpt>
      <trkpt lat="42.92846" lon="1.1898">
        <ele>598.8</ele>
        <time>2022-08-01T06:02:26.000Z</time>
      </trkpt>
      <trkpt lat="42.92835" lon="1.18974">
        <ele>598</ele>
        <time>2022-08-01T06:02:30.000Z</time>
      </trkpt>
      <trkpt lat="42.92824" lon="1.18965">
        <ele>597.8</ele>
        <time>2022-08-01T06:02:33.000Z</time>
      </trkpt>
      <trkpt lat="42.92813" lon="1.18957">
        <ele>597.1</ele>
        <time>2022-08-01T06:02:36.000Z</time>
      </trkpt>
      <trkpt lat="42.92805" lon="1.18948">
        <ele>597.3</ele>
        <time>2022-08-01T06:02:39.000Z</time>
      </trkpt>
      <trkpt lat="42.92795" lon="1.1894">
        <ele>598</ele>
        <time>2022-08-01T06:02:43.000Z</time>
      </trkpt>
      <trkpt lat="42.92785" lon="1.18934">
        <ele>598.4</ele>
        <time>2022-08-01T06:02:47.000Z</time>
      </trkpt>
      <trkpt lat="42.92775" lon="1.18928">
        <ele>599.7</ele>
        <time>2022-08-01T06:02:51.000Z</time>
      </trkpt>
      <trkpt lat="42.92766" lon="1.18924">
        <ele>600.3</ele>
        <time>2022-08-01T06:02:57.000Z</time>
      </trkpt>
      <trkpt lat="42.92757" lon="1.18915">
        <ele>601.4</ele>
        <time>2022-08-01T06:03:02.000Z</time>
      </trkpt>
      <trkpt lat="42.92749" lon="1.18907">
        <ele>601.7</ele>
        <time>2022-08-01T06:03:05.000Z</time>
      </trkpt>
      <trkpt lat="42.92741" lon="1.18897">
        <ele>602.6</ele>
        <time>2022-08-01T06:03:09.000Z</time>
      </trkpt>
      <trkpt lat="42.92733" lon="1.18887">
        <ele>603.8</ele>
        <time>2022-08-01T06:03:13.000Z</time>
      </trkpt>
      <trkpt lat="42.92725" lon="1.18878">
        <ele>604.4</ele>
        <time>2022-08-01T06:03:17.000Z</time>
      </trkpt>
      <trkpt lat="42.92717" lon="1.18868">
        <ele>604.5</ele>
        <time>2022-08-01T06:03:21.000Z</time>
      </trkpt>
      <trkpt lat="42.9271" lon="1.18859">
        <ele>605.1</ele>
        <time>2022-08-01T06:03:28.000Z</time>
      </trkpt>
      <trkpt lat="42.92702" lon="1.18851">
        <ele>605.5</ele>
        <time>2022-08-01T06:03:32.000Z</time>
      </trkpt>
      <trkpt lat="42.92691" lon="1.18846">
        <ele>605.6</ele>
        <time>2022-08-01T06:03:36.000Z</time>
      </trkpt>
      <trkpt lat="42.92681" lon="1.18845">
        <ele>606.5</ele>
        <time>2022-08-01T06:03:40.000Z</time>
      </trkpt>
      <trkpt lat="42.92671" lon="1.18843">
        <ele>607.8</ele>
        <time>2022-08-01T06:03:44.000Z</time>
      </trkpt>
      <trkpt lat="42.92662" lon="1.18842">
        <ele>609</ele>
        <time>2022-08-01T06:03:48.000Z</time>
      </trkpt>
      <trkpt lat="42.92652" lon="1.18841">
        <ele>610.7</ele>
        <time>2022-08-01T06:03:53.000Z</time>
      </trkpt>
      <trkpt lat="42.92643" lon="1.18841">
        <ele>612.4</ele>
        <time>2022-08-01T06:03:58.000Z</time>
      </trkpt>
      <trkpt lat="42.92632" lon="1.18841">
        <ele>613.8</ele>
        <time>2022-08-01T06:04:03.000Z</time>
      </trkpt>
      <trkpt lat="42.92621" lon="1.18838">
        <ele>615</ele>
        <time>2022-08-01T06:04:08.000Z</time>
      </trkpt>
      <trkpt lat="42.92611" lon="1.18834">
        <ele>616.5</ele>
        <time>2022-08-01T06:04:13.000Z</time>
      </trkpt>
      <trkpt lat="42.926" lon="1.18832">
        <ele>618.4</ele>
        <time>2022-08-01T06:04:18.000Z</time>
      </trkpt>
      <trkpt lat="42.92592" lon="1.18824">
        <ele>619.8</ele>
        <time>2022-08-01T06:04:23.000Z</time>
      </trkpt>
      <trkpt lat="42.92585" lon="1.18813">
        <ele>621.8</ele>
        <time>2022-08-01T06:04:29.000Z</time>
      </trkpt>
      <trkpt lat="42.9258" lon="1.18802">
        <ele>622.8</ele>
        <time>2022-08-01T06:04:34.000Z</time>
      </trkpt>
      <trkpt lat="42.92571" lon="1.18804">
        <ele>623.3</ele>
        <time>2022-08-01T06:04:41.000Z</time>
      </trkpt>
      <trkpt lat="42.92569" lon="1.18818">
        <ele>622.5</ele>
        <time>2022-08-01T06:04:46.000Z</time>
      </trkpt>
      <trkpt lat="42.92566" lon="1.18833">
        <ele>622.6</ele>
        <time>2022-08-01T06:04:51.000Z</time>
      </trkpt>
      <trkpt lat="42.92561" lon="1.18847">
        <ele>622.1</ele>
        <time>2022-08-01T06:04:55.000Z</time>
      </trkpt>
      <trkpt lat="42.92555" lon="1.18858">
        <ele>621.5</ele>
        <time>2022-08-01T06:04:59.000Z</time>
      </trkpt>
      <trkpt lat="42.9255" lon="1.18869">
        <ele>621.8</ele>
        <time>2022-08-01T06:05:03.000Z</time>
      </trkpt>
      <trkpt lat="42.92543" lon="1.1888">
        <ele>622.2</ele>
        <time>2022-08-01T06:05:07.000Z</time>
      </trkpt>
      <trkpt lat="42.92535" lon="1.1889">
        <ele>622.1</ele>
        <time>2022-08-01T06:05:11.000Z</time>
      </trkpt>
      <trkpt lat="42.92527" lon="1.18901">
        <ele>622.3</ele>
        <time>2022-08-01T06:05:16.000Z</time>
      </trkpt>
      <trkpt lat="42.92519" lon="1.1891">
        <ele>622</ele>
        <time>2022-08-01T06:05:20.000Z</time>
      </trkpt>
      <trkpt lat="42.92511" lon="1.18921">
        <ele>621.2</ele>
        <time>2022-08-01T06:05:24.000Z</time>
      </trkpt>
      <trkpt lat="42.92504" lon="1.18932">
        <ele>621.2</ele>
        <time>2022-08-01T06:05:28.000Z</time>
      </trkpt>
      <trkpt lat="42.92498" lon="1.18944">
        <ele>620.9</ele>
        <time>2022-08-01T06:05:32.000Z</time>
      </trkpt>
      <trkpt lat="42.92492" lon="1.18956">
        <ele>621.4</ele>
        <time>2022-08-01T06:05:36.000Z</time>
      </trkpt>
      <trkpt lat="42.92486" lon="1.18968">
        <ele>621.4</ele>
        <time>2022-08-01T06:05:40.000Z</time>
      </trkpt>
      <trkpt lat="42.92481" lon="1.18981">
        <ele>621.4</ele>
        <time>2022-08-01T06:05:44.000Z</time>
      </trkpt>
      <trkpt lat="42.92477" lon="1.18993">
        <ele>621.8</ele>
        <time>2022-08-01T06:05:48.000Z</time>
      </trkpt>
      <trkpt lat="42.92472" lon="1.19005">
        <ele>621.7</ele>
        <time>2022-08-01T06:05:52.000Z</time>
      </trkpt>
      <trkpt lat="42.92468" lon="1.19017">
        <ele>621.8</ele>
        <time>2022-08-01T06:05:56.000Z</time>
      </trkpt>
      <trkpt lat="42.92464" lon="1.19029">
        <ele>621.8</ele>
        <time>2022-08-01T06:06:00.000Z</time>
      </trkpt>
      <trkpt lat="42.92459" lon="1.19042">
        <ele>622.1</ele>
        <time>2022-08-01T06:06:05.000Z</time>
      </trkpt>
      <trkpt lat="42.92454" lon="1.19054">
        <ele>622.5</ele>
        <time>2022-08-01T06:06:09.000Z</time>
      </trkpt>
      <trkpt lat="42.92447" lon="1.19066">
        <ele>622</ele>
        <time>2022-08-01T06:06:13.000Z</time>
      </trkpt>
      <trkpt lat="42.92438" lon="1.19075">
        <ele>621.9</ele>
        <time>2022-08-01T06:06:17.000Z</time>
      </trkpt>
      <trkpt lat="42.92428" lon="1.19083">
        <ele>620.9</ele>
        <time>2022-08-01T06:06:21.000Z</time>
      </trkpt>
      <trkpt lat="42.9242" lon="1.19088">
        <ele>620.4</ele>
        <time>2022-08-01T06:06:24.000Z</time>
      </trkpt>
      <trkpt lat="42.92414" lon="1.19093">
        <ele>620.6</ele>
        <time>2022-08-01T06:06:29.000Z</time>
      </trkpt>
      <trkpt lat="42.92413" lon="1.19094">
        <ele>620.7</ele>
        <time>2022-08-01T06:06:33.000Z</time>
      </trkpt>
      <trkpt lat="42.92412" lon="1.19094">
        <ele>620.4</ele>
        <time>2022-08-01T06:06:41.000Z</time>
      </trkpt>
      <trkpt lat="42.92412" lon="1.19095">
        <ele>620.7</ele>
        <time>2022-08-01T06:07:33.000Z</time>
      </trkpt>
      <trkpt lat="42.92402" lon="1.19098">
        <ele>621.2</ele>
        <time>2022-08-01T06:07:46.000Z</time>
      </trkpt>
      <trkpt lat="42.92394" lon="1.19105">
        <ele>621</ele>
        <time>2022-08-01T06:07:51.000Z</time>
      </trkpt>
      <trkpt lat="42.92384" lon="1.19109">
        <ele>621.2</ele>
        <time>2022-08-01T06:07:55.000Z</time>
      </trkpt>
      <trkpt lat="42.92373" lon="1.19112">
        <ele>621.2</ele>
        <time>2022-08-01T06:07:59.000Z</time>
      </trkpt>
      <trkpt lat="42.92364" lon="1.19121">
        <ele>622</ele>
        <time>2022-08-01T06:08:03.000Z</time>
      </trkpt>
      <trkpt lat="42.92357" lon="1.1913">
        <ele>621.7</ele>
        <time>2022-08-01T06:08:07.000Z</time>
      </trkpt>
      <trkpt lat="42.9235" lon="1.1914">
        <ele>621.7</ele>
        <time>2022-08-01T06:08:11.000Z</time>
      </trkpt>
      <trkpt lat="42.92344" lon="1.19151">
        <ele>621.9</ele>
        <time>2022-08-01T06:08:15.000Z</time>
      </trkpt>
      <trkpt lat="42.92336" lon="1.19163">
        <ele>621.7</ele>
        <time>2022-08-01T06:08:19.000Z</time>
      </trkpt>
      <trkpt lat="42.92329" lon="1.19172">
        <ele>621.9</ele>
        <time>2022-08-01T06:08:22.000Z</time>
      </trkpt>
      <trkpt lat="42.9232" lon="1.19181">
        <ele>621.2</ele>
        <time>2022-08-01T06:08:26.000Z</time>
      </trkpt>
      <trkpt lat="42.92311" lon="1.19189">
        <ele>621.2</ele>
        <time>2022-08-01T06:08:30.000Z</time>
      </trkpt>
      <trkpt lat="42.92302" lon="1.19196">
        <ele>621</ele>
        <time>2022-08-01T06:08:34.000Z</time>
      </trkpt>
      <trkpt lat="42.92294" lon="1.19204">
        <ele>620.6</ele>
        <time>2022-08-01T06:08:38.000Z</time>
      </trkpt>
      <trkpt lat="42.92285" lon="1.19211">
        <ele>620.9</ele>
        <time>2022-08-01T06:08:42.000Z</time>
      </trkpt>
      <trkpt lat="42.92277" lon="1.19218">
        <ele>621.3</ele>
        <time>2022-08-01T06:08:46.000Z</time>
      </trkpt>
      <trkpt lat="42.92267" lon="1.19222">
        <ele>621.6</ele>
        <time>2022-08-01T06:08:51.000Z</time>
      </trkpt>
      <trkpt lat="42.92257" lon="1.19229">
        <ele>621.8</ele>
        <time>2022-08-01T06:08:55.000Z</time>
      </trkpt>
      <trkpt lat="42.92248" lon="1.19235">
        <ele>622</ele>
        <time>2022-08-01T06:08:59.000Z</time>
      </trkpt>
      <trkpt lat="42.92239" lon="1.19241">
        <ele>622.1</ele>
        <time>2022-08-01T06:09:03.000Z</time>
      </trkpt>
      <trkpt lat="42.92231" lon="1.1925">
        <ele>621.9</ele>
        <time>2022-08-01T06:09:07.000Z</time>
      </trkpt>
      <trkpt lat="42.92223" lon="1.19261">
        <ele>621.3</ele>
        <time>2022-08-01T06:09:11.000Z</time>
      </trkpt>
      <trkpt lat="42.92215" lon="1.19271">
        <ele>621.1</ele>
        <time>2022-08-01T06:09:15.000Z</time>
      </trkpt>
      <trkpt lat="42.92205" lon="1.19274">
        <ele>620.9</ele>
        <time>2022-08-01T06:09:18.000Z</time>
      </trkpt>
      <trkpt lat="42.92193" lon="1.19271">
        <ele>620.6</ele>
        <time>2022-08-01T06:09:21.000Z</time>
      </trkpt>
      <trkpt lat="42.92183" lon="1.19266">
        <ele>621.3</ele>
        <time>2022-08-01T06:09:25.000Z</time>
      </trkpt>
      <trkpt lat="42.92172" lon="1.19263">
        <ele>620.9</ele>
        <time>2022-08-01T06:09:29.000Z</time>
      </trkpt>
      <trkpt lat="42.92161" lon="1.19259">
        <ele>621.4</ele>
        <time>2022-08-01T06:09:33.000Z</time>
      </trkpt>
      <trkpt lat="42.92149" lon="1.1926">
        <ele>621.7</ele>
        <time>2022-08-01T06:09:37.000Z</time>
      </trkpt>
      <trkpt lat="42.92139" lon="1.19263">
        <ele>621.6</ele>
        <time>2022-08-01T06:09:41.000Z</time>
      </trkpt>
      <trkpt lat="42.9213" lon="1.19269">
        <ele>621.4</ele>
        <time>2022-08-01T06:09:45.000Z</time>
      </trkpt>
      <trkpt lat="42.92121" lon="1.19277">
        <ele>621.7</ele>
        <time>2022-08-01T06:09:49.000Z</time>
      </trkpt>
      <trkpt lat="42.92112" lon="1.19287">
        <ele>621.6</ele>
        <time>2022-08-01T06:09:54.000Z</time>
      </trkpt>
      <trkpt lat="42.92105" lon="1.19299">
        <ele>621.6</ele>
        <time>2022-08-01T06:09:59.000Z</time>
      </trkpt>
      <trkpt lat="42.92099" lon="1.19313">
        <ele>621.4</ele>
        <time>2022-08-01T06:10:03.000Z</time>
      </trkpt>
      <trkpt lat="42.92095" lon="1.19324">
        <ele>621.2</ele>
        <time>2022-08-01T06:10:06.000Z</time>
      </trkpt>
      <trkpt lat="42.9209" lon="1.19339">
        <ele>621.3</ele>
        <time>2022-08-01T06:10:10.000Z</time>
      </trkpt>
      <trkpt lat="42.92083" lon="1.19351">
        <ele>621.7</ele>
        <time>2022-08-01T06:10:14.000Z</time>
      </trkpt>
      <trkpt lat="42.92077" lon="1.19363">
        <ele>622</ele>
        <time>2022-08-01T06:10:18.000Z</time>
      </trkpt>
      <trkpt lat="42.92072" lon="1.19377">
        <ele>621.9</ele>
        <time>2022-08-01T06:10:22.000Z</time>
      </trkpt>
      <trkpt lat="42.92068" lon="1.19391">
        <ele>622.3</ele>
        <time>2022-08-01T06:10:26.000Z</time>
      </trkpt>
      <trkpt lat="42.92065" lon="1.19405">
        <ele>622</ele>
        <time>2022-08-01T06:10:30.000Z</time>
      </trkpt>
      <trkpt lat="42.92062" lon="1.19421">
        <ele>622.9</ele>
        <time>2022-08-01T06:10:34.000Z</time>
      </trkpt>
      <trkpt lat="42.92058" lon="1.19436">
        <ele>622.4</ele>
        <time>2022-08-01T06:10:38.000Z</time>
      </trkpt>
      <trkpt lat="42.92055" lon="1.19447">
        <ele>622.7</ele>
        <time>2022-08-01T06:10:41.000Z</time>
      </trkpt>
      <trkpt lat="42.92052" lon="1.19463">
        <ele>622.8</ele>
        <time>2022-08-01T06:10:45.000Z</time>
      </trkpt>
      <trkpt lat="42.92047" lon="1.19475">
        <ele>623.1</ele>
        <time>2022-08-01T06:10:48.000Z</time>
      </trkpt>
      <trkpt lat="42.92041" lon="1.19487">
        <ele>622.9</ele>
        <time>2022-08-01T06:10:51.000Z</time>
      </trkpt>
      <trkpt lat="42.92032" lon="1.19498">
        <ele>622.7</ele>
        <time>2022-08-01T06:10:55.000Z</time>
      </trkpt>
      <trkpt lat="42.92025" lon="1.19507">
        <ele>623.2</ele>
        <time>2022-08-01T06:10:58.000Z</time>
      </trkpt>
      <trkpt lat="42.92015" lon="1.19516">
        <ele>623</ele>
        <time>2022-08-01T06:11:02.000Z</time>
      </trkpt>
      <trkpt lat="42.92006" lon="1.19523">
        <ele>623.7</ele>
        <time>2022-08-01T06:11:06.000Z</time>
      </trkpt>
      <trkpt lat="42.91998" lon="1.19531">
        <ele>624.1</ele>
        <time>2022-08-01T06:11:10.000Z</time>
      </trkpt>
      <trkpt lat="42.91991" lon="1.1954">
        <ele>624.9</ele>
        <time>2022-08-01T06:11:14.000Z</time>
      </trkpt>
      <trkpt lat="42.91986" lon="1.1955">
        <ele>625.3</ele>
        <time>2022-08-01T06:11:18.000Z</time>
      </trkpt>
      <trkpt lat="42.91979" lon="1.19561">
        <ele>625.1</ele>
        <time>2022-08-01T06:11:22.000Z</time>
      </trkpt>
      <trkpt lat="42.91973" lon="1.19571">
        <ele>624.8</ele>
        <time>2022-08-01T06:11:25.000Z</time>
      </trkpt>
      <trkpt lat="42.91967" lon="1.19583">
        <ele>624.3</ele>
        <time>2022-08-01T06:11:28.000Z</time>
      </trkpt>
      <trkpt lat="42.91962" lon="1.19594">
        <ele>623.8</ele>
        <time>2022-08-01T06:11:31.000Z</time>
      </trkpt>
      <trkpt lat="42.91957" lon="1.19606">
        <ele>622.9</ele>
        <time>2022-08-01T06:11:34.000Z</time>
      </trkpt>
      <trkpt lat="42.91951" lon="1.19623">
        <ele>621.5</ele>
        <time>2022-08-01T06:11:37.000Z</time>
      </trkpt>
      <trkpt lat="42.91946" lon="1.19638">
        <ele>620.3</ele>
        <time>2022-08-01T06:11:39.000Z</time>
      </trkpt>
      <trkpt lat="42.91942" lon="1.19653">
        <ele>619.4</ele>
        <time>2022-08-01T06:11:41.000Z</time>
      </trkpt>
      <trkpt lat="42.91939" lon="1.19666">
        <ele>618.1</ele>
        <time>2022-08-01T06:11:43.000Z</time>
      </trkpt>
      <trkpt lat="42.9194" lon="1.19679">
        <ele>617.1</ele>
        <time>2022-08-01T06:11:45.000Z</time>
      </trkpt>
      <trkpt lat="42.91947" lon="1.19692">
        <ele>616.4</ele>
        <time>2022-08-01T06:11:47.000Z</time>
      </trkpt>
      <trkpt lat="42.91955" lon="1.19703">
        <ele>616.3</ele>
        <time>2022-08-01T06:11:49.000Z</time>
      </trkpt>
      <trkpt lat="42.91965" lon="1.19714">
        <ele>614.7</ele>
        <time>2022-08-01T06:11:51.000Z</time>
      </trkpt>
      <trkpt lat="42.9197" lon="1.19725">
        <ele>612.9</ele>
        <time>2022-08-01T06:11:53.000Z</time>
      </trkpt>
      <trkpt lat="42.91967" lon="1.19738">
        <ele>613</ele>
        <time>2022-08-01T06:11:57.000Z</time>
      </trkpt>
      <trkpt lat="42.91958" lon="1.19744">
        <ele>613.6</ele>
        <time>2022-08-01T06:12:00.000Z</time>
      </trkpt>
      <trkpt lat="42.91949" lon="1.19751">
        <ele>614.9</ele>
        <time>2022-08-01T06:12:03.000Z</time>
      </trkpt>
      <trkpt lat="42.91943" lon="1.19759">
        <ele>615.9</ele>
        <time>2022-08-01T06:12:06.000Z</time>
      </trkpt>
      <trkpt lat="42.91937" lon="1.19769">
        <ele>616.2</ele>
        <time>2022-08-01T06:12:09.000Z</time>
      </trkpt>
      <trkpt lat="42.9193" lon="1.19781">
        <ele>617.7</ele>
        <time>2022-08-01T06:12:13.000Z</time>
      </trkpt>
      <trkpt lat="42.91925" lon="1.19791">
        <ele>618.7</ele>
        <time>2022-08-01T06:12:17.000Z</time>
      </trkpt>
      <trkpt lat="42.91919" lon="1.19803">
        <ele>620.8</ele>
        <time>2022-08-01T06:12:22.000Z</time>
      </trkpt>
      <trkpt lat="42.91916" lon="1.19817">
        <ele>622</ele>
        <time>2022-08-01T06:12:27.000Z</time>
      </trkpt>
      <trkpt lat="42.91912" lon="1.19829">
        <ele>622.5</ele>
        <time>2022-08-01T06:12:31.000Z</time>
      </trkpt>
      <trkpt lat="42.91908" lon="1.1984">
        <ele>623.8</ele>
        <time>2022-08-01T06:12:36.000Z</time>
      </trkpt>
      <trkpt lat="42.91905" lon="1.19852">
        <ele>624.6</ele>
        <time>2022-08-01T06:12:40.000Z</time>
      </trkpt>
      <trkpt lat="42.91904" lon="1.19865">
        <ele>626.3</ele>
        <time>2022-08-01T06:12:44.000Z</time>
      </trkpt>
      <trkpt lat="42.91906" lon="1.1988">
        <ele>628.2</ele>
        <time>2022-08-01T06:12:49.000Z</time>
      </trkpt>
      <trkpt lat="42.91905" lon="1.19892">
        <ele>630.1</ele>
        <time>2022-08-01T06:12:54.000Z</time>
      </trkpt>
      <trkpt lat="42.91906" lon="1.19906">
        <ele>631.6</ele>
        <time>2022-08-01T06:12:59.000Z</time>
      </trkpt>
      <trkpt lat="42.91907" lon="1.19919">
        <ele>632.4</ele>
        <time>2022-08-01T06:13:03.000Z</time>
      </trkpt>
      <trkpt lat="42.91906" lon="1.19932">
        <ele>632.2</ele>
        <time>2022-08-01T06:13:12.000Z</time>
      </trkpt>
      <trkpt lat="42.91905" lon="1.19944">
        <ele>631.8</ele>
        <time>2022-08-01T06:13:15.000Z</time>
      </trkpt>
      <trkpt lat="42.91902" lon="1.19958">
        <ele>631.5</ele>
        <time>2022-08-01T06:13:18.000Z</time>
      </trkpt>
      <trkpt lat="42.919" lon="1.19971">
        <ele>631.6</ele>
        <time>2022-08-01T06:13:22.000Z</time>
      </trkpt>
      <trkpt lat="42.91897" lon="1.19983">
        <ele>631.7</ele>
        <time>2022-08-01T06:13:26.000Z</time>
      </trkpt>
      <trkpt lat="42.91893" lon="1.19995">
        <ele>631.7</ele>
        <time>2022-08-01T06:13:30.000Z</time>
      </trkpt>
      <trkpt lat="42.91888" lon="1.20007">
        <ele>632.1</ele>
        <time>2022-08-01T06:13:34.000Z</time>
      </trkpt>
      <trkpt lat="42.91882" lon="1.20021">
        <ele>632</ele>
        <time>2022-08-01T06:13:38.000Z</time>
      </trkpt>
      <trkpt lat="42.91878" lon="1.20036">
        <ele>631.1</ele>
        <time>2022-08-01T06:13:42.000Z</time>
      </trkpt>
      <trkpt lat="42.91874" lon="1.20049">
        <ele>630.8</ele>
        <time>2022-08-01T06:13:46.000Z</time>
      </trkpt>
      <trkpt lat="42.9187" lon="1.20063">
        <ele>630.8</ele>
        <time>2022-08-01T06:13:50.000Z</time>
      </trkpt>
      <trkpt lat="42.91865" lon="1.20074">
        <ele>630.2</ele>
        <time>2022-08-01T06:13:53.000Z</time>
      </trkpt>
      <trkpt lat="42.91862" lon="1.20088">
        <ele>629.9</ele>
        <time>2022-08-01T06:13:57.000Z</time>
      </trkpt>
      <trkpt lat="42.91857" lon="1.20099">
        <ele>630.3</ele>
        <time>2022-08-01T06:14:01.000Z</time>
      </trkpt>
      <trkpt lat="42.91855" lon="1.20113">
        <ele>629.5</ele>
        <time>2022-08-01T06:14:04.000Z</time>
      </trkpt>
      <trkpt lat="42.9186" lon="1.20126">
        <ele>629.1</ele>
        <time>2022-08-01T06:14:07.000Z</time>
      </trkpt>
      <trkpt lat="42.91868" lon="1.20135">
        <ele>629.2</ele>
        <time>2022-08-01T06:14:10.000Z</time>
      </trkpt>
      <trkpt lat="42.91876" lon="1.20146">
        <ele>628.6</ele>
        <time>2022-08-01T06:14:13.000Z</time>
      </trkpt>
      <trkpt lat="42.91883" lon="1.20157">
        <ele>628.2</ele>
        <time>2022-08-01T06:14:16.000Z</time>
      </trkpt>
      <trkpt lat="42.91888" lon="1.20169">
        <ele>627.1</ele>
        <time>2022-08-01T06:14:19.000Z</time>
      </trkpt>
      <trkpt lat="42.9189" lon="1.20182">
        <ele>627</ele>
        <time>2022-08-01T06:14:22.000Z</time>
      </trkpt>
      <trkpt lat="42.91891" lon="1.20199">
        <ele>627.6</ele>
        <time>2022-08-01T06:14:26.000Z</time>
      </trkpt>
      <trkpt lat="42.91891" lon="1.20213">
        <ele>627.2</ele>
        <time>2022-08-01T06:14:29.000Z</time>
      </trkpt>
      <trkpt lat="42.91892" lon="1.20226">
        <ele>627.5</ele>
        <time>2022-08-01T06:14:32.000Z</time>
      </trkpt>
      <trkpt lat="42.91892" lon="1.20242">
        <ele>627.6</ele>
        <time>2022-08-01T06:14:36.000Z</time>
      </trkpt>
      <trkpt lat="42.91892" lon="1.20256">
        <ele>628.3</ele>
        <time>2022-08-01T06:14:40.000Z</time>
      </trkpt>
      <trkpt lat="42.91891" lon="1.2027">
        <ele>628.6</ele>
        <time>2022-08-01T06:14:44.000Z</time>
      </trkpt>
      <trkpt lat="42.91895" lon="1.20284">
        <ele>628.6</ele>
        <time>2022-08-01T06:14:48.000Z</time>
      </trkpt>
      <trkpt lat="42.919" lon="1.20297">
        <ele>627.6</ele>
        <time>2022-08-01T06:14:51.000Z</time>
      </trkpt>
      <trkpt lat="42.91904" lon="1.20308">
        <ele>627.7</ele>
        <time>2022-08-01T06:14:53.000Z</time>
      </trkpt>
      <trkpt lat="42.91909" lon="1.20321">
        <ele>626.5</ele>
        <time>2022-08-01T06:14:56.000Z</time>
      </trkpt>
      <trkpt lat="42.91913" lon="1.20334">
        <ele>627</ele>
        <time>2022-08-01T06:15:00.000Z</time>
      </trkpt>
      <trkpt lat="42.91914" lon="1.20348">
        <ele>627.5</ele>
        <time>2022-08-01T06:15:04.000Z</time>
      </trkpt>
      <trkpt lat="42.91916" lon="1.20361">
        <ele>628.1</ele>
        <time>2022-08-01T06:15:08.000Z</time>
      </trkpt>
      <trkpt lat="42.91917" lon="1.20374">
        <ele>628.9</ele>
        <time>2022-08-01T06:15:13.000Z</time>
      </trkpt>
      <trkpt lat="42.91914" lon="1.20388">
        <ele>629.4</ele>
        <time>2022-08-01T06:15:18.000Z</time>
      </trkpt>
      <trkpt lat="42.91912" lon="1.20401">
        <ele>628.8</ele>
        <time>2022-08-01T06:15:21.000Z</time>
      </trkpt>
      <trkpt lat="42.91911" lon="1.20415">
        <ele>628.2</ele>
        <time>2022-08-01T06:15:25.000Z</time>
      </trkpt>
      <trkpt lat="42.91907" lon="1.20429">
        <ele>628.4</ele>
        <time>2022-08-01T06:15:29.000Z</time>
      </trkpt>
      <trkpt lat="42.91904" lon="1.20441">
        <ele>628.7</ele>
        <time>2022-08-01T06:15:33.000Z</time>
      </trkpt>
      <trkpt lat="42.91898" lon="1.20451">
        <ele>628.6</ele>
        <time>2022-08-01T06:15:36.000Z</time>
      </trkpt>
      <trkpt lat="42.91892" lon="1.20464">
        <ele>628.9</ele>
        <time>2022-08-01T06:15:40.000Z</time>
      </trkpt>
      <trkpt lat="42.91886" lon="1.20479">
        <ele>628.9</ele>
        <time>2022-08-01T06:15:44.000Z</time>
      </trkpt>
      <trkpt lat="42.91882" lon="1.20496">
        <ele>628.2</ele>
        <time>2022-08-01T06:15:47.000Z</time>
      </trkpt>
      <trkpt lat="42.91879" lon="1.20508">
        <ele>627.8</ele>
        <time>2022-08-01T06:15:49.000Z</time>
      </trkpt>
      <trkpt lat="42.91876" lon="1.20523">
        <ele>627.3</ele>
        <time>2022-08-01T06:15:52.000Z</time>
      </trkpt>
      <trkpt lat="42.9187" lon="1.20535">
        <ele>626.8</ele>
        <time>2022-08-01T06:15:55.000Z</time>
      </trkpt>
      <trkpt lat="42.91866" lon="1.20546">
        <ele>626</ele>
        <time>2022-08-01T06:15:57.000Z</time>
      </trkpt>
      <trkpt lat="42.91865" lon="1.2056">
        <ele>624.3</ele>
        <time>2022-08-01T06:16:00.000Z</time>
      </trkpt>
      <trkpt lat="42.91871" lon="1.20573">
        <ele>624.1</ele>
        <time>2022-08-01T06:16:03.000Z</time>
      </trkpt>
      <trkpt lat="42.91877" lon="1.20584">
        <ele>623.8</ele>
        <time>2022-08-01T06:16:06.000Z</time>
      </trkpt>
      <trkpt lat="42.91884" lon="1.20592">
        <ele>623.2</ele>
        <time>2022-08-01T06:16:10.000Z</time>
      </trkpt>
      <trkpt lat="42.91889" lon="1.20602">
        <ele>623.1</ele>
        <time>2022-08-01T06:16:16.000Z</time>
      </trkpt>
      <trkpt lat="42.91881" lon="1.20612">
        <ele>625.5</ele>
        <time>2022-08-01T06:16:21.000Z</time>
      </trkpt>
      <trkpt lat="42.91871" lon="1.20614">
        <ele>626.3</ele>
        <time>2022-08-01T06:16:25.000Z</time>
      </trkpt>
      <trkpt lat="42.91861" lon="1.20616">
        <ele>626.9</ele>
        <time>2022-08-01T06:16:29.000Z</time>
      </trkpt>
      <trkpt lat="42.91851" lon="1.20614">
        <ele>627</ele>
        <time>2022-08-01T06:16:34.000Z</time>
      </trkpt>
      <trkpt lat="42.91842" lon="1.20611">
        <ele>627.5</ele>
        <time>2022-08-01T06:16:41.000Z</time>
      </trkpt>
      <trkpt lat="42.91832" lon="1.20608">
        <ele>627.4</ele>
        <time>2022-08-01T06:16:51.000Z</time>
      </trkpt>
      <trkpt lat="42.91822" lon="1.20609">
        <ele>628</ele>
        <time>2022-08-01T06:16:55.000Z</time>
      </trkpt>
      <trkpt lat="42.91812" lon="1.20613">
        <ele>628.5</ele>
        <time>2022-08-01T06:16:59.000Z</time>
      </trkpt>
      <trkpt lat="42.91804" lon="1.20618">
        <ele>630.5</ele>
        <time>2022-08-01T06:17:03.000Z</time>
      </trkpt>
      <trkpt lat="42.91795" lon="1.20623">
        <ele>632.2</ele>
        <time>2022-08-01T06:17:07.000Z</time>
      </trkpt>
      <trkpt lat="42.91787" lon="1.20629">
        <ele>634.7</ele>
        <time>2022-08-01T06:17:11.000Z</time>
      </trkpt>
      <trkpt lat="42.91779" lon="1.20636">
        <ele>636</ele>
        <time>2022-08-01T06:17:15.000Z</time>
      </trkpt>
      <trkpt lat="42.91772" lon="1.20646">
        <ele>636.7</ele>
        <time>2022-08-01T06:17:19.000Z</time>
      </trkpt>
      <trkpt lat="42.91765" lon="1.20656">
        <ele>637.7</ele>
        <time>2022-08-01T06:17:23.000Z</time>
      </trkpt>
      <trkpt lat="42.9176" lon="1.20668">
        <ele>638.3</ele>
        <time>2022-08-01T06:17:27.000Z</time>
      </trkpt>
      <trkpt lat="42.91756" lon="1.2068">
        <ele>638.8</ele>
        <time>2022-08-01T06:17:31.000Z</time>
      </trkpt>
      <trkpt lat="42.91755" lon="1.20693">
        <ele>639.6</ele>
        <time>2022-08-01T06:17:35.000Z</time>
      </trkpt>
      <trkpt lat="42.91752" lon="1.20707">
        <ele>641.1</ele>
        <time>2022-08-01T06:17:40.000Z</time>
      </trkpt>
      <trkpt lat="42.91749" lon="1.20721">
        <ele>642.4</ele>
        <time>2022-08-01T06:17:45.000Z</time>
      </trkpt>
      <trkpt lat="42.91744" lon="1.20734">
        <ele>644.1</ele>
        <time>2022-08-01T06:17:52.000Z</time>
      </trkpt>
      <trkpt lat="42.91738" lon="1.20745">
        <ele>645.4</ele>
        <time>2022-08-01T06:17:57.000Z</time>
      </trkpt>
      <trkpt lat="42.91732" lon="1.20756">
        <ele>645.5</ele>
        <time>2022-08-01T06:18:01.000Z</time>
      </trkpt>
      <trkpt lat="42.91725" lon="1.20767">
        <ele>646.9</ele>
        <time>2022-08-01T06:18:06.000Z</time>
      </trkpt>
      <trkpt lat="42.91719" lon="1.20778">
        <ele>648.3</ele>
        <time>2022-08-01T06:18:11.000Z</time>
      </trkpt>
      <trkpt lat="42.91713" lon="1.20787">
        <ele>648.4</ele>
        <time>2022-08-01T06:18:16.000Z</time>
      </trkpt>
      <trkpt lat="42.91708" lon="1.20798">
        <ele>650</ele>
        <time>2022-08-01T06:18:20.000Z</time>
      </trkpt>
      <trkpt lat="42.917" lon="1.20809">
        <ele>653.1</ele>
        <time>2022-08-01T06:18:26.000Z</time>
      </trkpt>
      <trkpt lat="42.91693" lon="1.20819">
        <ele>655.7</ele>
        <time>2022-08-01T06:18:31.000Z</time>
      </trkpt>
      <trkpt lat="42.91685" lon="1.20829">
        <ele>658.9</ele>
        <time>2022-08-01T06:18:37.000Z</time>
      </trkpt>
      <trkpt lat="42.9168" lon="1.20839">
        <ele>660.5</ele>
        <time>2022-08-01T06:18:41.000Z</time>
      </trkpt>
      <trkpt lat="42.91673" lon="1.20849">
        <ele>662.9</ele>
        <time>2022-08-01T06:18:46.000Z</time>
      </trkpt>
      <trkpt lat="42.9167" lon="1.2086">
        <ele>665.8</ele>
        <time>2022-08-01T06:18:52.000Z</time>
      </trkpt>
      <trkpt lat="42.91671" lon="1.20873">
        <ele>667.4</ele>
        <time>2022-08-01T06:18:57.000Z</time>
      </trkpt>
      <trkpt lat="42.91673" lon="1.20886">
        <ele>668.9</ele>
        <time>2022-08-01T06:19:02.000Z</time>
      </trkpt>
      <trkpt lat="42.91677" lon="1.20898">
        <ele>670.1</ele>
        <time>2022-08-01T06:19:07.000Z</time>
      </trkpt>
      <trkpt lat="42.9168" lon="1.2091">
        <ele>671.2</ele>
        <time>2022-08-01T06:19:11.000Z</time>
      </trkpt>
      <trkpt lat="42.91683" lon="1.20922">
        <ele>672.2</ele>
        <time>2022-08-01T06:19:16.000Z</time>
      </trkpt>
      <trkpt lat="42.91683" lon="1.20936">
        <ele>672.6</ele>
        <time>2022-08-01T06:19:21.000Z</time>
      </trkpt>
      <trkpt lat="42.91677" lon="1.20951">
        <ele>672.4</ele>
        <time>2022-08-01T06:19:25.000Z</time>
      </trkpt>
      <trkpt lat="42.91671" lon="1.20964">
        <ele>672.3</ele>
        <time>2022-08-01T06:19:28.000Z</time>
      </trkpt>
      <trkpt lat="42.91663" lon="1.20975">
        <ele>672</ele>
        <time>2022-08-01T06:19:32.000Z</time>
      </trkpt>
      <trkpt lat="42.91657" lon="1.20985">
        <ele>672.2</ele>
        <time>2022-08-01T06:19:36.000Z</time>
      </trkpt>
      <trkpt lat="42.91652" lon="1.20996">
        <ele>672.4</ele>
        <time>2022-08-01T06:19:41.000Z</time>
      </trkpt>
      <trkpt lat="42.91644" lon="1.21007">
        <ele>672.2</ele>
        <time>2022-08-01T06:19:46.000Z</time>
      </trkpt>
      <trkpt lat="42.91639" lon="1.21018">
        <ele>673</ele>
        <time>2022-08-01T06:19:51.000Z</time>
      </trkpt>
      <trkpt lat="42.91634" lon="1.21031">
        <ele>673.5</ele>
        <time>2022-08-01T06:19:57.000Z</time>
      </trkpt>
      <trkpt lat="42.9163" lon="1.21044">
        <ele>673.6</ele>
        <time>2022-08-01T06:20:03.000Z</time>
      </trkpt>
      <trkpt lat="42.91626" lon="1.21057">
        <ele>674.4</ele>
        <time>2022-08-01T06:20:08.000Z</time>
      </trkpt>
      <trkpt lat="42.91624" lon="1.21065">
        <ele>675.2</ele>
        <time>2022-08-01T06:20:14.000Z</time>
      </trkpt>
      <trkpt lat="42.91623" lon="1.21066">
        <ele>675.2</ele>
        <time>2022-08-01T06:20:15.000Z</time>
      </trkpt>
      <trkpt lat="42.91619" lon="1.21079">
        <ele>675.8</ele>
        <time>2022-08-01T06:20:20.000Z</time>
      </trkpt>
      <trkpt lat="42.91615" lon="1.2109">
        <ele>676.2</ele>
        <time>2022-08-01T06:20:24.000Z</time>
      </trkpt>
      <trkpt lat="42.91611" lon="1.21103">
        <ele>677</ele>
        <time>2022-08-01T06:20:29.000Z</time>
      </trkpt>
      <trkpt lat="42.91607" lon="1.21116">
        <ele>677.8</ele>
        <time>2022-08-01T06:20:35.000Z</time>
      </trkpt>
      <trkpt lat="42.91604" lon="1.21129">
        <ele>678.7</ele>
        <time>2022-08-01T06:20:40.000Z</time>
      </trkpt>
      <trkpt lat="42.91602" lon="1.21142">
        <ele>679.5</ele>
        <time>2022-08-01T06:20:45.000Z</time>
      </trkpt>
      <trkpt lat="42.91601" lon="1.21156">
        <ele>680.1</ele>
        <time>2022-08-01T06:20:50.000Z</time>
      </trkpt>
      <trkpt lat="42.91602" lon="1.21169">
        <ele>680.8</ele>
        <time>2022-08-01T06:20:55.000Z</time>
      </trkpt>
      <trkpt lat="42.91604" lon="1.21184">
        <ele>680.9</ele>
        <time>2022-08-01T06:21:00.000Z</time>
      </trkpt>
      <trkpt lat="42.91605" lon="1.21196">
        <ele>682</ele>
        <time>2022-08-01T06:21:04.000Z</time>
      </trkpt>
      <trkpt lat="42.91606" lon="1.21209">
        <ele>682.3</ele>
        <time>2022-08-01T06:21:09.000Z</time>
      </trkpt>
      <trkpt lat="42.9161" lon="1.21223">
        <ele>682.1</ele>
        <time>2022-08-01T06:21:14.000Z</time>
      </trkpt>
      <trkpt lat="42.91613" lon="1.21235">
        <ele>681.4</ele>
        <time>2022-08-01T06:21:18.000Z</time>
      </trkpt>
      <trkpt lat="42.91614" lon="1.21248">
        <ele>681.8</ele>
        <time>2022-08-01T06:21:25.000Z</time>
      </trkpt>
      <trkpt lat="42.91609" lon="1.2126">
        <ele>681.9</ele>
        <time>2022-08-01T06:21:30.000Z</time>
      </trkpt>
      <trkpt lat="42.91598" lon="1.21267">
        <ele>682.9</ele>
        <time>2022-08-01T06:21:34.000Z</time>
      </trkpt>
      <trkpt lat="42.91588" lon="1.21269">
        <ele>682.4</ele>
        <time>2022-08-01T06:21:37.000Z</time>
      </trkpt>
      <trkpt lat="42.91579" lon="1.21274">
        <ele>683.1</ele>
        <time>2022-08-01T06:21:41.000Z</time>
      </trkpt>
      <trkpt lat="42.9157" lon="1.21281">
        <ele>684.6</ele>
        <time>2022-08-01T06:21:46.000Z</time>
      </trkpt>
      <trkpt lat="42.9156" lon="1.21287">
        <ele>685.2</ele>
        <time>2022-08-01T06:21:51.000Z</time>
      </trkpt>
      <trkpt lat="42.91552" lon="1.21294">
        <ele>686.2</ele>
        <time>2022-08-01T06:21:55.000Z</time>
      </trkpt>
      <trkpt lat="42.91543" lon="1.213">
        <ele>687</ele>
        <time>2022-08-01T06:22:00.000Z</time>
      </trkpt>
      <trkpt lat="42.91535" lon="1.21307">
        <ele>688.5</ele>
        <time>2022-08-01T06:22:05.000Z</time>
      </trkpt>
      <trkpt lat="42.91527" lon="1.21314">
        <ele>688.7</ele>
        <time>2022-08-01T06:22:09.000Z</time>
      </trkpt>
      <trkpt lat="42.91518" lon="1.21321">
        <ele>688.8</ele>
        <time>2022-08-01T06:22:13.000Z</time>
      </trkpt>
      <trkpt lat="42.9151" lon="1.21329">
        <ele>689.4</ele>
        <time>2022-08-01T06:22:17.000Z</time>
      </trkpt>
      <trkpt lat="42.91501" lon="1.21337">
        <ele>690.7</ele>
        <time>2022-08-01T06:22:22.000Z</time>
      </trkpt>
      <trkpt lat="42.91496" lon="1.21348">
        <ele>691.9</ele>
        <time>2022-08-01T06:22:27.000Z</time>
      </trkpt>
      <trkpt lat="42.91491" lon="1.21361">
        <ele>692.7</ele>
        <time>2022-08-01T06:22:32.000Z</time>
      </trkpt>
      <trkpt lat="42.91486" lon="1.21372">
        <ele>692.8</ele>
        <time>2022-08-01T06:22:36.000Z</time>
      </trkpt>
      <trkpt lat="42.9148" lon="1.21384">
        <ele>693.4</ele>
        <time>2022-08-01T06:22:40.000Z</time>
      </trkpt>
      <trkpt lat="42.91474" lon="1.21395">
        <ele>693.3</ele>
        <time>2022-08-01T06:22:44.000Z</time>
      </trkpt>
      <trkpt lat="42.91469" lon="1.21408">
        <ele>693.8</ele>
        <time>2022-08-01T06:22:48.000Z</time>
      </trkpt>
      <trkpt lat="42.91465" lon="1.21422">
        <ele>694.5</ele>
        <time>2022-08-01T06:22:53.000Z</time>
      </trkpt>
      <trkpt lat="42.91461" lon="1.21434">
        <ele>694.6</ele>
        <time>2022-08-01T06:22:57.000Z</time>
      </trkpt>
      <trkpt lat="42.91456" lon="1.21446">
        <ele>695</ele>
        <time>2022-08-01T06:23:01.000Z</time>
      </trkpt>
      <trkpt lat="42.91451" lon="1.21459">
        <ele>695.3</ele>
        <time>2022-08-01T06:23:05.000Z</time>
      </trkpt>
      <trkpt lat="42.91449" lon="1.21473">
        <ele>695.5</ele>
        <time>2022-08-01T06:23:10.000Z</time>
      </trkpt>
      <trkpt lat="42.91449" lon="1.21489">
        <ele>695.2</ele>
        <time>2022-08-01T06:23:14.000Z</time>
      </trkpt>
      <trkpt lat="42.9145" lon="1.21504">
        <ele>695.1</ele>
        <time>2022-08-01T06:23:19.000Z</time>
      </trkpt>
      <trkpt lat="42.91454" lon="1.21517">
        <ele>695</ele>
        <time>2022-08-01T06:23:23.000Z</time>
      </trkpt>
      <trkpt lat="42.91461" lon="1.2153">
        <ele>695</ele>
        <time>2022-08-01T06:23:27.000Z</time>
      </trkpt>
      <trkpt lat="42.91465" lon="1.21543">
        <ele>695.1</ele>
        <time>2022-08-01T06:23:31.000Z</time>
      </trkpt>
      <trkpt lat="42.91467" lon="1.21555">
        <ele>694.8</ele>
        <time>2022-08-01T06:23:35.000Z</time>
      </trkpt>
      <trkpt lat="42.91467" lon="1.21569">
        <ele>694.7</ele>
        <time>2022-08-01T06:23:39.000Z</time>
      </trkpt>
      <trkpt lat="42.91464" lon="1.21583">
        <ele>695</ele>
        <time>2022-08-01T06:23:43.000Z</time>
      </trkpt>
      <trkpt lat="42.9146" lon="1.21596">
        <ele>695.1</ele>
        <time>2022-08-01T06:23:47.000Z</time>
      </trkpt>
      <trkpt lat="42.91458" lon="1.21609">
        <ele>695.2</ele>
        <time>2022-08-01T06:23:51.000Z</time>
      </trkpt>
      <trkpt lat="42.91458" lon="1.21621">
        <ele>695.5</ele>
        <time>2022-08-01T06:23:55.000Z</time>
      </trkpt>
      <trkpt lat="42.91455" lon="1.21634">
        <ele>696</ele>
        <time>2022-08-01T06:23:59.000Z</time>
      </trkpt>
      <trkpt lat="42.91451" lon="1.21645">
        <ele>696.3</ele>
        <time>2022-08-01T06:24:03.000Z</time>
      </trkpt>
      <trkpt lat="42.91448" lon="1.2166">
        <ele>697.1</ele>
        <time>2022-08-01T06:24:08.000Z</time>
      </trkpt>
      <trkpt lat="42.91445" lon="1.21675">
        <ele>697.2</ele>
        <time>2022-08-01T06:24:12.000Z</time>
      </trkpt>
      <trkpt lat="42.91439" lon="1.21687">
        <ele>697.4</ele>
        <time>2022-08-01T06:24:16.000Z</time>
      </trkpt>
      <trkpt lat="42.91434" lon="1.21701">
        <ele>697.4</ele>
        <time>2022-08-01T06:24:20.000Z</time>
      </trkpt>
      <trkpt lat="42.91429" lon="1.21715">
        <ele>697.7</ele>
        <time>2022-08-01T06:24:24.000Z</time>
      </trkpt>
      <trkpt lat="42.91424" lon="1.21726">
        <ele>697.8</ele>
        <time>2022-08-01T06:24:27.000Z</time>
      </trkpt>
      <trkpt lat="42.91414" lon="1.21737">
        <ele>697.5</ele>
        <time>2022-08-01T06:24:31.000Z</time>
      </trkpt>
      <trkpt lat="42.91406" lon="1.21745">
        <ele>697.4</ele>
        <time>2022-08-01T06:24:34.000Z</time>
      </trkpt>
      <trkpt lat="42.91398" lon="1.2175">
        <ele>697.5</ele>
        <time>2022-08-01T06:24:37.000Z</time>
      </trkpt>
      <trkpt lat="42.91389" lon="1.21759">
        <ele>698.1</ele>
        <time>2022-08-01T06:24:41.000Z</time>
      </trkpt>
      <trkpt lat="42.91383" lon="1.2177">
        <ele>698.5</ele>
        <time>2022-08-01T06:24:45.000Z</time>
      </trkpt>
      <trkpt lat="42.9138" lon="1.21782">
        <ele>699.1</ele>
        <time>2022-08-01T06:24:49.000Z</time>
      </trkpt>
      <trkpt lat="42.91375" lon="1.21794">
        <ele>699.3</ele>
        <time>2022-08-01T06:24:53.000Z</time>
      </trkpt>
      <trkpt lat="42.91371" lon="1.21807">
        <ele>699.6</ele>
        <time>2022-08-01T06:24:57.000Z</time>
      </trkpt>
      <trkpt lat="42.91367" lon="1.21819">
        <ele>699.6</ele>
        <time>2022-08-01T06:25:01.000Z</time>
      </trkpt>
      <trkpt lat="42.9136" lon="1.21833">
        <ele>699.4</ele>
        <time>2022-08-01T06:25:05.000Z</time>
      </trkpt>
      <trkpt lat="42.91353" lon="1.21842">
        <ele>698.6</ele>
        <time>2022-08-01T06:25:08.000Z</time>
      </trkpt>
      <trkpt lat="42.91342" lon="1.2185">
        <ele>698.9</ele>
        <time>2022-08-01T06:25:12.000Z</time>
      </trkpt>
      <trkpt lat="42.91331" lon="1.21854">
        <ele>697.6</ele>
        <time>2022-08-01T06:25:15.000Z</time>
      </trkpt>
      <trkpt lat="42.91319" lon="1.21859">
        <ele>697.3</ele>
        <time>2022-08-01T06:25:18.000Z</time>
      </trkpt>
      <trkpt lat="42.91309" lon="1.21866">
        <ele>696.9</ele>
        <time>2022-08-01T06:25:21.000Z</time>
      </trkpt>
      <trkpt lat="42.91302" lon="1.21875">
        <ele>696.8</ele>
        <time>2022-08-01T06:25:25.000Z</time>
      </trkpt>
      <trkpt lat="42.91293" lon="1.21883">
        <ele>697</ele>
        <time>2022-08-01T06:25:29.000Z</time>
      </trkpt>
      <trkpt lat="42.91285" lon="1.21892">
        <ele>696.6</ele>
        <time>2022-08-01T06:25:33.000Z</time>
      </trkpt>
      <trkpt lat="42.91277" lon="1.21901">
        <ele>696.8</ele>
        <time>2022-08-01T06:25:37.000Z</time>
      </trkpt>
      <trkpt lat="42.91269" lon="1.21909">
        <ele>695.9</ele>
        <time>2022-08-01T06:25:40.000Z</time>
      </trkpt>
      <trkpt lat="42.91262" lon="1.21918">
        <ele>696.2</ele>
        <time>2022-08-01T06:25:44.000Z</time>
      </trkpt>
      <trkpt lat="42.91254" lon="1.21928">
        <ele>695.9</ele>
        <time>2022-08-01T06:25:48.000Z</time>
      </trkpt>
      <trkpt lat="42.91247" lon="1.21938">
        <ele>696.1</ele>
        <time>2022-08-01T06:25:53.000Z</time>
      </trkpt>
      <trkpt lat="42.9124" lon="1.2195">
        <ele>696.2</ele>
        <time>2022-08-01T06:25:57.000Z</time>
      </trkpt>
      <trkpt lat="42.91234" lon="1.2196">
        <ele>696.2</ele>
        <time>2022-08-01T06:26:00.000Z</time>
      </trkpt>
      <trkpt lat="42.91225" lon="1.21972">
        <ele>696</ele>
        <time>2022-08-01T06:26:04.000Z</time>
      </trkpt>
      <trkpt lat="42.91217" lon="1.21981">
        <ele>696.2</ele>
        <time>2022-08-01T06:26:08.000Z</time>
      </trkpt>
      <trkpt lat="42.91209" lon="1.21992">
        <ele>696.5</ele>
        <time>2022-08-01T06:26:12.000Z</time>
      </trkpt>
      <trkpt lat="42.91201" lon="1.22001">
        <ele>696</ele>
        <time>2022-08-01T06:26:16.000Z</time>
      </trkpt>
      <trkpt lat="42.91194" lon="1.22011">
        <ele>695.5</ele>
        <time>2022-08-01T06:26:20.000Z</time>
      </trkpt>
      <trkpt lat="42.91185" lon="1.22018">
        <ele>694.8</ele>
        <time>2022-08-01T06:26:23.000Z</time>
      </trkpt>
      <trkpt lat="42.91178" lon="1.22029">
        <ele>694.7</ele>
        <time>2022-08-01T06:26:26.000Z</time>
      </trkpt>
      <trkpt lat="42.91169" lon="1.22039">
        <ele>694.9</ele>
        <time>2022-08-01T06:26:29.000Z</time>
      </trkpt>
      <trkpt lat="42.91162" lon="1.22048">
        <ele>694.4</ele>
        <time>2022-08-01T06:26:32.000Z</time>
      </trkpt>
      <trkpt lat="42.91155" lon="1.22057">
        <ele>694.1</ele>
        <time>2022-08-01T06:26:35.000Z</time>
      </trkpt>
      <trkpt lat="42.91146" lon="1.22068">
        <ele>693.8</ele>
        <time>2022-08-01T06:26:38.000Z</time>
      </trkpt>
      <trkpt lat="42.91138" lon="1.22079">
        <ele>693.9</ele>
        <time>2022-08-01T06:26:41.000Z</time>
      </trkpt>
      <trkpt lat="42.91134" lon="1.22091">
        <ele>694</ele>
        <time>2022-08-01T06:26:44.000Z</time>
      </trkpt>
      <trkpt lat="42.9113" lon="1.22104">
        <ele>694.4</ele>
        <time>2022-08-01T06:26:47.000Z</time>
      </trkpt>
      <trkpt lat="42.91126" lon="1.22116">
        <ele>695.2</ele>
        <time>2022-08-01T06:26:51.000Z</time>
      </trkpt>
      <trkpt lat="42.91121" lon="1.22127">
        <ele>695.1</ele>
        <time>2022-08-01T06:26:55.000Z</time>
      </trkpt>
      <trkpt lat="42.91117" lon="1.22138">
        <ele>696.2</ele>
        <time>2022-08-01T06:26:59.000Z</time>
      </trkpt>
      <trkpt lat="42.91113" lon="1.22151">
        <ele>696.3</ele>
        <time>2022-08-01T06:27:03.000Z</time>
      </trkpt>
      <trkpt lat="42.91107" lon="1.22163">
        <ele>696.5</ele>
        <time>2022-08-01T06:27:07.000Z</time>
      </trkpt>
      <trkpt lat="42.91101" lon="1.22175">
        <ele>697.4</ele>
        <time>2022-08-01T06:27:12.000Z</time>
      </trkpt>
      <trkpt lat="42.91094" lon="1.22186">
        <ele>697.1</ele>
        <time>2022-08-01T06:27:16.000Z</time>
      </trkpt>
      <trkpt lat="42.91086" lon="1.22197">
        <ele>696.7</ele>
        <time>2022-08-01T06:27:20.000Z</time>
      </trkpt>
      <trkpt lat="42.9108" lon="1.22207">
        <ele>696.5</ele>
        <time>2022-08-01T06:27:23.000Z</time>
      </trkpt>
      <trkpt lat="42.91075" lon="1.22218">
        <ele>696.2</ele>
        <time>2022-08-01T06:27:27.000Z</time>
      </trkpt>
      <trkpt lat="42.91071" lon="1.2223">
        <ele>695</ele>
        <time>2022-08-01T06:27:31.000Z</time>
      </trkpt>
      <trkpt lat="42.91065" lon="1.22244">
        <ele>693.9</ele>
        <time>2022-08-01T06:27:35.000Z</time>
      </trkpt>
      <trkpt lat="42.9106" lon="1.22257">
        <ele>692.5</ele>
        <time>2022-08-01T06:27:39.000Z</time>
      </trkpt>
      <trkpt lat="42.91055" lon="1.22271">
        <ele>690.3</ele>
        <time>2022-08-01T06:27:43.000Z</time>
      </trkpt>
      <trkpt lat="42.91054" lon="1.22287">
        <ele>688.8</ele>
        <time>2022-08-01T06:27:46.000Z</time>
      </trkpt>
      <trkpt lat="42.9106" lon="1.22301">
        <ele>686.6</ele>
        <time>2022-08-01T06:27:48.000Z</time>
      </trkpt>
      <trkpt lat="42.91069" lon="1.22315">
        <ele>684.9</ele>
        <time>2022-08-01T06:27:50.000Z</time>
      </trkpt>
      <trkpt lat="42.91078" lon="1.22326">
        <ele>682.6</ele>
        <time>2022-08-01T06:27:52.000Z</time>
      </trkpt>
      <trkpt lat="42.91088" lon="1.22336">
        <ele>680</ele>
        <time>2022-08-01T06:27:54.000Z</time>
      </trkpt>
      <trkpt lat="42.91097" lon="1.22343">
        <ele>677.9</ele>
        <time>2022-08-01T06:27:56.000Z</time>
      </trkpt>
      <trkpt lat="42.91106" lon="1.22348">
        <ele>675.9</ele>
        <time>2022-08-01T06:27:58.000Z</time>
      </trkpt>
      <trkpt lat="42.91116" lon="1.22354">
        <ele>673.7</ele>
        <time>2022-08-01T06:28:01.000Z</time>
      </trkpt>
      <trkpt lat="42.91124" lon="1.2236">
        <ele>671</ele>
        <time>2022-08-01T06:28:03.000Z</time>
      </trkpt>
      <trkpt lat="42.91137" lon="1.22356">
        <ele>671.6</ele>
        <time>2022-08-01T06:28:06.000Z</time>
      </trkpt>
      <trkpt lat="42.91145" lon="1.22348">
        <ele>673.2</ele>
        <time>2022-08-01T06:28:09.000Z</time>
      </trkpt>
      <trkpt lat="42.91154" lon="1.22339">
        <ele>675.5</ele>
        <time>2022-08-01T06:28:13.000Z</time>
      </trkpt>
      <trkpt lat="42.9116" lon="1.22329">
        <ele>678.1</ele>
        <time>2022-08-01T06:28:19.000Z</time>
      </trkpt>
      <trkpt lat="42.91169" lon="1.22319">
        <ele>679.7</ele>
        <time>2022-08-01T06:28:23.000Z</time>
      </trkpt>
      <trkpt lat="42.91177" lon="1.2231">
        <ele>681.8</ele>
        <time>2022-08-01T06:28:28.000Z</time>
      </trkpt>
      <trkpt lat="42.91185" lon="1.22302">
        <ele>684.1</ele>
        <time>2022-08-01T06:28:34.000Z</time>
      </trkpt>
      <trkpt lat="42.91192" lon="1.22293">
        <ele>686.5</ele>
        <time>2022-08-01T06:28:40.000Z</time>
      </trkpt>
      <trkpt lat="42.912" lon="1.22284">
        <ele>689.5</ele>
        <time>2022-08-01T06:28:47.000Z</time>
      </trkpt>
      <trkpt lat="42.91209" lon="1.22276">
        <ele>691.7</ele>
        <time>2022-08-01T06:28:53.000Z</time>
      </trkpt>
      <trkpt lat="42.91217" lon="1.22268">
        <ele>693.8</ele>
        <time>2022-08-01T06:28:58.000Z</time>
      </trkpt>
      <trkpt lat="42.91225" lon="1.22261">
        <ele>695.6</ele>
        <time>2022-08-01T06:29:03.000Z</time>
      </trkpt>
      <trkpt lat="42.91233" lon="1.22251">
        <ele>697.6</ele>
        <time>2022-08-01T06:29:10.000Z</time>
      </trkpt>
      <trkpt lat="42.91242" lon="1.22245">
        <ele>699.1</ele>
        <time>2022-08-01T06:29:18.000Z</time>
      </trkpt>
      <trkpt lat="42.91251" lon="1.2224">
        <ele>700</ele>
        <time>2022-08-01T06:29:23.000Z</time>
      </trkpt>
      <trkpt lat="42.91261" lon="1.22234">
        <ele>701.1</ele>
        <time>2022-08-01T06:29:28.000Z</time>
      </trkpt>
      <trkpt lat="42.9127" lon="1.2223">
        <ele>702.4</ele>
        <time>2022-08-01T06:29:33.000Z</time>
      </trkpt>
      <trkpt lat="42.9128" lon="1.22226">
        <ele>703.7</ele>
        <time>2022-08-01T06:29:38.000Z</time>
      </trkpt>
      <trkpt lat="42.9129" lon="1.22223">
        <ele>704.5</ele>
        <time>2022-08-01T06:29:44.000Z</time>
      </trkpt>
      <trkpt lat="42.91299" lon="1.2222">
        <ele>705.7</ele>
        <time>2022-08-01T06:29:50.000Z</time>
      </trkpt>
      <trkpt lat="42.91309" lon="1.22219">
        <ele>706.8</ele>
        <time>2022-08-01T06:29:56.000Z</time>
      </trkpt>
      <trkpt lat="42.91319" lon="1.22219">
        <ele>707.6</ele>
        <time>2022-08-01T06:30:02.000Z</time>
      </trkpt>
      <trkpt lat="42.91329" lon="1.22222">
        <ele>708.4</ele>
        <time>2022-08-01T06:30:09.000Z</time>
      </trkpt>
      <trkpt lat="42.91337" lon="1.22228">
        <ele>710</ele>
        <time>2022-08-01T06:30:15.000Z</time>
      </trkpt>
      <trkpt lat="42.91345" lon="1.22237">
        <ele>710.8</ele>
        <time>2022-08-01T06:30:21.000Z</time>
      </trkpt>
      <trkpt lat="42.91352" lon="1.22247">
        <ele>712</ele>
        <time>2022-08-01T06:30:27.000Z</time>
      </trkpt>
      <trkpt lat="42.91358" lon="1.22257">
        <ele>713.1</ele>
        <time>2022-08-01T06:30:33.000Z</time>
      </trkpt>
      <trkpt lat="42.91364" lon="1.22269">
        <ele>714.4</ele>
        <time>2022-08-01T06:30:39.000Z</time>
      </trkpt>
      <trkpt lat="42.9137" lon="1.2228">
        <ele>715.3</ele>
        <time>2022-08-01T06:30:45.000Z</time>
      </trkpt>
      <trkpt lat="42.91378" lon="1.22287">
        <ele>715.7</ele>
        <time>2022-08-01T06:30:51.000Z</time>
      </trkpt>
      <trkpt lat="42.91387" lon="1.22287">
        <ele>716.6</ele>
        <time>2022-08-01T06:30:57.000Z</time>
      </trkpt>
      <trkpt lat="42.91385" lon="1.22273">
        <ele>717.4</ele>
        <time>2022-08-01T06:31:03.000Z</time>
      </trkpt>
      <trkpt lat="42.91377" lon="1.22264">
        <ele>718.4</ele>
        <time>2022-08-01T06:31:08.000Z</time>
      </trkpt>
      <trkpt lat="42.91373" lon="1.22252">
        <ele>719.8</ele>
        <time>2022-08-01T06:31:13.000Z</time>
      </trkpt>
      <trkpt lat="42.91371" lon="1.22239">
        <ele>720.8</ele>
        <time>2022-08-01T06:31:18.000Z</time>
      </trkpt>
      <trkpt lat="42.91367" lon="1.22227">
        <ele>721.5</ele>
        <time>2022-08-01T06:31:23.000Z</time>
      </trkpt>
      <trkpt lat="42.91364" lon="1.22215">
        <ele>722</ele>
        <time>2022-08-01T06:31:28.000Z</time>
      </trkpt>
      <trkpt lat="42.9136" lon="1.22204">
        <ele>723.2</ele>
        <time>2022-08-01T06:31:33.000Z</time>
      </trkpt>
      <trkpt lat="42.91356" lon="1.22193">
        <ele>724.4</ele>
        <time>2022-08-01T06:31:38.000Z</time>
      </trkpt>
      <trkpt lat="42.91351" lon="1.2218">
        <ele>725.5</ele>
        <time>2022-08-01T06:31:44.000Z</time>
      </trkpt>
      <trkpt lat="42.91344" lon="1.22169">
        <ele>726.5</ele>
        <time>2022-08-01T06:31:50.000Z</time>
      </trkpt>
      <trkpt lat="42.91338" lon="1.22159">
        <ele>728.1</ele>
        <time>2022-08-01T06:31:56.000Z</time>
      </trkpt>
      <trkpt lat="42.91333" lon="1.22147">
        <ele>729.5</ele>
        <time>2022-08-01T06:32:02.000Z</time>
      </trkpt>
      <trkpt lat="42.91324" lon="1.22138">
        <ele>731.1</ele>
        <time>2022-08-01T06:32:08.000Z</time>
      </trkpt>
      <trkpt lat="42.91315" lon="1.22137">
        <ele>732.2</ele>
        <time>2022-08-01T06:32:13.000Z</time>
      </trkpt>
      <trkpt lat="42.91306" lon="1.22137">
        <ele>733.5</ele>
        <time>2022-08-01T06:32:18.000Z</time>
      </trkpt>
      <trkpt lat="42.91296" lon="1.22134">
        <ele>735.2</ele>
        <time>2022-08-01T06:32:25.000Z</time>
      </trkpt>
      <trkpt lat="42.91288" lon="1.22129">
        <ele>736.7</ele>
        <time>2022-08-01T06:32:31.000Z</time>
      </trkpt>
      <trkpt lat="42.9128" lon="1.22121">
        <ele>737.7</ele>
        <time>2022-08-01T06:32:37.000Z</time>
      </trkpt>
      <trkpt lat="42.91275" lon="1.22111">
        <ele>739</ele>
        <time>2022-08-01T06:32:43.000Z</time>
      </trkpt>
      <trkpt lat="42.9128" lon="1.221">
        <ele>740.3</ele>
        <time>2022-08-01T06:32:50.000Z</time>
      </trkpt>
      <trkpt lat="42.9129" lon="1.221">
        <ele>741</ele>
        <time>2022-08-01T06:32:56.000Z</time>
      </trkpt>
      <trkpt lat="42.91301" lon="1.22102">
        <ele>741.7</ele>
        <time>2022-08-01T06:33:01.000Z</time>
      </trkpt>
      <trkpt lat="42.91311" lon="1.22103">
        <ele>742.2</ele>
        <time>2022-08-01T06:33:06.000Z</time>
      </trkpt>
      <trkpt lat="42.91322" lon="1.22106">
        <ele>742.2</ele>
        <time>2022-08-01T06:33:11.000Z</time>
      </trkpt>
      <trkpt lat="42.91331" lon="1.22108">
        <ele>742.4</ele>
        <time>2022-08-01T06:33:15.000Z</time>
      </trkpt>
      <trkpt lat="42.91342" lon="1.2211">
        <ele>743.2</ele>
        <time>2022-08-01T06:33:20.000Z</time>
      </trkpt>
      <trkpt lat="42.91352" lon="1.22112">
        <ele>744.2</ele>
        <time>2022-08-01T06:33:25.000Z</time>
      </trkpt>
      <trkpt lat="42.91362" lon="1.22114">
        <ele>745.7</ele>
        <time>2022-08-01T06:33:30.000Z</time>
      </trkpt>
      <trkpt lat="42.91372" lon="1.22116">
        <ele>747.1</ele>
        <time>2022-08-01T06:33:36.000Z</time>
      </trkpt>
      <trkpt lat="42.91382" lon="1.22116">
        <ele>748.5</ele>
        <time>2022-08-01T06:33:42.000Z</time>
      </trkpt>
      <trkpt lat="42.91392" lon="1.22113">
        <ele>751</ele>
        <time>2022-08-01T06:33:48.000Z</time>
      </trkpt>
      <trkpt lat="42.91401" lon="1.22107">
        <ele>752.7</ele>
        <time>2022-08-01T06:33:54.000Z</time>
      </trkpt>
      <trkpt lat="42.91411" lon="1.221">
        <ele>754.4</ele>
        <time>2022-08-01T06:34:00.000Z</time>
      </trkpt>
      <trkpt lat="42.9142" lon="1.22095">
        <ele>756.6</ele>
        <time>2022-08-01T06:34:06.000Z</time>
      </trkpt>
      <trkpt lat="42.91429" lon="1.22088">
        <ele>758</ele>
        <time>2022-08-01T06:34:12.000Z</time>
      </trkpt>
      <trkpt lat="42.91432" lon="1.22075">
        <ele>759.5</ele>
        <time>2022-08-01T06:34:18.000Z</time>
      </trkpt>
      <trkpt lat="42.91434" lon="1.22061">
        <ele>759.4</ele>
        <time>2022-08-01T06:34:23.000Z</time>
      </trkpt>
      <trkpt lat="42.91436" lon="1.22048">
        <ele>759.5</ele>
        <time>2022-08-01T06:34:27.000Z</time>
      </trkpt>
      <trkpt lat="42.9144" lon="1.22035">
        <ele>759.5</ele>
        <time>2022-08-01T06:34:31.000Z</time>
      </trkpt>
      <trkpt lat="42.91443" lon="1.22022">
        <ele>759.4</ele>
        <time>2022-08-01T06:34:35.000Z</time>
      </trkpt>
      <trkpt lat="42.91448" lon="1.22009">
        <ele>759.5</ele>
        <time>2022-08-01T06:34:40.000Z</time>
      </trkpt>
      <trkpt lat="42.91453" lon="1.21998">
        <ele>760.5</ele>
        <time>2022-08-01T06:34:45.000Z</time>
      </trkpt>
      <trkpt lat="42.9146" lon="1.21988">
        <ele>760.9</ele>
        <time>2022-08-01T06:34:50.000Z</time>
      </trkpt>
      <trkpt lat="42.91465" lon="1.21977">
        <ele>761</ele>
        <time>2022-08-01T06:34:55.000Z</time>
      </trkpt>
      <trkpt lat="42.91469" lon="1.21967">
        <ele>761.1</ele>
        <time>2022-08-01T06:35:05.000Z</time>
      </trkpt>
      <trkpt lat="42.91469" lon="1.21965">
        <ele>762.1</ele>
        <time>2022-08-01T06:36:46.000Z</time>
      </trkpt>
      <trkpt lat="42.91474" lon="1.21953">
        <ele>761.9</ele>
        <time>2022-08-01T06:36:51.000Z</time>
      </trkpt>
      <trkpt lat="42.91479" lon="1.2194">
        <ele>761.5</ele>
        <time>2022-08-01T06:36:54.000Z</time>
      </trkpt>
      <trkpt lat="42.91484" lon="1.21928">
        <ele>761.7</ele>
        <time>2022-08-01T06:36:57.000Z</time>
      </trkpt>
      <trkpt lat="42.9149" lon="1.21917">
        <ele>762.4</ele>
        <time>2022-08-01T06:37:01.000Z</time>
      </trkpt>
      <trkpt lat="42.91498" lon="1.21908">
        <ele>763.3</ele>
        <time>2022-08-01T06:37:05.000Z</time>
      </trkpt>
      <trkpt lat="42.91505" lon="1.21901">
        <ele>765.1</ele>
        <time>2022-08-01T06:37:09.000Z</time>
      </trkpt>
      <trkpt lat="42.91514" lon="1.21894">
        <ele>766.6</ele>
        <time>2022-08-01T06:37:14.000Z</time>
      </trkpt>
      <trkpt lat="42.91522" lon="1.21886">
        <ele>768.4</ele>
        <time>2022-08-01T06:37:20.000Z</time>
      </trkpt>
      <trkpt lat="42.9153" lon="1.21875">
        <ele>769.1</ele>
        <time>2022-08-01T06:37:26.000Z</time>
      </trkpt>
      <trkpt lat="42.91536" lon="1.21863">
        <ele>769.6</ele>
        <time>2022-08-01T06:37:31.000Z</time>
      </trkpt>
      <trkpt lat="42.91541" lon="1.21851">
        <ele>770.8</ele>
        <time>2022-08-01T06:37:37.000Z</time>
      </trkpt>
      <trkpt lat="42.91545" lon="1.21839">
        <ele>771.5</ele>
        <time>2022-08-01T06:37:43.000Z</time>
      </trkpt>
      <trkpt lat="42.91548" lon="1.21826">
        <ele>773.2</ele>
        <time>2022-08-01T06:37:49.000Z</time>
      </trkpt>
      <trkpt lat="42.91551" lon="1.21813">
        <ele>775.9</ele>
        <time>2022-08-01T06:37:56.000Z</time>
      </trkpt>
      <trkpt lat="42.91556" lon="1.21801">
        <ele>778.6</ele>
        <time>2022-08-01T06:38:03.000Z</time>
      </trkpt>
      <trkpt lat="42.91563" lon="1.2179">
        <ele>780.2</ele>
        <time>2022-08-01T06:38:09.000Z</time>
      </trkpt>
      <trkpt lat="42.91568" lon="1.2178">
        <ele>781.4</ele>
        <time>2022-08-01T06:38:15.000Z</time>
      </trkpt>
      <trkpt lat="42.91572" lon="1.21768">
        <ele>783.3</ele>
        <time>2022-08-01T06:38:21.000Z</time>
      </trkpt>
      <trkpt lat="42.91577" lon="1.21757">
        <ele>784.8</ele>
        <time>2022-08-01T06:38:27.000Z</time>
      </trkpt>
      <trkpt lat="42.91583" lon="1.21746">
        <ele>786.5</ele>
        <time>2022-08-01T06:38:33.000Z</time>
      </trkpt>
      <trkpt lat="42.91591" lon="1.21738">
        <ele>788.3</ele>
        <time>2022-08-01T06:38:39.000Z</time>
      </trkpt>
      <trkpt lat="42.91599" lon="1.21729">
        <ele>790.4</ele>
        <time>2022-08-01T06:38:45.000Z</time>
      </trkpt>
      <trkpt lat="42.91606" lon="1.21722">
        <ele>792.2</ele>
        <time>2022-08-01T06:38:50.000Z</time>
      </trkpt>
      <trkpt lat="42.91615" lon="1.21715">
        <ele>794.2</ele>
        <time>2022-08-01T06:38:56.000Z</time>
      </trkpt>
      <trkpt lat="42.91623" lon="1.21708">
        <ele>796.8</ele>
        <time>2022-08-01T06:39:02.000Z</time>
      </trkpt>
      <trkpt lat="42.91631" lon="1.21703">
        <ele>799</ele>
        <time>2022-08-01T06:39:09.000Z</time>
      </trkpt>
      <trkpt lat="42.91641" lon="1.21698">
        <ele>801.4</ele>
        <time>2022-08-01T06:39:16.000Z</time>
      </trkpt>
      <trkpt lat="42.91649" lon="1.21692">
        <ele>804.8</ele>
        <time>2022-08-01T06:39:25.000Z</time>
      </trkpt>
      <trkpt lat="42.91657" lon="1.21685">
        <ele>808</ele>
        <time>2022-08-01T06:39:33.000Z</time>
      </trkpt>
      <trkpt lat="42.91666" lon="1.21678">
        <ele>809.4</ele>
        <time>2022-08-01T06:39:38.000Z</time>
      </trkpt>
      <trkpt lat="42.91675" lon="1.2167">
        <ele>811.2</ele>
        <time>2022-08-01T06:39:43.000Z</time>
      </trkpt>
      <trkpt lat="42.91683" lon="1.21664">
        <ele>812.6</ele>
        <time>2022-08-01T06:39:48.000Z</time>
      </trkpt>
      <trkpt lat="42.91692" lon="1.21656">
        <ele>814.1</ele>
        <time>2022-08-01T06:39:53.000Z</time>
      </trkpt>
      <trkpt lat="42.917" lon="1.2165">
        <ele>815.2</ele>
        <time>2022-08-01T06:39:58.000Z</time>
      </trkpt>
      <trkpt lat="42.91708" lon="1.21642">
        <ele>816.5</ele>
        <time>2022-08-01T06:40:03.000Z</time>
      </trkpt>
      <trkpt lat="42.91715" lon="1.21634">
        <ele>817.1</ele>
        <time>2022-08-01T06:40:09.000Z</time>
      </trkpt>
      <trkpt lat="42.91722" lon="1.21625">
        <ele>818.1</ele>
        <time>2022-08-01T06:40:14.000Z</time>
      </trkpt>
      <trkpt lat="42.9173" lon="1.21616">
        <ele>818.9</ele>
        <time>2022-08-01T06:40:20.000Z</time>
      </trkpt>
      <trkpt lat="42.91737" lon="1.21607">
        <ele>819.5</ele>
        <time>2022-08-01T06:40:25.000Z</time>
      </trkpt>
      <trkpt lat="42.91745" lon="1.21598">
        <ele>820.1</ele>
        <time>2022-08-01T06:40:30.000Z</time>
      </trkpt>
      <trkpt lat="42.91752" lon="1.2159">
        <ele>820.9</ele>
        <time>2022-08-01T06:40:34.000Z</time>
      </trkpt>
      <trkpt lat="42.9176" lon="1.21583">
        <ele>821</ele>
        <time>2022-08-01T06:40:38.000Z</time>
      </trkpt>
      <trkpt lat="42.91768" lon="1.21575">
        <ele>821.7</ele>
        <time>2022-08-01T06:40:43.000Z</time>
      </trkpt>
      <trkpt lat="42.91777" lon="1.21566">
        <ele>821.9</ele>
        <time>2022-08-01T06:40:48.000Z</time>
      </trkpt>
      <trkpt lat="42.91785" lon="1.21557">
        <ele>822.1</ele>
        <time>2022-08-01T06:40:53.000Z</time>
      </trkpt>
      <trkpt lat="42.91793" lon="1.21547">
        <ele>823.2</ele>
        <time>2022-08-01T06:40:58.000Z</time>
      </trkpt>
      <trkpt lat="42.918" lon="1.21539">
        <ele>823</ele>
        <time>2022-08-01T06:41:02.000Z</time>
      </trkpt>
      <trkpt lat="42.91807" lon="1.2153">
        <ele>822.9</ele>
        <time>2022-08-01T06:41:06.000Z</time>
      </trkpt>
      <trkpt lat="42.91814" lon="1.21521">
        <ele>824</ele>
        <time>2022-08-01T06:41:10.000Z</time>
      </trkpt>
      <trkpt lat="42.91821" lon="1.21513">
        <ele>824.2</ele>
        <time>2022-08-01T06:41:14.000Z</time>
      </trkpt>
      <trkpt lat="42.91829" lon="1.21504">
        <ele>824.7</ele>
        <time>2022-08-01T06:41:19.000Z</time>
      </trkpt>
      <trkpt lat="42.91836" lon="1.21494">
        <ele>825</ele>
        <time>2022-08-01T06:41:24.000Z</time>
      </trkpt>
      <trkpt lat="42.91842" lon="1.21482">
        <ele>825.8</ele>
        <time>2022-08-01T06:41:29.000Z</time>
      </trkpt>
      <trkpt lat="42.91849" lon="1.21471">
        <ele>826.1</ele>
        <time>2022-08-01T06:41:34.000Z</time>
      </trkpt>
      <trkpt lat="42.91859" lon="1.21465">
        <ele>826.9</ele>
        <time>2022-08-01T06:41:39.000Z</time>
      </trkpt>
      <trkpt lat="42.91867" lon="1.21457">
        <ele>828.7</ele>
        <time>2022-08-01T06:41:45.000Z</time>
      </trkpt>
      <trkpt lat="42.91874" lon="1.21448">
        <ele>830.9</ele>
        <time>2022-08-01T06:41:51.000Z</time>
      </trkpt>
      <trkpt lat="42.91883" lon="1.21442">
        <ele>832.4</ele>
        <time>2022-08-01T06:41:57.000Z</time>
      </trkpt>
      <trkpt lat="42.91889" lon="1.21454">
        <ele>834</ele>
        <time>2022-08-01T06:42:03.000Z</time>
      </trkpt>
      <trkpt lat="42.91886" lon="1.21467">
        <ele>835.6</ele>
        <time>2022-08-01T06:42:09.000Z</time>
      </trkpt>
      <trkpt lat="42.91885" lon="1.2148">
        <ele>836.4</ele>
        <time>2022-08-01T06:42:14.000Z</time>
      </trkpt>
      <trkpt lat="42.91882" lon="1.21491">
        <ele>837.5</ele>
        <time>2022-08-01T06:42:19.000Z</time>
      </trkpt>
      <trkpt lat="42.91879" lon="1.21505">
        <ele>839</ele>
        <time>2022-08-01T06:42:25.000Z</time>
      </trkpt>
      <trkpt lat="42.91874" lon="1.21517">
        <ele>840.6</ele>
        <time>2022-08-01T06:42:31.000Z</time>
      </trkpt>
      <trkpt lat="42.91871" lon="1.2153">
        <ele>842.5</ele>
        <time>2022-08-01T06:42:37.000Z</time>
      </trkpt>
      <trkpt lat="42.91866" lon="1.21542">
        <ele>844.4</ele>
        <time>2022-08-01T06:42:43.000Z</time>
      </trkpt>
      <trkpt lat="42.91862" lon="1.21555">
        <ele>846.2</ele>
        <time>2022-08-01T06:42:49.000Z</time>
      </trkpt>
      <trkpt lat="42.91858" lon="1.21568">
        <ele>848</ele>
        <time>2022-08-01T06:42:55.000Z</time>
      </trkpt>
      <trkpt lat="42.91855" lon="1.21581">
        <ele>849.8</ele>
        <time>2022-08-01T06:43:01.000Z</time>
      </trkpt>
      <trkpt lat="42.91852" lon="1.21594">
        <ele>851.9</ele>
        <time>2022-08-01T06:43:07.000Z</time>
      </trkpt>
      <trkpt lat="42.91848" lon="1.21607">
        <ele>853.8</ele>
        <time>2022-08-01T06:43:14.000Z</time>
      </trkpt>
      <trkpt lat="42.91845" lon="1.2162">
        <ele>856.3</ele>
        <time>2022-08-01T06:43:20.000Z</time>
      </trkpt>
      <trkpt lat="42.91842" lon="1.21634">
        <ele>858.8</ele>
        <time>2022-08-01T06:43:26.000Z</time>
      </trkpt>
      <trkpt lat="42.91838" lon="1.21646">
        <ele>861.3</ele>
        <time>2022-08-01T06:43:32.000Z</time>
      </trkpt>
      <trkpt lat="42.91834" lon="1.21659">
        <ele>863.5</ele>
        <time>2022-08-01T06:43:38.000Z</time>
      </trkpt>
      <trkpt lat="42.91831" lon="1.21672">
        <ele>865.6</ele>
        <time>2022-08-01T06:43:44.000Z</time>
      </trkpt>
      <trkpt lat="42.91828" lon="1.21685">
        <ele>868</ele>
        <time>2022-08-01T06:43:50.000Z</time>
      </trkpt>
      <trkpt lat="42.91825" lon="1.21699">
        <ele>869.8</ele>
        <time>2022-08-01T06:43:56.000Z</time>
      </trkpt>
      <trkpt lat="42.91822" lon="1.21712">
        <ele>871.6</ele>
        <time>2022-08-01T06:44:01.000Z</time>
      </trkpt>
      <trkpt lat="42.91821" lon="1.21724">
        <ele>873.2</ele>
        <time>2022-08-01T06:44:06.000Z</time>
      </trkpt>
      <trkpt lat="42.91819" lon="1.21739">
        <ele>875.5</ele>
        <time>2022-08-01T06:44:12.000Z</time>
      </trkpt>
      <trkpt lat="42.91816" lon="1.21753">
        <ele>877</ele>
        <time>2022-08-01T06:44:17.000Z</time>
      </trkpt>
      <trkpt lat="42.91813" lon="1.21766">
        <ele>878.8</ele>
        <time>2022-08-01T06:44:22.000Z</time>
      </trkpt>
      <trkpt lat="42.91809" lon="1.21778">
        <ele>880.7</ele>
        <time>2022-08-01T06:44:27.000Z</time>
      </trkpt>
      <trkpt lat="42.91806" lon="1.21791">
        <ele>882.6</ele>
        <time>2022-08-01T06:44:33.000Z</time>
      </trkpt>
      <trkpt lat="42.91803" lon="1.21804">
        <ele>883.8</ele>
        <time>2022-08-01T06:44:39.000Z</time>
      </trkpt>
      <trkpt lat="42.91802" lon="1.21817">
        <ele>884.7</ele>
        <time>2022-08-01T06:44:45.000Z</time>
      </trkpt>
      <trkpt lat="42.91803" lon="1.21831">
        <ele>885.9</ele>
        <time>2022-08-01T06:44:51.000Z</time>
      </trkpt>
      <trkpt lat="42.91805" lon="1.21843">
        <ele>887</ele>
        <time>2022-08-01T06:44:56.000Z</time>
      </trkpt>
      <trkpt lat="42.91809" lon="1.21854">
        <ele>888.4</ele>
        <time>2022-08-01T06:45:01.000Z</time>
      </trkpt>
      <trkpt lat="42.91815" lon="1.21863">
        <ele>889.9</ele>
        <time>2022-08-01T06:45:08.000Z</time>
      </trkpt>
      <trkpt lat="42.91816" lon="1.21865">
        <ele>890.6</ele>
        <time>2022-08-01T06:45:22.000Z</time>
      </trkpt>
      <trkpt lat="42.91817" lon="1.21865">
        <ele>890.5</ele>
        <time>2022-08-01T06:45:46.000Z</time>
      </trkpt>
      <trkpt lat="42.91823" lon="1.21866">
        <ele>890.8</ele>
        <time>2022-08-01T06:45:59.000Z</time>
      </trkpt>
      <trkpt lat="42.91825" lon="1.21865">
        <ele>892</ele>
        <time>2022-08-01T06:49:01.000Z</time>
      </trkpt>
      <trkpt lat="42.91825" lon="1.21864">
        <ele>892.3</ele>
        <time>2022-08-01T06:49:13.000Z</time>
      </trkpt>
      <trkpt lat="42.91826" lon="1.21865">
        <ele>892.2</ele>
        <time>2022-08-01T06:49:43.000Z</time>
      </trkpt>
      <trkpt lat="42.91826" lon="1.21866">
        <ele>892.4</ele>
        <time>2022-08-01T06:49:44.000Z</time>
      </trkpt>
      <trkpt lat="42.91825" lon="1.21865">
        <ele>892.3</ele>
        <time>2022-08-01T06:49:58.000Z</time>
      </trkpt>
      <trkpt lat="42.91824" lon="1.21866">
        <ele>892</ele>
        <time>2022-08-01T06:50:07.000Z</time>
      </trkpt>
      <trkpt lat="42.91824" lon="1.21865">
        <ele>892.1</ele>
        <time>2022-08-01T06:50:16.000Z</time>
      </trkpt>
      <trkpt lat="42.91824" lon="1.21866">
        <ele>892</ele>
        <time>2022-08-01T06:50:19.000Z</time>
      </trkpt>
      <trkpt lat="42.91823" lon="1.21866">
        <ele>892</ele>
        <time>2022-08-01T06:50:20.000Z</time>
      </trkpt>
      <trkpt lat="42.91823" lon="1.21865">
        <ele>892.1</ele>
        <time>2022-08-01T06:50:21.000Z</time>
      </trkpt>
      <trkpt lat="42.91823" lon="1.21866">
        <ele>892.4</ele>
        <time>2022-08-01T06:50:22.000Z</time>
      </trkpt>
      <trkpt lat="42.91821" lon="1.21867">
        <ele>892.2</ele>
        <time>2022-08-01T06:50:33.000Z</time>
      </trkpt>
      <trkpt lat="42.91822" lon="1.21866">
        <ele>890.4</ele>
        <time>2022-08-01T06:53:03.000Z</time>
      </trkpt>
      <trkpt lat="42.91822" lon="1.21866">
        <ele>890</ele>
        <time>2022-08-01T06:57:00.000Z</time>
      </trkpt>
      <trkpt lat="42.91826" lon="1.21866">
        <ele>891.1</ele>
        <time>2022-08-01T06:58:02.000Z</time>
      </trkpt>
      <trkpt lat="42.91824" lon="1.21853">
        <ele>890.6</ele>
        <time>2022-08-01T06:58:20.000Z</time>
      </trkpt>
      <trkpt lat="42.91819" lon="1.2184">
        <ele>890.3</ele>
        <time>2022-08-01T06:58:24.000Z</time>
      </trkpt>
      <trkpt lat="42.91819" lon="1.21826">
        <ele>889.8</ele>
        <time>2022-08-01T06:58:27.000Z</time>
      </trkpt>
      <trkpt lat="42.91823" lon="1.21814">
        <ele>889.8</ele>
        <time>2022-08-01T06:58:30.000Z</time>
      </trkpt>
      <trkpt lat="42.91828" lon="1.21803">
        <ele>890.3</ele>
        <time>2022-08-01T06:58:33.000Z</time>
      </trkpt>
      <trkpt lat="42.91834" lon="1.21792">
        <ele>890.3</ele>
        <time>2022-08-01T06:58:36.000Z</time>
      </trkpt>
      <trkpt lat="42.91841" lon="1.21782">
        <ele>890.8</ele>
        <time>2022-08-01T06:58:39.000Z</time>
      </trkpt>
      <trkpt lat="42.91847" lon="1.21772">
        <ele>891.5</ele>
        <time>2022-08-01T06:58:42.000Z</time>
      </trkpt>
      <trkpt lat="42.91855" lon="1.2176">
        <ele>892.2</ele>
        <time>2022-08-01T06:58:46.000Z</time>
      </trkpt>
      <trkpt lat="42.91861" lon="1.2175">
        <ele>893.2</ele>
        <time>2022-08-01T06:58:50.000Z</time>
      </trkpt>
      <trkpt lat="42.91868" lon="1.2174">
        <ele>894</ele>
        <time>2022-08-01T06:58:54.000Z</time>
      </trkpt>
      <trkpt lat="42.91875" lon="1.21732">
        <ele>894.5</ele>
        <time>2022-08-01T06:58:58.000Z</time>
      </trkpt>
      <trkpt lat="42.91882" lon="1.21724">
        <ele>894.9</ele>
        <time>2022-08-01T06:59:02.000Z</time>
      </trkpt>
      <trkpt lat="42.91889" lon="1.21716">
        <ele>895.7</ele>
        <time>2022-08-01T06:59:06.000Z</time>
      </trkpt>
      <trkpt lat="42.91896" lon="1.21707">
        <ele>896.5</ele>
        <time>2022-08-01T06:59:10.000Z</time>
      </trkpt>
      <trkpt lat="42.91903" lon="1.21699">
        <ele>896.7</ele>
        <time>2022-08-01T06:59:14.000Z</time>
      </trkpt>
      <trkpt lat="42.91911" lon="1.21688">
        <ele>897.4</ele>
        <time>2022-08-01T06:59:19.000Z</time>
      </trkpt>
      <trkpt lat="42.91918" lon="1.2168">
        <ele>898.7</ele>
        <time>2022-08-01T06:59:23.000Z</time>
      </trkpt>
      <trkpt lat="42.91925" lon="1.21672">
        <ele>899.2</ele>
        <time>2022-08-01T06:59:27.000Z</time>
      </trkpt>
      <trkpt lat="42.91933" lon="1.21664">
        <ele>899.9</ele>
        <time>2022-08-01T06:59:31.000Z</time>
      </trkpt>
      <trkpt lat="42.9194" lon="1.21654">
        <ele>900.5</ele>
        <time>2022-08-01T06:59:35.000Z</time>
      </trkpt>
      <trkpt lat="42.91947" lon="1.21644">
        <ele>901.2</ele>
        <time>2022-08-01T06:59:39.000Z</time>
      </trkpt>
      <trkpt lat="42.91953" lon="1.21632">
        <ele>901.7</ele>
        <time>2022-08-01T06:59:43.000Z</time>
      </trkpt>
      <trkpt lat="42.91959" lon="1.21621">
        <ele>902.4</ele>
        <time>2022-08-01T06:59:47.000Z</time>
      </trkpt>
      <trkpt lat="42.91964" lon="1.2161">
        <ele>903</ele>
        <time>2022-08-01T06:59:51.000Z</time>
      </trkpt>
      <trkpt lat="42.91969" lon="1.21598">
        <ele>903.8</ele>
        <time>2022-08-01T06:59:55.000Z</time>
      </trkpt>
      <trkpt lat="42.91975" lon="1.21587">
        <ele>904.2</ele>
        <time>2022-08-01T06:59:59.000Z</time>
      </trkpt>
      <trkpt lat="42.9198" lon="1.21576">
        <ele>905.3</ele>
        <time>2022-08-01T07:00:03.000Z</time>
      </trkpt>
      <trkpt lat="42.91986" lon="1.21566">
        <ele>906</ele>
        <time>2022-08-01T07:00:07.000Z</time>
      </trkpt>
      <trkpt lat="42.91991" lon="1.21556">
        <ele>906.5</ele>
        <time>2022-08-01T07:00:11.000Z</time>
      </trkpt>
      <trkpt lat="42.91996" lon="1.21546">
        <ele>907.3</ele>
        <time>2022-08-01T07:00:15.000Z</time>
      </trkpt>
      <trkpt lat="42.92002" lon="1.21533">
        <ele>908.3</ele>
        <time>2022-08-01T07:00:20.000Z</time>
      </trkpt>
      <trkpt lat="42.92008" lon="1.2152">
        <ele>909.3</ele>
        <time>2022-08-01T07:00:25.000Z</time>
      </trkpt>
      <trkpt lat="42.92014" lon="1.21508">
        <ele>910.3</ele>
        <time>2022-08-01T07:00:30.000Z</time>
      </trkpt>
      <trkpt lat="42.9202" lon="1.21495">
        <ele>910.6</ele>
        <time>2022-08-01T07:00:35.000Z</time>
      </trkpt>
      <trkpt lat="42.92025" lon="1.21484">
        <ele>911.1</ele>
        <time>2022-08-01T07:00:39.000Z</time>
      </trkpt>
      <trkpt lat="42.9203" lon="1.21474">
        <ele>912.1</ele>
        <time>2022-08-01T07:00:43.000Z</time>
      </trkpt>
      <trkpt lat="42.92037" lon="1.21462">
        <ele>912.6</ele>
        <time>2022-08-01T07:00:48.000Z</time>
      </trkpt>
      <trkpt lat="42.92043" lon="1.21449">
        <ele>913</ele>
        <time>2022-08-01T07:00:53.000Z</time>
      </trkpt>
      <trkpt lat="42.9205" lon="1.21438">
        <ele>913.7</ele>
        <time>2022-08-01T07:00:58.000Z</time>
      </trkpt>
      <trkpt lat="42.92056" lon="1.21428">
        <ele>914.5</ele>
        <time>2022-08-01T07:01:02.000Z</time>
      </trkpt>
      <trkpt lat="42.92062" lon="1.21418">
        <ele>915</ele>
        <time>2022-08-01T07:01:06.000Z</time>
      </trkpt>
      <trkpt lat="42.92067" lon="1.21407">
        <ele>915.4</ele>
        <time>2022-08-01T07:01:10.000Z</time>
      </trkpt>
      <trkpt lat="42.92074" lon="1.21396">
        <ele>916.2</ele>
        <time>2022-08-01T07:01:15.000Z</time>
      </trkpt>
      <trkpt lat="42.92081" lon="1.21387">
        <ele>917</ele>
        <time>2022-08-01T07:01:19.000Z</time>
      </trkpt>
      <trkpt lat="42.92088" lon="1.21376">
        <ele>917.7</ele>
        <time>2022-08-01T07:01:24.000Z</time>
      </trkpt>
      <trkpt lat="42.92097" lon="1.21366">
        <ele>918.2</ele>
        <time>2022-08-01T07:01:29.000Z</time>
      </trkpt>
      <trkpt lat="42.92105" lon="1.21357">
        <ele>919.3</ele>
        <time>2022-08-01T07:01:34.000Z</time>
      </trkpt>
      <trkpt lat="42.92114" lon="1.21348">
        <ele>920.7</ele>
        <time>2022-08-01T07:01:39.000Z</time>
      </trkpt>
      <trkpt lat="42.92121" lon="1.21341">
        <ele>921.3</ele>
        <time>2022-08-01T07:01:43.000Z</time>
      </trkpt>
      <trkpt lat="42.92131" lon="1.21333">
        <ele>921.8</ele>
        <time>2022-08-01T07:01:48.000Z</time>
      </trkpt>
      <trkpt lat="42.92139" lon="1.21326">
        <ele>923</ele>
        <time>2022-08-01T07:01:52.000Z</time>
      </trkpt>
      <trkpt lat="42.92146" lon="1.21319">
        <ele>922.9</ele>
        <time>2022-08-01T07:01:56.000Z</time>
      </trkpt>
      <trkpt lat="42.92155" lon="1.21312">
        <ele>923.6</ele>
        <time>2022-08-01T07:02:00.000Z</time>
      </trkpt>
      <trkpt lat="42.92164" lon="1.21307">
        <ele>924.1</ele>
        <time>2022-08-01T07:02:04.000Z</time>
      </trkpt>
      <trkpt lat="42.92173" lon="1.21303">
        <ele>924.9</ele>
        <time>2022-08-01T07:02:08.000Z</time>
      </trkpt>
      <trkpt lat="42.92182" lon="1.213">
        <ele>925.2</ele>
        <time>2022-08-01T07:02:12.000Z</time>
      </trkpt>
      <trkpt lat="42.92191" lon="1.21297">
        <ele>925.8</ele>
        <time>2022-08-01T07:02:16.000Z</time>
      </trkpt>
      <trkpt lat="42.92201" lon="1.21293">
        <ele>926</ele>
        <time>2022-08-01T07:02:20.000Z</time>
      </trkpt>
      <trkpt lat="42.92211" lon="1.2129">
        <ele>926.8</ele>
        <time>2022-08-01T07:02:24.000Z</time>
      </trkpt>
      <trkpt lat="42.9222" lon="1.21288">
        <ele>927</ele>
        <time>2022-08-01T07:02:28.000Z</time>
      </trkpt>
      <trkpt lat="42.92229" lon="1.21285">
        <ele>927.9</ele>
        <time>2022-08-01T07:02:32.000Z</time>
      </trkpt>
      <trkpt lat="42.92239" lon="1.21283">
        <ele>928</ele>
        <time>2022-08-01T07:02:36.000Z</time>
      </trkpt>
      <trkpt lat="42.92248" lon="1.21282">
        <ele>928.6</ele>
        <time>2022-08-01T07:02:40.000Z</time>
      </trkpt>
      <trkpt lat="42.92257" lon="1.21281">
        <ele>929.3</ele>
        <time>2022-08-01T07:02:44.000Z</time>
      </trkpt>
      <trkpt lat="42.92267" lon="1.2128">
        <ele>929.4</ele>
        <time>2022-08-01T07:02:48.000Z</time>
      </trkpt>
      <trkpt lat="42.92276" lon="1.21279">
        <ele>930.2</ele>
        <time>2022-08-01T07:02:52.000Z</time>
      </trkpt>
      <trkpt lat="42.92286" lon="1.21278">
        <ele>930.8</ele>
        <time>2022-08-01T07:02:56.000Z</time>
      </trkpt>
      <trkpt lat="42.92296" lon="1.21277">
        <ele>930.9</ele>
        <time>2022-08-01T07:03:00.000Z</time>
      </trkpt>
      <trkpt lat="42.92306" lon="1.21276">
        <ele>931.8</ele>
        <time>2022-08-01T07:03:04.000Z</time>
      </trkpt>
      <trkpt lat="42.92316" lon="1.21275">
        <ele>932.5</ele>
        <time>2022-08-01T07:03:08.000Z</time>
      </trkpt>
      <trkpt lat="42.92326" lon="1.21275">
        <ele>933.1</ele>
        <time>2022-08-01T07:03:12.000Z</time>
      </trkpt>
      <trkpt lat="42.92335" lon="1.21274">
        <ele>933.7</ele>
        <time>2022-08-01T07:03:16.000Z</time>
      </trkpt>
      <trkpt lat="42.92345" lon="1.21272">
        <ele>934.2</ele>
        <time>2022-08-01T07:03:20.000Z</time>
      </trkpt>
      <trkpt lat="42.92354" lon="1.21268">
        <ele>935.3</ele>
        <time>2022-08-01T07:03:24.000Z</time>
      </trkpt>
      <trkpt lat="42.92363" lon="1.21263">
        <ele>936.4</ele>
        <time>2022-08-01T07:03:28.000Z</time>
      </trkpt>
      <trkpt lat="42.92372" lon="1.21258">
        <ele>937</ele>
        <time>2022-08-01T07:03:32.000Z</time>
      </trkpt>
      <trkpt lat="42.92382" lon="1.21253">
        <ele>937.2</ele>
        <time>2022-08-01T07:03:36.000Z</time>
      </trkpt>
      <trkpt lat="42.92391" lon="1.21248">
        <ele>937.6</ele>
        <time>2022-08-01T07:03:40.000Z</time>
      </trkpt>
      <trkpt lat="42.924" lon="1.21243">
        <ele>938</ele>
        <time>2022-08-01T07:03:44.000Z</time>
      </trkpt>
      <trkpt lat="42.92409" lon="1.21238">
        <ele>938.9</ele>
        <time>2022-08-01T07:03:48.000Z</time>
      </trkpt>
      <trkpt lat="42.92418" lon="1.21232">
        <ele>939.2</ele>
        <time>2022-08-01T07:03:52.000Z</time>
      </trkpt>
      <trkpt lat="42.92428" lon="1.21227">
        <ele>940</ele>
        <time>2022-08-01T07:03:56.000Z</time>
      </trkpt>
      <trkpt lat="42.92437" lon="1.21222">
        <ele>940.3</ele>
        <time>2022-08-01T07:04:00.000Z</time>
      </trkpt>
      <trkpt lat="42.92446" lon="1.21217">
        <ele>941</ele>
        <time>2022-08-01T07:04:04.000Z</time>
      </trkpt>
      <trkpt lat="42.92455" lon="1.21211">
        <ele>941.5</ele>
        <time>2022-08-01T07:04:08.000Z</time>
      </trkpt>
      <trkpt lat="42.92463" lon="1.21204">
        <ele>942.4</ele>
        <time>2022-08-01T07:04:12.000Z</time>
      </trkpt>
      <trkpt lat="42.92471" lon="1.21198">
        <ele>943</ele>
        <time>2022-08-01T07:04:16.000Z</time>
      </trkpt>
      <trkpt lat="42.92479" lon="1.21191">
        <ele>943.8</ele>
        <time>2022-08-01T07:04:20.000Z</time>
      </trkpt>
      <trkpt lat="42.92488" lon="1.21184">
        <ele>944.3</ele>
        <time>2022-08-01T07:04:24.000Z</time>
      </trkpt>
      <trkpt lat="42.92495" lon="1.21178">
        <ele>945.1</ele>
        <time>2022-08-01T07:04:28.000Z</time>
      </trkpt>
      <trkpt lat="42.92503" lon="1.21171">
        <ele>945.8</ele>
        <time>2022-08-01T07:04:32.000Z</time>
      </trkpt>
      <trkpt lat="42.9251" lon="1.21163">
        <ele>946.7</ele>
        <time>2022-08-01T07:04:36.000Z</time>
      </trkpt>
      <trkpt lat="42.92518" lon="1.21156">
        <ele>947.1</ele>
        <time>2022-08-01T07:04:40.000Z</time>
      </trkpt>
      <trkpt lat="42.92525" lon="1.21148">
        <ele>947.9</ele>
        <time>2022-08-01T07:04:44.000Z</time>
      </trkpt>
      <trkpt lat="42.92532" lon="1.2114">
        <ele>948.6</ele>
        <time>2022-08-01T07:04:48.000Z</time>
      </trkpt>
      <trkpt lat="42.92539" lon="1.21132">
        <ele>949.1</ele>
        <time>2022-08-01T07:04:52.000Z</time>
      </trkpt>
      <trkpt lat="42.92547" lon="1.21124">
        <ele>949.3</ele>
        <time>2022-08-01T07:04:56.000Z</time>
      </trkpt>
      <trkpt lat="42.92554" lon="1.21117">
        <ele>950</ele>
        <time>2022-08-01T07:05:00.000Z</time>
      </trkpt>
      <trkpt lat="42.92562" lon="1.21109">
        <ele>951.1</ele>
        <time>2022-08-01T07:05:04.000Z</time>
      </trkpt>
      <trkpt lat="42.92571" lon="1.211">
        <ele>951.7</ele>
        <time>2022-08-01T07:05:09.000Z</time>
      </trkpt>
      <trkpt lat="42.92578" lon="1.21093">
        <ele>952.7</ele>
        <time>2022-08-01T07:05:13.000Z</time>
      </trkpt>
      <trkpt lat="42.92587" lon="1.21084">
        <ele>953.6</ele>
        <time>2022-08-01T07:05:18.000Z</time>
      </trkpt>
      <trkpt lat="42.92595" lon="1.21077">
        <ele>954.2</ele>
        <time>2022-08-01T07:05:22.000Z</time>
      </trkpt>
      <trkpt lat="42.92602" lon="1.2107">
        <ele>954.6</ele>
        <time>2022-08-01T07:05:26.000Z</time>
      </trkpt>
      <trkpt lat="42.9261" lon="1.21064">
        <ele>955.5</ele>
        <time>2022-08-01T07:05:30.000Z</time>
      </trkpt>
      <trkpt lat="42.9262" lon="1.21057">
        <ele>956.3</ele>
        <time>2022-08-01T07:05:35.000Z</time>
      </trkpt>
      <trkpt lat="42.9263" lon="1.2105">
        <ele>957.2</ele>
        <time>2022-08-01T07:05:40.000Z</time>
      </trkpt>
      <trkpt lat="42.9264" lon="1.21043">
        <ele>958.4</ele>
        <time>2022-08-01T07:05:45.000Z</time>
      </trkpt>
      <trkpt lat="42.92649" lon="1.21037">
        <ele>959.3</ele>
        <time>2022-08-01T07:05:50.000Z</time>
      </trkpt>
      <trkpt lat="42.92658" lon="1.21029">
        <ele>960.5</ele>
        <time>2022-08-01T07:05:55.000Z</time>
      </trkpt>
      <trkpt lat="42.92666" lon="1.21022">
        <ele>960.8</ele>
        <time>2022-08-01T07:05:59.000Z</time>
      </trkpt>
      <trkpt lat="42.92675" lon="1.21016">
        <ele>961.5</ele>
        <time>2022-08-01T07:06:03.000Z</time>
      </trkpt>
      <trkpt lat="42.92683" lon="1.2101">
        <ele>962</ele>
        <time>2022-08-01T07:06:07.000Z</time>
      </trkpt>
      <trkpt lat="42.92691" lon="1.21004">
        <ele>962.3</ele>
        <time>2022-08-01T07:06:11.000Z</time>
      </trkpt>
      <trkpt lat="42.92699" lon="1.20998">
        <ele>963</ele>
        <time>2022-08-01T07:06:15.000Z</time>
      </trkpt>
      <trkpt lat="42.9271" lon="1.20992">
        <ele>964.2</ele>
        <time>2022-08-01T07:06:20.000Z</time>
      </trkpt>
      <trkpt lat="42.92718" lon="1.20986">
        <ele>964.8</ele>
        <time>2022-08-01T07:06:24.000Z</time>
      </trkpt>
      <trkpt lat="42.92726" lon="1.20981">
        <ele>965</ele>
        <time>2022-08-01T07:06:28.000Z</time>
      </trkpt>
      <trkpt lat="42.92735" lon="1.20976">
        <ele>965.9</ele>
        <time>2022-08-01T07:06:32.000Z</time>
      </trkpt>
      <trkpt lat="42.92744" lon="1.20971">
        <ele>965.9</ele>
        <time>2022-08-01T07:06:36.000Z</time>
      </trkpt>
      <trkpt lat="42.92752" lon="1.20964">
        <ele>966.3</ele>
        <time>2022-08-01T07:06:40.000Z</time>
      </trkpt>
      <trkpt lat="42.9276" lon="1.20955">
        <ele>966.6</ele>
        <time>2022-08-01T07:06:44.000Z</time>
      </trkpt>
      <trkpt lat="42.92767" lon="1.20942">
        <ele>966</ele>
        <time>2022-08-01T07:06:48.000Z</time>
      </trkpt>
      <trkpt lat="42.92773" lon="1.20931">
        <ele>966</ele>
        <time>2022-08-01T07:06:51.000Z</time>
      </trkpt>
      <trkpt lat="42.9278" lon="1.20919">
        <ele>965.4</ele>
        <time>2022-08-01T07:06:54.000Z</time>
      </trkpt>
      <trkpt lat="42.92787" lon="1.20905">
        <ele>964.4</ele>
        <time>2022-08-01T07:06:57.000Z</time>
      </trkpt>
      <trkpt lat="42.92794" lon="1.20891">
        <ele>964.2</ele>
        <time>2022-08-01T07:07:00.000Z</time>
      </trkpt>
      <trkpt lat="42.92802" lon="1.20877">
        <ele>964.2</ele>
        <time>2022-08-01T07:07:03.000Z</time>
      </trkpt>
      <trkpt lat="42.9281" lon="1.20863">
        <ele>963.7</ele>
        <time>2022-08-01T07:07:06.000Z</time>
      </trkpt>
      <trkpt lat="42.92816" lon="1.20852">
        <ele>963.5</ele>
        <time>2022-08-01T07:07:08.000Z</time>
      </trkpt>
      <trkpt lat="42.92821" lon="1.20842">
        <ele>963.2</ele>
        <time>2022-08-01T07:07:10.000Z</time>
      </trkpt>
      <trkpt lat="42.92829" lon="1.2083">
        <ele>962.2</ele>
        <time>2022-08-01T07:07:12.000Z</time>
      </trkpt>
      <trkpt lat="42.92837" lon="1.20819">
        <ele>961.2</ele>
        <time>2022-08-01T07:07:14.000Z</time>
      </trkpt>
      <trkpt lat="42.92846" lon="1.20807">
        <ele>960.7</ele>
        <time>2022-08-01T07:07:16.000Z</time>
      </trkpt>
      <trkpt lat="42.92855" lon="1.20795">
        <ele>960.2</ele>
        <time>2022-08-01T07:07:18.000Z</time>
      </trkpt>
      <trkpt lat="42.92865" lon="1.20783">
        <ele>959.4</ele>
        <time>2022-08-01T07:07:20.000Z</time>
      </trkpt>
      <trkpt lat="42.92875" lon="1.20772">
        <ele>958.9</ele>
        <time>2022-08-01T07:07:22.000Z</time>
      </trkpt>
      <trkpt lat="42.92885" lon="1.20761">
        <ele>959.3</ele>
        <time>2022-08-01T07:07:24.000Z</time>
      </trkpt>
      <trkpt lat="42.92894" lon="1.20752">
        <ele>958.3</ele>
        <time>2022-08-01T07:07:26.000Z</time>
      </trkpt>
      <trkpt lat="42.92903" lon="1.20744">
        <ele>958.9</ele>
        <time>2022-08-01T07:07:28.000Z</time>
      </trkpt>
      <trkpt lat="42.92912" lon="1.20736">
        <ele>958.2</ele>
        <time>2022-08-01T07:07:30.000Z</time>
      </trkpt>
      <trkpt lat="42.92921" lon="1.20729">
        <ele>958.2</ele>
        <time>2022-08-01T07:07:32.000Z</time>
      </trkpt>
      <trkpt lat="42.9293" lon="1.20724">
        <ele>958.5</ele>
        <time>2022-08-01T07:07:34.000Z</time>
      </trkpt>
      <trkpt lat="42.9294" lon="1.2072">
        <ele>958.6</ele>
        <time>2022-08-01T07:07:37.000Z</time>
      </trkpt>
      <trkpt lat="42.92952" lon="1.20718">
        <ele>959.2</ele>
        <time>2022-08-01T07:07:41.000Z</time>
      </trkpt>
      <trkpt lat="42.92963" lon="1.20719">
        <ele>959.5</ele>
        <time>2022-08-01T07:07:45.000Z</time>
      </trkpt>
      <trkpt lat="42.92973" lon="1.20721">
        <ele>960.5</ele>
        <time>2022-08-01T07:07:49.000Z</time>
      </trkpt>
      <trkpt lat="42.92984" lon="1.20723">
        <ele>960.5</ele>
        <time>2022-08-01T07:07:53.000Z</time>
      </trkpt>
      <trkpt lat="42.92994" lon="1.20725">
        <ele>960.8</ele>
        <time>2022-08-01T07:07:57.000Z</time>
      </trkpt>
      <trkpt lat="42.93006" lon="1.20727">
        <ele>961.1</ele>
        <time>2022-08-01T07:08:01.000Z</time>
      </trkpt>
      <trkpt lat="42.93016" lon="1.20726">
        <ele>960.8</ele>
        <time>2022-08-01T07:08:04.000Z</time>
      </trkpt>
      <trkpt lat="42.93025" lon="1.20721">
        <ele>961.3</ele>
        <time>2022-08-01T07:08:07.000Z</time>
      </trkpt>
      <trkpt lat="42.93035" lon="1.20729">
        <ele>961.3</ele>
        <time>2022-08-01T07:08:11.000Z</time>
      </trkpt>
      <trkpt lat="42.93033" lon="1.20743">
        <ele>962.6</ele>
        <time>2022-08-01T07:08:15.000Z</time>
      </trkpt>
      <trkpt lat="42.93028" lon="1.20754">
        <ele>963.5</ele>
        <time>2022-08-01T07:08:19.000Z</time>
      </trkpt>
      <trkpt lat="42.93023" lon="1.20765">
        <ele>966</ele>
        <time>2022-08-01T07:08:23.000Z</time>
      </trkpt>
      <trkpt lat="42.93019" lon="1.20779">
        <ele>968</ele>
        <time>2022-08-01T07:08:28.000Z</time>
      </trkpt>
      <trkpt lat="42.93013" lon="1.2079">
        <ele>970.4</ele>
        <time>2022-08-01T07:08:33.000Z</time>
      </trkpt>
      <trkpt lat="42.93006" lon="1.20801">
        <ele>972.2</ele>
        <time>2022-08-01T07:08:37.000Z</time>
      </trkpt>
      <trkpt lat="42.93001" lon="1.20813">
        <ele>974.4</ele>
        <time>2022-08-01T07:08:41.000Z</time>
      </trkpt>
      <trkpt lat="42.92995" lon="1.20825">
        <ele>977.8</ele>
        <time>2022-08-01T07:08:46.000Z</time>
      </trkpt>
      <trkpt lat="42.92989" lon="1.20838">
        <ele>981.2</ele>
        <time>2022-08-01T07:08:51.000Z</time>
      </trkpt>
      <trkpt lat="42.92983" lon="1.20849">
        <ele>984.1</ele>
        <time>2022-08-01T07:08:56.000Z</time>
      </trkpt>
      <trkpt lat="42.92977" lon="1.2086">
        <ele>987.3</ele>
        <time>2022-08-01T07:09:01.000Z</time>
      </trkpt>
      <trkpt lat="42.92973" lon="1.20871">
        <ele>989.9</ele>
        <time>2022-08-01T07:09:06.000Z</time>
      </trkpt>
      <trkpt lat="42.92968" lon="1.20883">
        <ele>992.7</ele>
        <time>2022-08-01T07:09:11.000Z</time>
      </trkpt>
      <trkpt lat="42.92962" lon="1.20893">
        <ele>995.8</ele>
        <time>2022-08-01T07:09:16.000Z</time>
      </trkpt>
      <trkpt lat="42.92956" lon="1.20905">
        <ele>998.9</ele>
        <time>2022-08-01T07:09:21.000Z</time>
      </trkpt>
      <trkpt lat="42.92951" lon="1.20917">
        <ele>1001.5</ele>
        <time>2022-08-01T07:09:26.000Z</time>
      </trkpt>
      <trkpt lat="42.92946" lon="1.20929">
        <ele>1004.7</ele>
        <time>2022-08-01T07:09:31.000Z</time>
      </trkpt>
      <trkpt lat="42.9294" lon="1.20941">
        <ele>1007.6</ele>
        <time>2022-08-01T07:09:36.000Z</time>
      </trkpt>
      <trkpt lat="42.92936" lon="1.20953">
        <ele>1009.8</ele>
        <time>2022-08-01T07:09:41.000Z</time>
      </trkpt>
      <trkpt lat="42.92932" lon="1.20966">
        <ele>1012</ele>
        <time>2022-08-01T07:09:46.000Z</time>
      </trkpt>
      <trkpt lat="42.92927" lon="1.20977">
        <ele>1014.4</ele>
        <time>2022-08-01T07:09:50.000Z</time>
      </trkpt>
      <trkpt lat="42.92921" lon="1.20988">
        <ele>1017</ele>
        <time>2022-08-01T07:09:55.000Z</time>
      </trkpt>
      <trkpt lat="42.92915" lon="1.21">
        <ele>1019.6</ele>
        <time>2022-08-01T07:10:00.000Z</time>
      </trkpt>
      <trkpt lat="42.9291" lon="1.21011">
        <ele>1022.3</ele>
        <time>2022-08-01T07:10:05.000Z</time>
      </trkpt>
      <trkpt lat="42.92903" lon="1.21023">
        <ele>1025</ele>
        <time>2022-08-01T07:10:10.000Z</time>
      </trkpt>
      <trkpt lat="42.92898" lon="1.21033">
        <ele>1026.7</ele>
        <time>2022-08-01T07:10:14.000Z</time>
      </trkpt>
      <trkpt lat="42.92893" lon="1.21045">
        <ele>1029.7</ele>
        <time>2022-08-01T07:10:19.000Z</time>
      </trkpt>
      <trkpt lat="42.92887" lon="1.21057">
        <ele>1031.4</ele>
        <time>2022-08-01T07:10:23.000Z</time>
      </trkpt>
      <trkpt lat="42.92882" lon="1.2107">
        <ele>1033.7</ele>
        <time>2022-08-01T07:10:28.000Z</time>
      </trkpt>
      <trkpt lat="42.92875" lon="1.21082">
        <ele>1035.5</ele>
        <time>2022-08-01T07:10:33.000Z</time>
      </trkpt>
      <trkpt lat="42.9287" lon="1.21093">
        <ele>1036.2</ele>
        <time>2022-08-01T07:10:37.000Z</time>
      </trkpt>
      <trkpt lat="42.92866" lon="1.21104">
        <ele>1037</ele>
        <time>2022-08-01T07:10:42.000Z</time>
      </trkpt>
      <trkpt lat="42.92859" lon="1.21114">
        <ele>1037.5</ele>
        <time>2022-08-01T07:10:50.000Z</time>
      </trkpt>
      <trkpt lat="42.92852" lon="1.21121">
        <ele>1037.9</ele>
        <time>2022-08-01T07:10:56.000Z</time>
      </trkpt>
      <trkpt lat="42.92845" lon="1.2113">
        <ele>1037.6</ele>
        <time>2022-08-01T07:11:03.000Z</time>
      </trkpt>
      <trkpt lat="42.92839" lon="1.21139">
        <ele>1037.4</ele>
        <time>2022-08-01T07:11:12.000Z</time>
      </trkpt>
      <trkpt lat="42.92831" lon="1.21146">
        <ele>1036.7</ele>
        <time>2022-08-01T07:11:19.000Z</time>
      </trkpt>
      <trkpt lat="42.92822" lon="1.21152">
        <ele>1035.7</ele>
        <time>2022-08-01T07:11:24.000Z</time>
      </trkpt>
      <trkpt lat="42.92812" lon="1.21158">
        <ele>1035.3</ele>
        <time>2022-08-01T07:11:27.000Z</time>
      </trkpt>
      <trkpt lat="42.92801" lon="1.21161">
        <ele>1034.5</ele>
        <time>2022-08-01T07:11:31.000Z</time>
      </trkpt>
      <trkpt lat="42.92792" lon="1.21166">
        <ele>1035</ele>
        <time>2022-08-01T07:11:38.000Z</time>
      </trkpt>
      <trkpt lat="42.92783" lon="1.21172">
        <ele>1035.1</ele>
        <time>2022-08-01T07:11:45.000Z</time>
      </trkpt>
      <trkpt lat="42.92783" lon="1.21173">
        <ele>1035</ele>
        <time>2022-08-01T07:11:48.000Z</time>
      </trkpt>
      <trkpt lat="42.92792" lon="1.21167">
        <ele>1034.9</ele>
        <time>2022-08-01T07:11:57.000Z</time>
      </trkpt>
      <trkpt lat="42.92802" lon="1.21159">
        <ele>1034.8</ele>
        <time>2022-08-01T07:12:02.000Z</time>
      </trkpt>
      <trkpt lat="42.92811" lon="1.21156">
        <ele>1034.5</ele>
        <time>2022-08-01T07:12:05.000Z</time>
      </trkpt>
      <trkpt lat="42.92821" lon="1.21151">
        <ele>1034.9</ele>
        <time>2022-08-01T07:12:10.000Z</time>
      </trkpt>
      <trkpt lat="42.9283" lon="1.21146">
        <ele>1035.8</ele>
        <time>2022-08-01T07:12:15.000Z</time>
      </trkpt>
      <trkpt lat="42.92838" lon="1.21139">
        <ele>1037</ele>
        <time>2022-08-01T07:12:21.000Z</time>
      </trkpt>
      <trkpt lat="42.92846" lon="1.21128">
        <ele>1037.3</ele>
        <time>2022-08-01T07:12:27.000Z</time>
      </trkpt>
      <trkpt lat="42.92852" lon="1.2112">
        <ele>1037.8</ele>
        <time>2022-08-01T07:12:32.000Z</time>
      </trkpt>
      <trkpt lat="42.9286" lon="1.21112">
        <ele>1037.7</ele>
        <time>2022-08-01T07:12:38.000Z</time>
      </trkpt>
      <trkpt lat="42.92867" lon="1.21108">
        <ele>1037.1</ele>
        <time>2022-08-01T07:12:46.000Z</time>
      </trkpt>
      <trkpt lat="42.92868" lon="1.21108">
        <ele>1036.7</ele>
        <time>2022-08-01T07:13:08.000Z</time>
      </trkpt>
      <trkpt lat="42.92879" lon="1.2111">
        <ele>1036.3</ele>
        <time>2022-08-01T07:13:35.000Z</time>
      </trkpt>
      <trkpt lat="42.92891" lon="1.2111">
        <ele>1035</ele>
        <time>2022-08-01T07:13:39.000Z</time>
      </trkpt>
      <trkpt lat="42.92901" lon="1.2111">
        <ele>1034.9</ele>
        <time>2022-08-01T07:13:41.000Z</time>
      </trkpt>
      <trkpt lat="42.92912" lon="1.21111">
        <ele>1033.2</ele>
        <time>2022-08-01T07:13:43.000Z</time>
      </trkpt>
      <trkpt lat="42.92924" lon="1.21113">
        <ele>1032</ele>
        <time>2022-08-01T07:13:45.000Z</time>
      </trkpt>
      <trkpt lat="42.92935" lon="1.21116">
        <ele>1032.1</ele>
        <time>2022-08-01T07:13:47.000Z</time>
      </trkpt>
      <trkpt lat="42.92945" lon="1.21117">
        <ele>1032</ele>
        <time>2022-08-01T07:13:49.000Z</time>
      </trkpt>
      <trkpt lat="42.92954" lon="1.21118">
        <ele>1031.7</ele>
        <time>2022-08-01T07:13:51.000Z</time>
      </trkpt>
      <trkpt lat="42.92966" lon="1.21121">
        <ele>1031.9</ele>
        <time>2022-08-01T07:13:54.000Z</time>
      </trkpt>
      <trkpt lat="42.92977" lon="1.21124">
        <ele>1031.8</ele>
        <time>2022-08-01T07:13:57.000Z</time>
      </trkpt>
      <trkpt lat="42.92989" lon="1.2113">
        <ele>1031.3</ele>
        <time>2022-08-01T07:14:00.000Z</time>
      </trkpt>
      <trkpt lat="42.92997" lon="1.21139">
        <ele>1031.1</ele>
        <time>2022-08-01T07:14:03.000Z</time>
      </trkpt>
      <trkpt lat="42.93007" lon="1.21148">
        <ele>1031.5</ele>
        <time>2022-08-01T07:14:06.000Z</time>
      </trkpt>
      <trkpt lat="42.93015" lon="1.21155">
        <ele>1032.1</ele>
        <time>2022-08-01T07:14:09.000Z</time>
      </trkpt>
      <trkpt lat="42.93025" lon="1.21164">
        <ele>1033</ele>
        <time>2022-08-01T07:14:13.000Z</time>
      </trkpt>
      <trkpt lat="42.93034" lon="1.21173">
        <ele>1032.7</ele>
        <time>2022-08-01T07:14:16.000Z</time>
      </trkpt>
      <trkpt lat="42.93043" lon="1.21185">
        <ele>1031.8</ele>
        <time>2022-08-01T07:14:19.000Z</time>
      </trkpt>
      <trkpt lat="42.9305" lon="1.21193">
        <ele>1031.3</ele>
        <time>2022-08-01T07:14:21.000Z</time>
      </trkpt>
      <trkpt lat="42.93058" lon="1.21205">
        <ele>1031.2</ele>
        <time>2022-08-01T07:14:24.000Z</time>
      </trkpt>
      <trkpt lat="42.93065" lon="1.21217">
        <ele>1031.2</ele>
        <time>2022-08-01T07:14:27.000Z</time>
      </trkpt>
      <trkpt lat="42.93071" lon="1.21228">
        <ele>1031.5</ele>
        <time>2022-08-01T07:14:30.000Z</time>
      </trkpt>
      <trkpt lat="42.93078" lon="1.21239">
        <ele>1032</ele>
        <time>2022-08-01T07:14:33.000Z</time>
      </trkpt>
      <trkpt lat="42.93085" lon="1.2125">
        <ele>1032.1</ele>
        <time>2022-08-01T07:14:36.000Z</time>
      </trkpt>
      <trkpt lat="42.9309" lon="1.21261">
        <ele>1033.1</ele>
        <time>2022-08-01T07:14:39.000Z</time>
      </trkpt>
      <trkpt lat="42.93099" lon="1.21272">
        <ele>1034.1</ele>
        <time>2022-08-01T07:14:43.000Z</time>
      </trkpt>
      <trkpt lat="42.93107" lon="1.21284">
        <ele>1035.4</ele>
        <time>2022-08-01T07:14:47.000Z</time>
      </trkpt>
      <trkpt lat="42.93114" lon="1.21294">
        <ele>1037.1</ele>
        <time>2022-08-01T07:14:51.000Z</time>
      </trkpt>
      <trkpt lat="42.93122" lon="1.21304">
        <ele>1038.2</ele>
        <time>2022-08-01T07:14:55.000Z</time>
      </trkpt>
      <trkpt lat="42.93129" lon="1.21314">
        <ele>1038.9</ele>
        <time>2022-08-01T07:14:59.000Z</time>
      </trkpt>
      <trkpt lat="42.93136" lon="1.21324">
        <ele>1038.8</ele>
        <time>2022-08-01T07:15:03.000Z</time>
      </trkpt>
      <trkpt lat="42.93143" lon="1.21335">
        <ele>1038.7</ele>
        <time>2022-08-01T07:15:07.000Z</time>
      </trkpt>
      <trkpt lat="42.93151" lon="1.21346">
        <ele>1037.8</ele>
        <time>2022-08-01T07:15:11.000Z</time>
      </trkpt>
      <trkpt lat="42.93159" lon="1.21354">
        <ele>1037.2</ele>
        <time>2022-08-01T07:15:14.000Z</time>
      </trkpt>
      <trkpt lat="42.93166" lon="1.2136">
        <ele>1037</ele>
        <time>2022-08-01T07:15:17.000Z</time>
      </trkpt>
      <trkpt lat="42.93177" lon="1.21371">
        <ele>1035.7</ele>
        <time>2022-08-01T07:15:20.000Z</time>
      </trkpt>
      <trkpt lat="42.93185" lon="1.21379">
        <ele>1034.9</ele>
        <time>2022-08-01T07:15:22.000Z</time>
      </trkpt>
      <trkpt lat="42.93192" lon="1.2139">
        <ele>1033.5</ele>
        <time>2022-08-01T07:15:24.000Z</time>
      </trkpt>
      <trkpt lat="42.93198" lon="1.21403">
        <ele>1033.3</ele>
        <time>2022-08-01T07:15:26.000Z</time>
      </trkpt>
      <trkpt lat="42.93205" lon="1.21418">
        <ele>1030.8</ele>
        <time>2022-08-01T07:15:28.000Z</time>
      </trkpt>
      <trkpt lat="42.93212" lon="1.21432">
        <ele>1028</ele>
        <time>2022-08-01T07:15:30.000Z</time>
      </trkpt>
      <trkpt lat="42.9322" lon="1.21447">
        <ele>1024.7</ele>
        <time>2022-08-01T07:15:32.000Z</time>
      </trkpt>
      <trkpt lat="42.93228" lon="1.21463">
        <ele>1019.1</ele>
        <time>2022-08-01T07:15:34.000Z</time>
      </trkpt>
      <trkpt lat="42.93235" lon="1.21476">
        <ele>1016.4</ele>
        <time>2022-08-01T07:15:36.000Z</time>
      </trkpt>
      <trkpt lat="42.93242" lon="1.2149">
        <ele>1014</ele>
        <time>2022-08-01T07:15:38.000Z</time>
      </trkpt>
      <trkpt lat="42.93247" lon="1.21504">
        <ele>1011.5</ele>
        <time>2022-08-01T07:15:40.000Z</time>
      </trkpt>
      <trkpt lat="42.93253" lon="1.21518">
        <ele>1008</ele>
        <time>2022-08-01T07:15:42.000Z</time>
      </trkpt>
      <trkpt lat="42.93261" lon="1.21534">
        <ele>1005.9</ele>
        <time>2022-08-01T07:15:44.000Z</time>
      </trkpt>
      <trkpt lat="42.93271" lon="1.21547">
        <ele>1003.2</ele>
        <time>2022-08-01T07:15:46.000Z</time>
      </trkpt>
      <trkpt lat="42.93284" lon="1.2156">
        <ele>1001.1</ele>
        <time>2022-08-01T07:15:48.000Z</time>
      </trkpt>
      <trkpt lat="42.93297" lon="1.2157">
        <ele>1000.6</ele>
        <time>2022-08-01T07:15:50.000Z</time>
      </trkpt>
      <trkpt lat="42.93309" lon="1.21578">
        <ele>1001</ele>
        <time>2022-08-01T07:15:52.000Z</time>
      </trkpt>
      <trkpt lat="42.93319" lon="1.21585">
        <ele>1001.8</ele>
        <time>2022-08-01T07:15:55.000Z</time>
      </trkpt>
      <trkpt lat="42.93328" lon="1.2159">
        <ele>1003.2</ele>
        <time>2022-08-01T07:15:58.000Z</time>
      </trkpt>
      <trkpt lat="42.93337" lon="1.21596">
        <ele>1004.4</ele>
        <time>2022-08-01T07:16:01.000Z</time>
      </trkpt>
      <trkpt lat="42.93347" lon="1.21603">
        <ele>1005.7</ele>
        <time>2022-08-01T07:16:05.000Z</time>
      </trkpt>
      <trkpt lat="42.93356" lon="1.21611">
        <ele>1007</ele>
        <time>2022-08-01T07:16:09.000Z</time>
      </trkpt>
      <trkpt lat="42.93366" lon="1.21619">
        <ele>1008.1</ele>
        <time>2022-08-01T07:16:13.000Z</time>
      </trkpt>
      <trkpt lat="42.93376" lon="1.21627">
        <ele>1009.2</ele>
        <time>2022-08-01T07:16:17.000Z</time>
      </trkpt>
      <trkpt lat="42.93383" lon="1.21639">
        <ele>1009.8</ele>
        <time>2022-08-01T07:16:21.000Z</time>
      </trkpt>
      <trkpt lat="42.93389" lon="1.2165">
        <ele>1009</ele>
        <time>2022-08-01T07:16:24.000Z</time>
      </trkpt>
      <trkpt lat="42.93394" lon="1.21663">
        <ele>1008.9</ele>
        <time>2022-08-01T07:16:27.000Z</time>
      </trkpt>
      <trkpt lat="42.93398" lon="1.21678">
        <ele>1007.4</ele>
        <time>2022-08-01T07:16:30.000Z</time>
      </trkpt>
      <trkpt lat="42.93407" lon="1.21684">
        <ele>1006.8</ele>
        <time>2022-08-01T07:16:38.000Z</time>
      </trkpt>
      <trkpt lat="42.93408" lon="1.21684">
        <ele>1006.7</ele>
        <time>2022-08-01T07:16:40.000Z</time>
      </trkpt>
      <trkpt lat="42.93415" lon="1.21696">
        <ele>1004.9</ele>
        <time>2022-08-01T07:16:48.000Z</time>
      </trkpt>
      <trkpt lat="42.93422" lon="1.21708">
        <ele>1004.2</ele>
        <time>2022-08-01T07:16:52.000Z</time>
      </trkpt>
      <trkpt lat="42.93428" lon="1.21723">
        <ele>1002.1</ele>
        <time>2022-08-01T07:16:55.000Z</time>
      </trkpt>
      <trkpt lat="42.93434" lon="1.21736">
        <ele>1000</ele>
        <time>2022-08-01T07:16:57.000Z</time>
      </trkpt>
      <trkpt lat="42.9344" lon="1.21748">
        <ele>998.5</ele>
        <time>2022-08-01T07:16:59.000Z</time>
      </trkpt>
      <trkpt lat="42.93448" lon="1.21762">
        <ele>996.6</ele>
        <time>2022-08-01T07:17:02.000Z</time>
      </trkpt>
      <trkpt lat="42.93455" lon="1.21772">
        <ele>995.2</ele>
        <time>2022-08-01T07:17:04.000Z</time>
      </trkpt>
      <trkpt lat="42.93462" lon="1.21783">
        <ele>993.9</ele>
        <time>2022-08-01T07:17:06.000Z</time>
      </trkpt>
      <trkpt lat="42.93467" lon="1.21794">
        <ele>992.8</ele>
        <time>2022-08-01T07:17:08.000Z</time>
      </trkpt>
      <trkpt lat="42.9347" lon="1.21807">
        <ele>991.8</ele>
        <time>2022-08-01T07:17:10.000Z</time>
      </trkpt>
      <trkpt lat="42.93473" lon="1.21821">
        <ele>988.5</ele>
        <time>2022-08-01T07:17:13.000Z</time>
      </trkpt>
      <trkpt lat="42.93477" lon="1.21833">
        <ele>987.1</ele>
        <time>2022-08-01T07:17:17.000Z</time>
      </trkpt>
      <trkpt lat="42.93481" lon="1.21846">
        <ele>986.1</ele>
        <time>2022-08-01T07:17:23.000Z</time>
      </trkpt>
      <trkpt lat="42.93484" lon="1.2186">
        <ele>987.2</ele>
        <time>2022-08-01T07:17:28.000Z</time>
      </trkpt>
      <trkpt lat="42.93487" lon="1.21873">
        <ele>988</ele>
        <time>2022-08-01T07:17:34.000Z</time>
      </trkpt>
      <trkpt lat="42.9349" lon="1.21888">
        <ele>987.7</ele>
        <time>2022-08-01T07:17:40.000Z</time>
      </trkpt>
      <trkpt lat="42.93491" lon="1.21902">
        <ele>988.2</ele>
        <time>2022-08-01T07:17:45.000Z</time>
      </trkpt>
      <trkpt lat="42.93488" lon="1.21909">
        <ele>988.5</ele>
        <time>2022-08-01T07:17:51.000Z</time>
      </trkpt>
      <trkpt lat="42.93488" lon="1.2191">
        <ele>988.5</ele>
        <time>2022-08-01T07:19:31.000Z</time>
      </trkpt>
      <trkpt lat="42.93489" lon="1.21908">
        <ele>988.2</ele>
        <time>2022-08-01T07:19:40.000Z</time>
      </trkpt>
      <trkpt lat="42.9349" lon="1.21907">
        <ele>988.2</ele>
        <time>2022-08-01T07:19:46.000Z</time>
      </trkpt>
      <trkpt lat="42.9349" lon="1.21906">
        <ele>988.1</ele>
        <time>2022-08-01T07:20:09.000Z</time>
      </trkpt>
      <trkpt lat="42.9349" lon="1.21905">
        <ele>988.6</ele>
        <time>2022-08-01T07:20:28.000Z</time>
      </trkpt>
      <trkpt lat="42.9349" lon="1.21904">
        <ele>988.6</ele>
        <time>2022-08-01T07:20:30.000Z</time>
      </trkpt>
      <trkpt lat="42.9349" lon="1.21903">
        <ele>988.7</ele>
        <time>2022-08-01T07:20:33.000Z</time>
      </trkpt>
      <trkpt lat="42.93501" lon="1.21901">
        <ele>987.1</ele>
        <time>2022-08-01T07:20:40.000Z</time>
      </trkpt>
      <trkpt lat="42.93504" lon="1.21898">
        <ele>986.7</ele>
        <time>2022-08-01T07:20:45.000Z</time>
      </trkpt>
      <trkpt lat="42.93504" lon="1.21897">
        <ele>986.6</ele>
        <time>2022-08-01T07:20:47.000Z</time>
      </trkpt>
      <trkpt lat="42.93511" lon="1.21902">
        <ele>985.9</ele>
        <time>2022-08-01T07:21:08.000Z</time>
      </trkpt>
      <trkpt lat="42.93511" lon="1.21903">
        <ele>985.4</ele>
        <time>2022-08-01T07:21:12.000Z</time>
      </trkpt>
      <trkpt lat="42.93519" lon="1.21909">
        <ele>983.1</ele>
        <time>2022-08-01T07:21:23.000Z</time>
      </trkpt>
      <trkpt lat="42.93527" lon="1.21912">
        <ele>978.9</ele>
        <time>2022-08-01T07:21:44.000Z</time>
      </trkpt>
      <trkpt lat="42.93528" lon="1.21912">
        <ele>978.8</ele>
        <time>2022-08-01T07:21:47.000Z</time>
      </trkpt>
      <trkpt lat="42.93535" lon="1.21922">
        <ele>975.9</ele>
        <time>2022-08-01T07:21:58.000Z</time>
      </trkpt>
      <trkpt lat="42.93542" lon="1.21933">
        <ele>972.4</ele>
        <time>2022-08-01T07:22:03.000Z</time>
      </trkpt>
      <trkpt lat="42.93552" lon="1.21934">
        <ele>969.2</ele>
        <time>2022-08-01T07:22:09.000Z</time>
      </trkpt>
      <trkpt lat="42.93555" lon="1.21922">
        <ele>966.8</ele>
        <time>2022-08-01T07:22:16.000Z</time>
      </trkpt>
      <trkpt lat="42.93559" lon="1.21921">
        <ele>966.1</ele>
        <time>2022-08-01T07:22:21.000Z</time>
      </trkpt>
      <trkpt lat="42.93558" lon="1.21921">
        <ele>966.5</ele>
        <time>2022-08-01T07:22:22.000Z</time>
      </trkpt>
      <trkpt lat="42.93557" lon="1.21926">
        <ele>966.3</ele>
        <time>2022-08-01T07:22:33.000Z</time>
      </trkpt>
      <trkpt lat="42.93558" lon="1.21928">
        <ele>966</ele>
        <time>2022-08-01T07:22:35.000Z</time>
      </trkpt>
      <trkpt lat="42.93565" lon="1.21938">
        <ele>963.4</ele>
        <time>2022-08-01T07:22:41.000Z</time>
      </trkpt>
      <trkpt lat="42.93572" lon="1.21945">
        <ele>960.4</ele>
        <time>2022-08-01T07:22:48.000Z</time>
      </trkpt>
      <trkpt lat="42.93573" lon="1.21946">
        <ele>960.6</ele>
        <time>2022-08-01T07:22:50.000Z</time>
      </trkpt>
      <trkpt lat="42.93573" lon="1.21947">
        <ele>960.4</ele>
        <time>2022-08-01T07:22:54.000Z</time>
      </trkpt>
      <trkpt lat="42.93579" lon="1.21958">
        <ele>957.5</ele>
        <time>2022-08-01T07:23:04.000Z</time>
      </trkpt>
      <trkpt lat="42.93582" lon="1.2197">
        <ele>955.3</ele>
        <time>2022-08-01T07:23:11.000Z</time>
      </trkpt>
      <trkpt lat="42.93591" lon="1.21979">
        <ele>952.4</ele>
        <time>2022-08-01T07:23:16.000Z</time>
      </trkpt>
      <trkpt lat="42.936" lon="1.21975">
        <ele>948.9</ele>
        <time>2022-08-01T07:23:24.000Z</time>
      </trkpt>
      <trkpt lat="42.93602" lon="1.21962">
        <ele>947.2</ele>
        <time>2022-08-01T07:23:30.000Z</time>
      </trkpt>
      <trkpt lat="42.93601" lon="1.21961">
        <ele>946.6</ele>
        <time>2022-08-01T07:23:36.000Z</time>
      </trkpt>
      <trkpt lat="42.936" lon="1.2196">
        <ele>946.9</ele>
        <time>2022-08-01T07:23:51.000Z</time>
      </trkpt>
      <trkpt lat="42.93599" lon="1.2196">
        <ele>947.3</ele>
        <time>2022-08-01T07:24:50.000Z</time>
      </trkpt>
      <trkpt lat="42.93599" lon="1.21959">
        <ele>947.2</ele>
        <time>2022-08-01T07:24:59.000Z</time>
      </trkpt>
      <trkpt lat="42.93599" lon="1.21957">
        <ele>947.3</ele>
        <time>2022-08-01T07:25:05.000Z</time>
      </trkpt>
      <trkpt lat="42.93598" lon="1.21957">
        <ele>947.3</ele>
        <time>2022-08-01T07:25:16.000Z</time>
      </trkpt>
      <trkpt lat="42.93597" lon="1.21959">
        <ele>947.3</ele>
        <time>2022-08-01T07:25:21.000Z</time>
      </trkpt>
      <trkpt lat="42.93596" lon="1.21959">
        <ele>947.3</ele>
        <time>2022-08-01T07:25:23.000Z</time>
      </trkpt>
      <trkpt lat="42.93595" lon="1.21946">
        <ele>947.7</ele>
        <time>2022-08-01T07:25:33.000Z</time>
      </trkpt>
      <trkpt lat="42.93594" lon="1.21929">
        <ele>947.1</ele>
        <time>2022-08-01T07:25:38.000Z</time>
      </trkpt>
      <trkpt lat="42.93591" lon="1.21917">
        <ele>947.2</ele>
        <time>2022-08-01T07:25:41.000Z</time>
      </trkpt>
      <trkpt lat="42.93591" lon="1.21904">
        <ele>946.2</ele>
        <time>2022-08-01T07:25:45.000Z</time>
      </trkpt>
      <trkpt lat="42.93591" lon="1.21891">
        <ele>946.6</ele>
        <time>2022-08-01T07:25:48.000Z</time>
      </trkpt>
      <trkpt lat="42.93591" lon="1.21875">
        <ele>946.6</ele>
        <time>2022-08-01T07:25:52.000Z</time>
      </trkpt>
      <trkpt lat="42.93591" lon="1.21863">
        <ele>946.3</ele>
        <time>2022-08-01T07:25:56.000Z</time>
      </trkpt>
      <trkpt lat="42.9359" lon="1.21848">
        <ele>946.2</ele>
        <time>2022-08-01T07:25:59.000Z</time>
      </trkpt>
      <trkpt lat="42.93591" lon="1.21835">
        <ele>947</ele>
        <time>2022-08-01T07:26:02.000Z</time>
      </trkpt>
      <trkpt lat="42.93591" lon="1.21821">
        <ele>948.6</ele>
        <time>2022-08-01T07:26:06.000Z</time>
      </trkpt>
      <trkpt lat="42.93592" lon="1.21807">
        <ele>950.4</ele>
        <time>2022-08-01T07:26:10.000Z</time>
      </trkpt>
      <trkpt lat="42.93592" lon="1.21793">
        <ele>951.1</ele>
        <time>2022-08-01T07:26:14.000Z</time>
      </trkpt>
      <trkpt lat="42.93592" lon="1.21777">
        <ele>951.8</ele>
        <time>2022-08-01T07:26:18.000Z</time>
      </trkpt>
      <trkpt lat="42.93591" lon="1.21763">
        <ele>952.1</ele>
        <time>2022-08-01T07:26:21.000Z</time>
      </trkpt>
      <trkpt lat="42.93591" lon="1.2175">
        <ele>951.8</ele>
        <time>2022-08-01T07:26:24.000Z</time>
      </trkpt>
      <trkpt lat="42.93591" lon="1.21733">
        <ele>951.9</ele>
        <time>2022-08-01T07:26:28.000Z</time>
      </trkpt>
      <trkpt lat="42.93589" lon="1.21718">
        <ele>952.2</ele>
        <time>2022-08-01T07:26:31.000Z</time>
      </trkpt>
      <trkpt lat="42.93586" lon="1.21702">
        <ele>952.3</ele>
        <time>2022-08-01T07:26:34.000Z</time>
      </trkpt>
      <trkpt lat="42.93583" lon="1.21683">
        <ele>951.2</ele>
        <time>2022-08-01T07:26:37.000Z</time>
      </trkpt>
      <trkpt lat="42.93579" lon="1.2167">
        <ele>949.8</ele>
        <time>2022-08-01T07:26:39.000Z</time>
      </trkpt>
      <trkpt lat="42.93576" lon="1.21654">
        <ele>949.8</ele>
        <time>2022-08-01T07:26:42.000Z</time>
      </trkpt>
      <trkpt lat="42.93573" lon="1.21642">
        <ele>950.4</ele>
        <time>2022-08-01T07:26:45.000Z</time>
      </trkpt>
      <trkpt lat="42.93569" lon="1.21627">
        <ele>950.3</ele>
        <time>2022-08-01T07:26:48.000Z</time>
      </trkpt>
      <trkpt lat="42.93566" lon="1.21613">
        <ele>950.3</ele>
        <time>2022-08-01T07:26:51.000Z</time>
      </trkpt>
      <trkpt lat="42.93564" lon="1.21601">
        <ele>951.1</ele>
        <time>2022-08-01T07:26:54.000Z</time>
      </trkpt>
      <trkpt lat="42.93565" lon="1.21585">
        <ele>950.8</ele>
        <time>2022-08-01T07:26:58.000Z</time>
      </trkpt>
      <trkpt lat="42.93565" lon="1.21569">
        <ele>950.4</ele>
        <time>2022-08-01T07:27:01.000Z</time>
      </trkpt>
      <trkpt lat="42.93563" lon="1.21551">
        <ele>948.8</ele>
        <time>2022-08-01T07:27:04.000Z</time>
      </trkpt>
      <trkpt lat="42.93558" lon="1.21538">
        <ele>949.1</ele>
        <time>2022-08-01T07:27:06.000Z</time>
      </trkpt>
      <trkpt lat="42.93552" lon="1.21526">
        <ele>949.6</ele>
        <time>2022-08-01T07:27:08.000Z</time>
      </trkpt>
      <trkpt lat="42.93545" lon="1.21512">
        <ele>949.5</ele>
        <time>2022-08-01T07:27:11.000Z</time>
      </trkpt>
      <trkpt lat="42.93539" lon="1.21502">
        <ele>949.7</ele>
        <time>2022-08-01T07:27:14.000Z</time>
      </trkpt>
      <trkpt lat="42.93532" lon="1.21492">
        <ele>950</ele>
        <time>2022-08-01T07:27:17.000Z</time>
      </trkpt>
      <trkpt lat="42.93524" lon="1.21482">
        <ele>950.2</ele>
        <time>2022-08-01T07:27:20.000Z</time>
      </trkpt>
      <trkpt lat="42.93517" lon="1.21472">
        <ele>950.2</ele>
        <time>2022-08-01T07:27:23.000Z</time>
      </trkpt>
      <trkpt lat="42.9351" lon="1.21461">
        <ele>950.7</ele>
        <time>2022-08-01T07:27:26.000Z</time>
      </trkpt>
      <trkpt lat="42.93502" lon="1.21449">
        <ele>951</ele>
        <time>2022-08-01T07:27:30.000Z</time>
      </trkpt>
      <trkpt lat="42.93495" lon="1.21439">
        <ele>951</ele>
        <time>2022-08-01T07:27:33.000Z</time>
      </trkpt>
      <trkpt lat="42.93488" lon="1.21429">
        <ele>950.9</ele>
        <time>2022-08-01T07:27:36.000Z</time>
      </trkpt>
      <trkpt lat="42.93479" lon="1.21416">
        <ele>950.7</ele>
        <time>2022-08-01T07:27:39.000Z</time>
      </trkpt>
      <trkpt lat="42.93471" lon="1.21406">
        <ele>951.4</ele>
        <time>2022-08-01T07:27:42.000Z</time>
      </trkpt>
      <trkpt lat="42.93462" lon="1.214">
        <ele>952</ele>
        <time>2022-08-01T07:27:45.000Z</time>
      </trkpt>
      <trkpt lat="42.93453" lon="1.21394">
        <ele>953.4</ele>
        <time>2022-08-01T07:27:48.000Z</time>
      </trkpt>
      <trkpt lat="42.93446" lon="1.21387">
        <ele>954.5</ele>
        <time>2022-08-01T07:27:51.000Z</time>
      </trkpt>
      <trkpt lat="42.93438" lon="1.21376">
        <ele>954.4</ele>
        <time>2022-08-01T07:27:54.000Z</time>
      </trkpt>
      <trkpt lat="42.9343" lon="1.21366">
        <ele>953.8</ele>
        <time>2022-08-01T07:27:57.000Z</time>
      </trkpt>
      <trkpt lat="42.93421" lon="1.21351">
        <ele>952.8</ele>
        <time>2022-08-01T07:28:00.000Z</time>
      </trkpt>
      <trkpt lat="42.93415" lon="1.21338">
        <ele>953</ele>
        <time>2022-08-01T07:28:02.000Z</time>
      </trkpt>
      <trkpt lat="42.93409" lon="1.21327">
        <ele>953.1</ele>
        <time>2022-08-01T07:28:04.000Z</time>
      </trkpt>
      <trkpt lat="42.93402" lon="1.21314">
        <ele>953.6</ele>
        <time>2022-08-01T07:28:07.000Z</time>
      </trkpt>
      <trkpt lat="42.93395" lon="1.21304">
        <ele>953.6</ele>
        <time>2022-08-01T07:28:10.000Z</time>
      </trkpt>
      <trkpt lat="42.93386" lon="1.21292">
        <ele>953.4</ele>
        <time>2022-08-01T07:28:13.000Z</time>
      </trkpt>
      <trkpt lat="42.93378" lon="1.21278">
        <ele>952.8</ele>
        <time>2022-08-01T07:28:16.000Z</time>
      </trkpt>
      <trkpt lat="42.93371" lon="1.21267">
        <ele>952.8</ele>
        <time>2022-08-01T07:28:19.000Z</time>
      </trkpt>
      <trkpt lat="42.93363" lon="1.21257">
        <ele>951.9</ele>
        <time>2022-08-01T07:28:21.000Z</time>
      </trkpt>
      <trkpt lat="42.93354" lon="1.21246">
        <ele>951.1</ele>
        <time>2022-08-01T07:28:23.000Z</time>
      </trkpt>
      <trkpt lat="42.93347" lon="1.21235">
        <ele>950.8</ele>
        <time>2022-08-01T07:28:25.000Z</time>
      </trkpt>
      <trkpt lat="42.93338" lon="1.21221">
        <ele>951</ele>
        <time>2022-08-01T07:28:28.000Z</time>
      </trkpt>
      <trkpt lat="42.93333" lon="1.2121">
        <ele>950.6</ele>
        <time>2022-08-01T07:28:30.000Z</time>
      </trkpt>
      <trkpt lat="42.93328" lon="1.21199">
        <ele>950.2</ele>
        <time>2022-08-01T07:28:32.000Z</time>
      </trkpt>
      <trkpt lat="42.93324" lon="1.21187">
        <ele>949.7</ele>
        <time>2022-08-01T07:28:34.000Z</time>
      </trkpt>
      <trkpt lat="42.93319" lon="1.21176">
        <ele>950.5</ele>
        <time>2022-08-01T07:28:37.000Z</time>
      </trkpt>
      <trkpt lat="42.93315" lon="1.21161">
        <ele>950.3</ele>
        <time>2022-08-01T07:28:40.000Z</time>
      </trkpt>
      <trkpt lat="42.93311" lon="1.21146">
        <ele>949.7</ele>
        <time>2022-08-01T07:28:43.000Z</time>
      </trkpt>
      <trkpt lat="42.93307" lon="1.21133">
        <ele>950.2</ele>
        <time>2022-08-01T07:28:46.000Z</time>
      </trkpt>
      <trkpt lat="42.93304" lon="1.21122">
        <ele>951</ele>
        <time>2022-08-01T07:28:49.000Z</time>
      </trkpt>
      <trkpt lat="42.93298" lon="1.21111">
        <ele>952</ele>
        <time>2022-08-01T07:28:53.000Z</time>
      </trkpt>
      <trkpt lat="42.93294" lon="1.21097">
        <ele>952.7</ele>
        <time>2022-08-01T07:28:57.000Z</time>
      </trkpt>
      <trkpt lat="42.9329" lon="1.21084">
        <ele>953.2</ele>
        <time>2022-08-01T07:29:01.000Z</time>
      </trkpt>
      <trkpt lat="42.93285" lon="1.2107">
        <ele>952.9</ele>
        <time>2022-08-01T07:29:04.000Z</time>
      </trkpt>
      <trkpt lat="42.93279" lon="1.21056">
        <ele>952.9</ele>
        <time>2022-08-01T07:29:07.000Z</time>
      </trkpt>
      <trkpt lat="42.93273" lon="1.21043">
        <ele>952.7</ele>
        <time>2022-08-01T07:29:10.000Z</time>
      </trkpt>
      <trkpt lat="42.93267" lon="1.21033">
        <ele>952.6</ele>
        <time>2022-08-01T07:29:13.000Z</time>
      </trkpt>
      <trkpt lat="42.93262" lon="1.21021">
        <ele>952.9</ele>
        <time>2022-08-01T07:29:16.000Z</time>
      </trkpt>
      <trkpt lat="42.93255" lon="1.2101">
        <ele>952.5</ele>
        <time>2022-08-01T07:29:19.000Z</time>
      </trkpt>
      <trkpt lat="42.93246" lon="1.21">
        <ele>953.3</ele>
        <time>2022-08-01T07:29:23.000Z</time>
      </trkpt>
      <trkpt lat="42.93239" lon="1.2099">
        <ele>953.3</ele>
        <time>2022-08-01T07:29:26.000Z</time>
      </trkpt>
      <trkpt lat="42.93229" lon="1.20979">
        <ele>952.5</ele>
        <time>2022-08-01T07:29:29.000Z</time>
      </trkpt>
      <trkpt lat="42.93219" lon="1.20972">
        <ele>952.8</ele>
        <time>2022-08-01T07:29:32.000Z</time>
      </trkpt>
      <trkpt lat="42.9321" lon="1.20966">
        <ele>953.3</ele>
        <time>2022-08-01T07:29:35.000Z</time>
      </trkpt>
      <trkpt lat="42.93201" lon="1.20961">
        <ele>953.4</ele>
        <time>2022-08-01T07:29:38.000Z</time>
      </trkpt>
      <trkpt lat="42.9319" lon="1.20956">
        <ele>954</ele>
        <time>2022-08-01T07:29:42.000Z</time>
      </trkpt>
      <trkpt lat="42.93181" lon="1.20951">
        <ele>954.9</ele>
        <time>2022-08-01T07:29:46.000Z</time>
      </trkpt>
      <trkpt lat="42.93172" lon="1.20946">
        <ele>955.3</ele>
        <time>2022-08-01T07:29:49.000Z</time>
      </trkpt>
      <trkpt lat="42.93163" lon="1.20939">
        <ele>956.1</ele>
        <time>2022-08-01T07:29:53.000Z</time>
      </trkpt>
      <trkpt lat="42.93154" lon="1.20931">
        <ele>957</ele>
        <time>2022-08-01T07:29:57.000Z</time>
      </trkpt>
      <trkpt lat="42.93145" lon="1.20924">
        <ele>958.3</ele>
        <time>2022-08-01T07:30:01.000Z</time>
      </trkpt>
      <trkpt lat="42.93137" lon="1.20916">
        <ele>959.3</ele>
        <time>2022-08-01T07:30:04.000Z</time>
      </trkpt>
      <trkpt lat="42.9313" lon="1.20903">
        <ele>960.3</ele>
        <time>2022-08-01T07:30:08.000Z</time>
      </trkpt>
      <trkpt lat="42.93124" lon="1.20893">
        <ele>960.7</ele>
        <time>2022-08-01T07:30:11.000Z</time>
      </trkpt>
      <trkpt lat="42.93116" lon="1.2088">
        <ele>962.1</ele>
        <time>2022-08-01T07:30:15.000Z</time>
      </trkpt>
      <trkpt lat="42.93109" lon="1.20868">
        <ele>963.1</ele>
        <time>2022-08-01T07:30:19.000Z</time>
      </trkpt>
      <trkpt lat="42.93105" lon="1.20853">
        <ele>963.7</ele>
        <time>2022-08-01T07:30:23.000Z</time>
      </trkpt>
      <trkpt lat="42.93101" lon="1.20841">
        <ele>963.9</ele>
        <time>2022-08-01T07:30:26.000Z</time>
      </trkpt>
      <trkpt lat="42.93097" lon="1.20828">
        <ele>962.9</ele>
        <time>2022-08-01T07:30:30.000Z</time>
      </trkpt>
      <trkpt lat="42.93091" lon="1.20815">
        <ele>962.6</ele>
        <time>2022-08-01T07:30:33.000Z</time>
      </trkpt>
      <trkpt lat="42.93084" lon="1.20805">
        <ele>962.3</ele>
        <time>2022-08-01T07:30:35.000Z</time>
      </trkpt>
      <trkpt lat="42.93076" lon="1.20792">
        <ele>962.1</ele>
        <time>2022-08-01T07:30:38.000Z</time>
      </trkpt>
      <trkpt lat="42.9307" lon="1.20782">
        <ele>962.9</ele>
        <time>2022-08-01T07:30:41.000Z</time>
      </trkpt>
      <trkpt lat="42.93064" lon="1.20772">
        <ele>963</ele>
        <time>2022-08-01T07:30:44.000Z</time>
      </trkpt>
      <trkpt lat="42.93058" lon="1.20762">
        <ele>963.8</ele>
        <time>2022-08-01T07:30:47.000Z</time>
      </trkpt>
      <trkpt lat="42.93052" lon="1.20751">
        <ele>964.4</ele>
        <time>2022-08-01T07:30:50.000Z</time>
      </trkpt>
      <trkpt lat="42.93045" lon="1.20741">
        <ele>965.4</ele>
        <time>2022-08-01T07:30:55.000Z</time>
      </trkpt>
      <trkpt lat="42.93038" lon="1.20733">
        <ele>965.5</ele>
        <time>2022-08-01T07:30:59.000Z</time>
      </trkpt>
      <trkpt lat="42.93033" lon="1.20722">
        <ele>965.4</ele>
        <time>2022-08-01T07:31:02.000Z</time>
      </trkpt>
      <trkpt lat="42.93029" lon="1.2071">
        <ele>965.1</ele>
        <time>2022-08-01T07:31:05.000Z</time>
      </trkpt>
      <trkpt lat="42.9302" lon="1.20695">
        <ele>963.7</ele>
        <time>2022-08-01T07:31:08.000Z</time>
      </trkpt>
      <trkpt lat="42.93009" lon="1.20684">
        <ele>961.8</ele>
        <time>2022-08-01T07:31:10.000Z</time>
      </trkpt>
      <trkpt lat="42.92997" lon="1.20674">
        <ele>960.4</ele>
        <time>2022-08-01T07:31:12.000Z</time>
      </trkpt>
      <trkpt lat="42.92985" lon="1.20665">
        <ele>959.7</ele>
        <time>2022-08-01T07:31:14.000Z</time>
      </trkpt>
      <trkpt lat="42.92973" lon="1.20657">
        <ele>958</ele>
        <time>2022-08-01T07:31:16.000Z</time>
      </trkpt>
      <trkpt lat="42.92961" lon="1.20651">
        <ele>955.1</ele>
        <time>2022-08-01T07:31:18.000Z</time>
      </trkpt>
      <trkpt lat="42.9295" lon="1.20646">
        <ele>952.5</ele>
        <time>2022-08-01T07:31:20.000Z</time>
      </trkpt>
      <trkpt lat="42.92939" lon="1.20638">
        <ele>949.2</ele>
        <time>2022-08-01T07:31:23.000Z</time>
      </trkpt>
      <trkpt lat="42.92933" lon="1.20625">
        <ele>948.1</ele>
        <time>2022-08-01T07:31:25.000Z</time>
      </trkpt>
      <trkpt lat="42.92925" lon="1.2061">
        <ele>945.3</ele>
        <time>2022-08-01T07:31:27.000Z</time>
      </trkpt>
      <trkpt lat="42.92916" lon="1.20594">
        <ele>941.4</ele>
        <time>2022-08-01T07:31:29.000Z</time>
      </trkpt>
      <trkpt lat="42.92907" lon="1.2058">
        <ele>938.7</ele>
        <time>2022-08-01T07:31:31.000Z</time>
      </trkpt>
      <trkpt lat="42.92899" lon="1.20566">
        <ele>936</ele>
        <time>2022-08-01T07:31:33.000Z</time>
      </trkpt>
      <trkpt lat="42.92891" lon="1.20551">
        <ele>934.5</ele>
        <time>2022-08-01T07:31:35.000Z</time>
      </trkpt>
      <trkpt lat="42.92883" lon="1.20537">
        <ele>931.8</ele>
        <time>2022-08-01T07:31:37.000Z</time>
      </trkpt>
      <trkpt lat="42.92875" lon="1.20525">
        <ele>929.4</ele>
        <time>2022-08-01T07:31:39.000Z</time>
      </trkpt>
      <trkpt lat="42.92867" lon="1.20514">
        <ele>928.4</ele>
        <time>2022-08-01T07:31:41.000Z</time>
      </trkpt>
      <trkpt lat="42.9286" lon="1.20503">
        <ele>927</ele>
        <time>2022-08-01T07:31:43.000Z</time>
      </trkpt>
      <trkpt lat="42.92851" lon="1.2049">
        <ele>925.9</ele>
        <time>2022-08-01T07:31:45.000Z</time>
      </trkpt>
      <trkpt lat="42.92837" lon="1.20481">
        <ele>924</ele>
        <time>2022-08-01T07:31:47.000Z</time>
      </trkpt>
      <trkpt lat="42.92825" lon="1.20472">
        <ele>922.6</ele>
        <time>2022-08-01T07:31:49.000Z</time>
      </trkpt>
      <trkpt lat="42.92816" lon="1.20464">
        <ele>923.6</ele>
        <time>2022-08-01T07:31:51.000Z</time>
      </trkpt>
      <trkpt lat="42.92807" lon="1.20457">
        <ele>922.5</ele>
        <time>2022-08-01T07:31:53.000Z</time>
      </trkpt>
      <trkpt lat="42.92797" lon="1.20448">
        <ele>922.5</ele>
        <time>2022-08-01T07:31:56.000Z</time>
      </trkpt>
      <trkpt lat="42.92788" lon="1.2044">
        <ele>922.3</ele>
        <time>2022-08-01T07:31:59.000Z</time>
      </trkpt>
      <trkpt lat="42.92779" lon="1.20431">
        <ele>922</ele>
        <time>2022-08-01T07:32:02.000Z</time>
      </trkpt>
      <trkpt lat="42.92769" lon="1.20422">
        <ele>922.2</ele>
        <time>2022-08-01T07:32:05.000Z</time>
      </trkpt>
      <trkpt lat="42.9276" lon="1.20413">
        <ele>920.9</ele>
        <time>2022-08-01T07:32:08.000Z</time>
      </trkpt>
      <trkpt lat="42.92751" lon="1.20401">
        <ele>920.3</ele>
        <time>2022-08-01T07:32:11.000Z</time>
      </trkpt>
      <trkpt lat="42.92739" lon="1.20391">
        <ele>919.3</ele>
        <time>2022-08-01T07:32:14.000Z</time>
      </trkpt>
      <trkpt lat="42.92729" lon="1.20381">
        <ele>918.5</ele>
        <time>2022-08-01T07:32:16.000Z</time>
      </trkpt>
      <trkpt lat="42.9272" lon="1.20367">
        <ele>916.8</ele>
        <time>2022-08-01T07:32:18.000Z</time>
      </trkpt>
      <trkpt lat="42.92713" lon="1.20354">
        <ele>916.4</ele>
        <time>2022-08-01T07:32:20.000Z</time>
      </trkpt>
      <trkpt lat="42.92703" lon="1.20341">
        <ele>914.7</ele>
        <time>2022-08-01T07:32:22.000Z</time>
      </trkpt>
      <trkpt lat="42.92693" lon="1.2033">
        <ele>914.1</ele>
        <time>2022-08-01T07:32:24.000Z</time>
      </trkpt>
      <trkpt lat="42.92682" lon="1.20322">
        <ele>913</ele>
        <time>2022-08-01T07:32:26.000Z</time>
      </trkpt>
      <trkpt lat="42.92673" lon="1.20316">
        <ele>911.8</ele>
        <time>2022-08-01T07:32:28.000Z</time>
      </trkpt>
      <trkpt lat="42.92662" lon="1.20312">
        <ele>911.4</ele>
        <time>2022-08-01T07:32:32.000Z</time>
      </trkpt>
      <trkpt lat="42.92651" lon="1.20305">
        <ele>909.9</ele>
        <time>2022-08-01T07:32:36.000Z</time>
      </trkpt>
      <trkpt lat="42.92641" lon="1.203">
        <ele>908.7</ele>
        <time>2022-08-01T07:32:39.000Z</time>
      </trkpt>
      <trkpt lat="42.9263" lon="1.20298">
        <ele>906.6</ele>
        <time>2022-08-01T07:32:42.000Z</time>
      </trkpt>
      <trkpt lat="42.9262" lon="1.20306">
        <ele>906.2</ele>
        <time>2022-08-01T07:32:45.000Z</time>
      </trkpt>
      <trkpt lat="42.92608" lon="1.20313">
        <ele>905.4</ele>
        <time>2022-08-01T07:32:48.000Z</time>
      </trkpt>
      <trkpt lat="42.92599" lon="1.20317">
        <ele>905</ele>
        <time>2022-08-01T07:32:50.000Z</time>
      </trkpt>
      <trkpt lat="42.92589" lon="1.20321">
        <ele>904.4</ele>
        <time>2022-08-01T07:32:53.000Z</time>
      </trkpt>
      <trkpt lat="42.9258" lon="1.20324">
        <ele>902.9</ele>
        <time>2022-08-01T07:32:56.000Z</time>
      </trkpt>
      <trkpt lat="42.9257" lon="1.20326">
        <ele>901.2</ele>
        <time>2022-08-01T07:32:59.000Z</time>
      </trkpt>
      <trkpt lat="42.9256" lon="1.20328">
        <ele>900.1</ele>
        <time>2022-08-01T07:33:01.000Z</time>
      </trkpt>
      <trkpt lat="42.9255" lon="1.2033">
        <ele>898.6</ele>
        <time>2022-08-01T07:33:03.000Z</time>
      </trkpt>
      <trkpt lat="42.92541" lon="1.2033">
        <ele>897.7</ele>
        <time>2022-08-01T07:33:05.000Z</time>
      </trkpt>
      <trkpt lat="42.9253" lon="1.20329">
        <ele>895</ele>
        <time>2022-08-01T07:33:08.000Z</time>
      </trkpt>
      <trkpt lat="42.9252" lon="1.20327">
        <ele>893.9</ele>
        <time>2022-08-01T07:33:13.000Z</time>
      </trkpt>
      <trkpt lat="42.92511" lon="1.2033">
        <ele>891.4</ele>
        <time>2022-08-01T07:33:17.000Z</time>
      </trkpt>
      <trkpt lat="42.92501" lon="1.20335">
        <ele>888.8</ele>
        <time>2022-08-01T07:33:20.000Z</time>
      </trkpt>
      <trkpt lat="42.92492" lon="1.20343">
        <ele>885.9</ele>
        <time>2022-08-01T07:33:23.000Z</time>
      </trkpt>
      <trkpt lat="42.92479" lon="1.20347">
        <ele>884.6</ele>
        <time>2022-08-01T07:33:25.000Z</time>
      </trkpt>
      <trkpt lat="42.92465" lon="1.20355">
        <ele>881.1</ele>
        <time>2022-08-01T07:33:27.000Z</time>
      </trkpt>
      <trkpt lat="42.92454" lon="1.20364">
        <ele>877.5</ele>
        <time>2022-08-01T07:33:29.000Z</time>
      </trkpt>
      <trkpt lat="42.9244" lon="1.20361">
        <ele>874.4</ele>
        <time>2022-08-01T07:33:31.000Z</time>
      </trkpt>
      <trkpt lat="42.92431" lon="1.20351">
        <ele>872.1</ele>
        <time>2022-08-01T07:33:33.000Z</time>
      </trkpt>
      <trkpt lat="42.92421" lon="1.20333">
        <ele>871.4</ele>
        <time>2022-08-01T07:33:35.000Z</time>
      </trkpt>
      <trkpt lat="42.92417" lon="1.20314">
        <ele>869.8</ele>
        <time>2022-08-01T07:33:37.000Z</time>
      </trkpt>
      <trkpt lat="42.92416" lon="1.20292">
        <ele>868.4</ele>
        <time>2022-08-01T07:33:39.000Z</time>
      </trkpt>
      <trkpt lat="42.92416" lon="1.2028">
        <ele>868.5</ele>
        <time>2022-08-01T07:33:40.000Z</time>
      </trkpt>
      <trkpt lat="42.92418" lon="1.20259">
        <ele>867.3</ele>
        <time>2022-08-01T07:33:42.000Z</time>
      </trkpt>
      <trkpt lat="42.92421" lon="1.20241">
        <ele>866.9</ele>
        <time>2022-08-01T07:33:44.000Z</time>
      </trkpt>
      <trkpt lat="42.92424" lon="1.20228">
        <ele>866</ele>
        <time>2022-08-01T07:33:46.000Z</time>
      </trkpt>
      <trkpt lat="42.92425" lon="1.20213">
        <ele>864.6</ele>
        <time>2022-08-01T07:33:48.000Z</time>
      </trkpt>
      <trkpt lat="42.92426" lon="1.20199">
        <ele>864.2</ele>
        <time>2022-08-01T07:33:50.000Z</time>
      </trkpt>
      <trkpt lat="42.92424" lon="1.20183">
        <ele>864.1</ele>
        <time>2022-08-01T07:33:52.000Z</time>
      </trkpt>
      <trkpt lat="42.92416" lon="1.20168">
        <ele>862.4</ele>
        <time>2022-08-01T07:33:54.000Z</time>
      </trkpt>
      <trkpt lat="42.9241" lon="1.20152">
        <ele>859.4</ele>
        <time>2022-08-01T07:33:56.000Z</time>
      </trkpt>
      <trkpt lat="42.9241" lon="1.20136">
        <ele>856.7</ele>
        <time>2022-08-01T07:33:58.000Z</time>
      </trkpt>
      <trkpt lat="42.92418" lon="1.20123">
        <ele>855.7</ele>
        <time>2022-08-01T07:34:00.000Z</time>
      </trkpt>
      <trkpt lat="42.92428" lon="1.20113">
        <ele>855.7</ele>
        <time>2022-08-01T07:34:02.000Z</time>
      </trkpt>
      <trkpt lat="42.92437" lon="1.20104">
        <ele>855.6</ele>
        <time>2022-08-01T07:34:04.000Z</time>
      </trkpt>
      <trkpt lat="42.92445" lon="1.20096">
        <ele>855.3</ele>
        <time>2022-08-01T07:34:06.000Z</time>
      </trkpt>
      <trkpt lat="42.92451" lon="1.20088">
        <ele>855.3</ele>
        <time>2022-08-01T07:34:08.000Z</time>
      </trkpt>
      <trkpt lat="42.92462" lon="1.20077">
        <ele>855</ele>
        <time>2022-08-01T07:34:11.000Z</time>
      </trkpt>
      <trkpt lat="42.92472" lon="1.20067">
        <ele>856.2</ele>
        <time>2022-08-01T07:34:14.000Z</time>
      </trkpt>
      <trkpt lat="42.92481" lon="1.20057">
        <ele>857.6</ele>
        <time>2022-08-01T07:34:17.000Z</time>
      </trkpt>
      <trkpt lat="42.92488" lon="1.20046">
        <ele>858</ele>
        <time>2022-08-01T07:34:20.000Z</time>
      </trkpt>
      <trkpt lat="42.92495" lon="1.20036">
        <ele>858.3</ele>
        <time>2022-08-01T07:34:23.000Z</time>
      </trkpt>
      <trkpt lat="42.92502" lon="1.20024">
        <ele>858</ele>
        <time>2022-08-01T07:34:27.000Z</time>
      </trkpt>
      <trkpt lat="42.92511" lon="1.20012">
        <ele>856.5</ele>
        <time>2022-08-01T07:34:30.000Z</time>
      </trkpt>
      <trkpt lat="42.92518" lon="1.20002">
        <ele>855</ele>
        <time>2022-08-01T07:34:32.000Z</time>
      </trkpt>
      <trkpt lat="42.92527" lon="1.19992">
        <ele>854.1</ele>
        <time>2022-08-01T07:34:34.000Z</time>
      </trkpt>
      <trkpt lat="42.92536" lon="1.19983">
        <ele>852.8</ele>
        <time>2022-08-01T07:34:36.000Z</time>
      </trkpt>
      <trkpt lat="42.92541" lon="1.1997">
        <ele>850.7</ele>
        <time>2022-08-01T07:34:38.000Z</time>
      </trkpt>
      <trkpt lat="42.92539" lon="1.19953">
        <ele>850.6</ele>
        <time>2022-08-01T07:34:40.000Z</time>
      </trkpt>
      <trkpt lat="42.92535" lon="1.19934">
        <ele>850.3</ele>
        <time>2022-08-01T07:34:42.000Z</time>
      </trkpt>
      <trkpt lat="42.9253" lon="1.19918">
        <ele>846.5</ele>
        <time>2022-08-01T07:34:44.000Z</time>
      </trkpt>
      <trkpt lat="42.92524" lon="1.19904">
        <ele>845.4</ele>
        <time>2022-08-01T07:34:46.000Z</time>
      </trkpt>
      <trkpt lat="42.92517" lon="1.1989">
        <ele>843.3</ele>
        <time>2022-08-01T07:34:48.000Z</time>
      </trkpt>
      <trkpt lat="42.92511" lon="1.19878">
        <ele>841.2</ele>
        <time>2022-08-01T07:34:50.000Z</time>
      </trkpt>
      <trkpt lat="42.92507" lon="1.19864">
        <ele>839.6</ele>
        <time>2022-08-01T07:34:52.000Z</time>
      </trkpt>
      <trkpt lat="42.92505" lon="1.19848">
        <ele>838.5</ele>
        <time>2022-08-01T07:34:54.000Z</time>
      </trkpt>
      <trkpt lat="42.92504" lon="1.19831">
        <ele>837.6</ele>
        <time>2022-08-01T07:34:56.000Z</time>
      </trkpt>
      <trkpt lat="42.92504" lon="1.19815">
        <ele>836.1</ele>
        <time>2022-08-01T07:34:58.000Z</time>
      </trkpt>
      <trkpt lat="42.92508" lon="1.19796">
        <ele>834.4</ele>
        <time>2022-08-01T07:35:00.000Z</time>
      </trkpt>
      <trkpt lat="42.92514" lon="1.19779">
        <ele>832.1</ele>
        <time>2022-08-01T07:35:02.000Z</time>
      </trkpt>
      <trkpt lat="42.92521" lon="1.19765">
        <ele>831</ele>
        <time>2022-08-01T07:35:04.000Z</time>
      </trkpt>
      <trkpt lat="42.9253" lon="1.19753">
        <ele>829.3</ele>
        <time>2022-08-01T07:35:06.000Z</time>
      </trkpt>
      <trkpt lat="42.92536" lon="1.19741">
        <ele>827.5</ele>
        <time>2022-08-01T07:35:08.000Z</time>
      </trkpt>
      <trkpt lat="42.92539" lon="1.19729">
        <ele>827.3</ele>
        <time>2022-08-01T07:35:10.000Z</time>
      </trkpt>
      <trkpt lat="42.92537" lon="1.19715">
        <ele>825.8</ele>
        <time>2022-08-01T07:35:12.000Z</time>
      </trkpt>
      <trkpt lat="42.92535" lon="1.19699">
        <ele>824.2</ele>
        <time>2022-08-01T07:35:14.000Z</time>
      </trkpt>
      <trkpt lat="42.92535" lon="1.19682">
        <ele>822.4</ele>
        <time>2022-08-01T07:35:16.000Z</time>
      </trkpt>
      <trkpt lat="42.92534" lon="1.19667">
        <ele>820</ele>
        <time>2022-08-01T07:35:18.000Z</time>
      </trkpt>
      <trkpt lat="42.9253" lon="1.19656">
        <ele>819.1</ele>
        <time>2022-08-01T07:35:20.000Z</time>
      </trkpt>
      <trkpt lat="42.92523" lon="1.19647">
        <ele>817.9</ele>
        <time>2022-08-01T07:35:22.000Z</time>
      </trkpt>
      <trkpt lat="42.92517" lon="1.19635">
        <ele>817</ele>
        <time>2022-08-01T07:35:24.000Z</time>
      </trkpt>
      <trkpt lat="42.92517" lon="1.19619">
        <ele>817.1</ele>
        <time>2022-08-01T07:35:26.000Z</time>
      </trkpt>
      <trkpt lat="42.92521" lon="1.19603">
        <ele>814.8</ele>
        <time>2022-08-01T07:35:28.000Z</time>
      </trkpt>
      <trkpt lat="42.92523" lon="1.1959">
        <ele>813.5</ele>
        <time>2022-08-01T07:35:30.000Z</time>
      </trkpt>
      <trkpt lat="42.92522" lon="1.19577">
        <ele>812.5</ele>
        <time>2022-08-01T07:35:32.000Z</time>
      </trkpt>
      <trkpt lat="42.9252" lon="1.19561">
        <ele>811.2</ele>
        <time>2022-08-01T07:35:35.000Z</time>
      </trkpt>
      <trkpt lat="42.92517" lon="1.19553">
        <ele>809.8</ele>
        <time>2022-08-01T07:35:40.000Z</time>
      </trkpt>
      <trkpt lat="42.92517" lon="1.19554">
        <ele>809.8</ele>
        <time>2022-08-01T07:35:44.000Z</time>
      </trkpt>
      <trkpt lat="42.92517" lon="1.19555">
        <ele>809.6</ele>
        <time>2022-08-01T07:38:19.000Z</time>
      </trkpt>
      <trkpt lat="42.92517" lon="1.19554">
        <ele>812.4</ele>
        <time>2022-08-01T07:41:52.000Z</time>
      </trkpt>
      <trkpt lat="42.92518" lon="1.19554">
        <ele>812.9</ele>
        <time>2022-08-01T07:44:55.000Z</time>
      </trkpt>
      <trkpt lat="42.92522" lon="1.1954">
        <ele>811.8</ele>
        <time>2022-08-01T07:45:38.000Z</time>
      </trkpt>
      <trkpt lat="42.92524" lon="1.19524">
        <ele>811.7</ele>
        <time>2022-08-01T07:45:41.000Z</time>
      </trkpt>
      <trkpt lat="42.92528" lon="1.1951">
        <ele>810</ele>
        <time>2022-08-01T07:45:43.000Z</time>
      </trkpt>
      <trkpt lat="42.92533" lon="1.19493">
        <ele>808.9</ele>
        <time>2022-08-01T07:45:45.000Z</time>
      </trkpt>
      <trkpt lat="42.92538" lon="1.19476">
        <ele>807.4</ele>
        <time>2022-08-01T07:45:47.000Z</time>
      </trkpt>
      <trkpt lat="42.92545" lon="1.1946">
        <ele>806.4</ele>
        <time>2022-08-01T07:45:49.000Z</time>
      </trkpt>
      <trkpt lat="42.92553" lon="1.1944">
        <ele>804.9</ele>
        <time>2022-08-01T07:45:51.000Z</time>
      </trkpt>
      <trkpt lat="42.92559" lon="1.19418">
        <ele>804</ele>
        <time>2022-08-01T07:45:53.000Z</time>
      </trkpt>
      <trkpt lat="42.92565" lon="1.19396">
        <ele>803.6</ele>
        <time>2022-08-01T07:45:55.000Z</time>
      </trkpt>
      <trkpt lat="42.92571" lon="1.19375">
        <ele>803.3</ele>
        <time>2022-08-01T07:45:57.000Z</time>
      </trkpt>
      <trkpt lat="42.92576" lon="1.19354">
        <ele>802.5</ele>
        <time>2022-08-01T07:45:59.000Z</time>
      </trkpt>
      <trkpt lat="42.92581" lon="1.19337">
        <ele>802.5</ele>
        <time>2022-08-01T07:46:01.000Z</time>
      </trkpt>
      <trkpt lat="42.92588" lon="1.19323">
        <ele>803</ele>
        <time>2022-08-01T07:46:03.000Z</time>
      </trkpt>
      <trkpt lat="42.92594" lon="1.19314">
        <ele>803.8</ele>
        <time>2022-08-01T07:46:05.000Z</time>
      </trkpt>
      <trkpt lat="42.92603" lon="1.19302">
        <ele>804.5</ele>
        <time>2022-08-01T07:46:08.000Z</time>
      </trkpt>
      <trkpt lat="42.92612" lon="1.19293">
        <ele>805</ele>
        <time>2022-08-01T07:46:11.000Z</time>
      </trkpt>
      <trkpt lat="42.92622" lon="1.19286">
        <ele>805.9</ele>
        <time>2022-08-01T07:46:15.000Z</time>
      </trkpt>
      <trkpt lat="42.9263" lon="1.19281">
        <ele>806.4</ele>
        <time>2022-08-01T07:46:18.000Z</time>
      </trkpt>
      <trkpt lat="42.92639" lon="1.19276">
        <ele>806.9</ele>
        <time>2022-08-01T07:46:21.000Z</time>
      </trkpt>
      <trkpt lat="42.92649" lon="1.19274">
        <ele>807.7</ele>
        <time>2022-08-01T07:46:24.000Z</time>
      </trkpt>
      <trkpt lat="42.92659" lon="1.19275">
        <ele>808.4</ele>
        <time>2022-08-01T07:46:27.000Z</time>
      </trkpt>
      <trkpt lat="42.92669" lon="1.19279">
        <ele>809.2</ele>
        <time>2022-08-01T07:46:30.000Z</time>
      </trkpt>
      <trkpt lat="42.92677" lon="1.19284">
        <ele>810.1</ele>
        <time>2022-08-01T07:46:33.000Z</time>
      </trkpt>
      <trkpt lat="42.92686" lon="1.1929">
        <ele>810.8</ele>
        <time>2022-08-01T07:46:36.000Z</time>
      </trkpt>
      <trkpt lat="42.92693" lon="1.19298">
        <ele>811</ele>
        <time>2022-08-01T07:46:39.000Z</time>
      </trkpt>
      <trkpt lat="42.92701" lon="1.19306">
        <ele>811.3</ele>
        <time>2022-08-01T07:46:42.000Z</time>
      </trkpt>
      <trkpt lat="42.9271" lon="1.19313">
        <ele>811.8</ele>
        <time>2022-08-01T07:46:45.000Z</time>
      </trkpt>
      <trkpt lat="42.92718" lon="1.1932">
        <ele>812.3</ele>
        <time>2022-08-01T07:46:48.000Z</time>
      </trkpt>
      <trkpt lat="42.92727" lon="1.19328">
        <ele>813.1</ele>
        <time>2022-08-01T07:46:51.000Z</time>
      </trkpt>
      <trkpt lat="42.92738" lon="1.19333">
        <ele>813.2</ele>
        <time>2022-08-01T07:46:54.000Z</time>
      </trkpt>
      <trkpt lat="42.92749" lon="1.19336">
        <ele>813.8</ele>
        <time>2022-08-01T07:46:57.000Z</time>
      </trkpt>
      <trkpt lat="42.9276" lon="1.19336">
        <ele>814.4</ele>
        <time>2022-08-01T07:47:00.000Z</time>
      </trkpt>
      <trkpt lat="42.92772" lon="1.19337">
        <ele>814</ele>
        <time>2022-08-01T07:47:03.000Z</time>
      </trkpt>
      <trkpt lat="42.92783" lon="1.19339">
        <ele>814.7</ele>
        <time>2022-08-01T07:47:06.000Z</time>
      </trkpt>
      <trkpt lat="42.92794" lon="1.19341">
        <ele>815</ele>
        <time>2022-08-01T07:47:09.000Z</time>
      </trkpt>
      <trkpt lat="42.92804" lon="1.19342">
        <ele>815.8</ele>
        <time>2022-08-01T07:47:12.000Z</time>
      </trkpt>
      <trkpt lat="42.92814" lon="1.19344">
        <ele>816.2</ele>
        <time>2022-08-01T07:47:15.000Z</time>
      </trkpt>
      <trkpt lat="42.92825" lon="1.19346">
        <ele>816.7</ele>
        <time>2022-08-01T07:47:18.000Z</time>
      </trkpt>
      <trkpt lat="42.92835" lon="1.19347">
        <ele>817</ele>
        <time>2022-08-01T07:47:21.000Z</time>
      </trkpt>
      <trkpt lat="42.92845" lon="1.19349">
        <ele>817.3</ele>
        <time>2022-08-01T07:47:24.000Z</time>
      </trkpt>
      <trkpt lat="42.92855" lon="1.19351">
        <ele>818.1</ele>
        <time>2022-08-01T07:47:27.000Z</time>
      </trkpt>
      <trkpt lat="42.92865" lon="1.19355">
        <ele>818.7</ele>
        <time>2022-08-01T07:47:30.000Z</time>
      </trkpt>
      <trkpt lat="42.92875" lon="1.19359">
        <ele>819</ele>
        <time>2022-08-01T07:47:33.000Z</time>
      </trkpt>
      <trkpt lat="42.92884" lon="1.19364">
        <ele>819.3</ele>
        <time>2022-08-01T07:47:36.000Z</time>
      </trkpt>
      <trkpt lat="42.92893" lon="1.1937">
        <ele>820.9</ele>
        <time>2022-08-01T07:47:39.000Z</time>
      </trkpt>
      <trkpt lat="42.92902" lon="1.19376">
        <ele>821.5</ele>
        <time>2022-08-01T07:47:42.000Z</time>
      </trkpt>
      <trkpt lat="42.92911" lon="1.19381">
        <ele>822.7</ele>
        <time>2022-08-01T07:47:45.000Z</time>
      </trkpt>
      <trkpt lat="42.9292" lon="1.19384">
        <ele>822.5</ele>
        <time>2022-08-01T07:47:48.000Z</time>
      </trkpt>
      <trkpt lat="42.9293" lon="1.19387">
        <ele>822.8</ele>
        <time>2022-08-01T07:47:51.000Z</time>
      </trkpt>
      <trkpt lat="42.92939" lon="1.19389">
        <ele>824.2</ele>
        <time>2022-08-01T07:47:54.000Z</time>
      </trkpt>
      <trkpt lat="42.92948" lon="1.19391">
        <ele>824.7</ele>
        <time>2022-08-01T07:47:57.000Z</time>
      </trkpt>
      <trkpt lat="42.92958" lon="1.19392">
        <ele>825.9</ele>
        <time>2022-08-01T07:48:00.000Z</time>
      </trkpt>
      <trkpt lat="42.92968" lon="1.19394">
        <ele>826.6</ele>
        <time>2022-08-01T07:48:03.000Z</time>
      </trkpt>
      <trkpt lat="42.92978" lon="1.19395">
        <ele>826.5</ele>
        <time>2022-08-01T07:48:06.000Z</time>
      </trkpt>
      <trkpt lat="42.92987" lon="1.19398">
        <ele>828</ele>
        <time>2022-08-01T07:48:09.000Z</time>
      </trkpt>
      <trkpt lat="42.92997" lon="1.19401">
        <ele>828.3</ele>
        <time>2022-08-01T07:48:12.000Z</time>
      </trkpt>
      <trkpt lat="42.93006" lon="1.19405">
        <ele>828.9</ele>
        <time>2022-08-01T07:48:15.000Z</time>
      </trkpt>
      <trkpt lat="42.93017" lon="1.1941">
        <ele>829.6</ele>
        <time>2022-08-01T07:48:18.000Z</time>
      </trkpt>
      <trkpt lat="42.93027" lon="1.19414">
        <ele>830.3</ele>
        <time>2022-08-01T07:48:21.000Z</time>
      </trkpt>
      <trkpt lat="42.93038" lon="1.19417">
        <ele>830.2</ele>
        <time>2022-08-01T07:48:24.000Z</time>
      </trkpt>
      <trkpt lat="42.93049" lon="1.19421">
        <ele>830.5</ele>
        <time>2022-08-01T07:48:27.000Z</time>
      </trkpt>
      <trkpt lat="42.9306" lon="1.19426">
        <ele>829.6</ele>
        <time>2022-08-01T07:48:30.000Z</time>
      </trkpt>
      <trkpt lat="42.93072" lon="1.19429">
        <ele>829.9</ele>
        <time>2022-08-01T07:48:33.000Z</time>
      </trkpt>
      <trkpt lat="42.93081" lon="1.19432">
        <ele>829.5</ele>
        <time>2022-08-01T07:48:35.000Z</time>
      </trkpt>
      <trkpt lat="42.9309" lon="1.19436">
        <ele>829.3</ele>
        <time>2022-08-01T07:48:37.000Z</time>
      </trkpt>
      <trkpt lat="42.931" lon="1.19441">
        <ele>828.5</ele>
        <time>2022-08-01T07:48:39.000Z</time>
      </trkpt>
      <trkpt lat="42.9311" lon="1.19448">
        <ele>827.6</ele>
        <time>2022-08-01T07:48:41.000Z</time>
      </trkpt>
      <trkpt lat="42.93118" lon="1.19459">
        <ele>827.6</ele>
        <time>2022-08-01T07:48:43.000Z</time>
      </trkpt>
      <trkpt lat="42.93123" lon="1.19475">
        <ele>827</ele>
        <time>2022-08-01T07:48:45.000Z</time>
      </trkpt>
      <trkpt lat="42.93128" lon="1.19498">
        <ele>824.9</ele>
        <time>2022-08-01T07:48:47.000Z</time>
      </trkpt>
      <trkpt lat="42.93131" lon="1.1951">
        <ele>823.7</ele>
        <time>2022-08-01T07:48:48.000Z</time>
      </trkpt>
      <trkpt lat="42.93136" lon="1.19534">
        <ele>821.9</ele>
        <time>2022-08-01T07:48:50.000Z</time>
      </trkpt>
      <trkpt lat="42.93138" lon="1.19547">
        <ele>821.1</ele>
        <time>2022-08-01T07:48:51.000Z</time>
      </trkpt>
      <trkpt lat="42.93139" lon="1.1956">
        <ele>821</ele>
        <time>2022-08-01T07:48:52.000Z</time>
      </trkpt>
      <trkpt lat="42.9314" lon="1.19573">
        <ele>819.8</ele>
        <time>2022-08-01T07:48:53.000Z</time>
      </trkpt>
      <trkpt lat="42.9314" lon="1.19597">
        <ele>819.2</ele>
        <time>2022-08-01T07:48:55.000Z</time>
      </trkpt>
      <trkpt lat="42.93147" lon="1.19617">
        <ele>817.4</ele>
        <time>2022-08-01T07:48:57.000Z</time>
      </trkpt>
      <trkpt lat="42.93158" lon="1.19631">
        <ele>815.8</ele>
        <time>2022-08-01T07:48:59.000Z</time>
      </trkpt>
      <trkpt lat="42.93167" lon="1.19646">
        <ele>815.8</ele>
        <time>2022-08-01T07:49:01.000Z</time>
      </trkpt>
      <trkpt lat="42.9317" lon="1.19664">
        <ele>814.2</ele>
        <time>2022-08-01T07:49:03.000Z</time>
      </trkpt>
      <trkpt lat="42.93168" lon="1.19683">
        <ele>813.7</ele>
        <time>2022-08-01T07:49:05.000Z</time>
      </trkpt>
      <trkpt lat="42.9317" lon="1.19703">
        <ele>813.9</ele>
        <time>2022-08-01T07:49:07.000Z</time>
      </trkpt>
      <trkpt lat="42.93174" lon="1.19722">
        <ele>812.6</ele>
        <time>2022-08-01T07:49:09.000Z</time>
      </trkpt>
      <trkpt lat="42.93179" lon="1.1974">
        <ele>812.8</ele>
        <time>2022-08-01T07:49:11.000Z</time>
      </trkpt>
      <trkpt lat="42.93182" lon="1.19758">
        <ele>812.2</ele>
        <time>2022-08-01T07:49:13.000Z</time>
      </trkpt>
      <trkpt lat="42.93182" lon="1.19778">
        <ele>811.7</ele>
        <time>2022-08-01T07:49:15.000Z</time>
      </trkpt>
      <trkpt lat="42.93186" lon="1.19795">
        <ele>811.1</ele>
        <time>2022-08-01T07:49:17.000Z</time>
      </trkpt>
      <trkpt lat="42.93193" lon="1.19808">
        <ele>810.7</ele>
        <time>2022-08-01T07:49:19.000Z</time>
      </trkpt>
      <trkpt lat="42.932" lon="1.19817">
        <ele>811.1</ele>
        <time>2022-08-01T07:49:21.000Z</time>
      </trkpt>
      <trkpt lat="42.93207" lon="1.19825">
        <ele>811.2</ele>
        <time>2022-08-01T07:49:23.000Z</time>
      </trkpt>
      <trkpt lat="42.93213" lon="1.19841">
        <ele>811.3</ele>
        <time>2022-08-01T07:49:26.000Z</time>
      </trkpt>
      <trkpt lat="42.93216" lon="1.19858">
        <ele>812.3</ele>
        <time>2022-08-01T07:49:29.000Z</time>
      </trkpt>
      <trkpt lat="42.9322" lon="1.19874">
        <ele>813</ele>
        <time>2022-08-01T07:49:32.000Z</time>
      </trkpt>
      <trkpt lat="42.93228" lon="1.19887">
        <ele>814.8</ele>
        <time>2022-08-01T07:49:35.000Z</time>
      </trkpt>
      <trkpt lat="42.93239" lon="1.19896">
        <ele>816.1</ele>
        <time>2022-08-01T07:49:38.000Z</time>
      </trkpt>
      <trkpt lat="42.93247" lon="1.19906">
        <ele>817.6</ele>
        <time>2022-08-01T07:49:41.000Z</time>
      </trkpt>
      <trkpt lat="42.9325" lon="1.19922">
        <ele>818.4</ele>
        <time>2022-08-01T07:49:44.000Z</time>
      </trkpt>
      <trkpt lat="42.93247" lon="1.19937">
        <ele>819.7</ele>
        <time>2022-08-01T07:49:47.000Z</time>
      </trkpt>
      <trkpt lat="42.93241" lon="1.19951">
        <ele>820.6</ele>
        <time>2022-08-01T07:49:50.000Z</time>
      </trkpt>
      <trkpt lat="42.93234" lon="1.19966">
        <ele>820.8</ele>
        <time>2022-08-01T07:49:53.000Z</time>
      </trkpt>
      <trkpt lat="42.9323" lon="1.19981">
        <ele>821.2</ele>
        <time>2022-08-01T07:49:56.000Z</time>
      </trkpt>
      <trkpt lat="42.93227" lon="1.19996">
        <ele>822.4</ele>
        <time>2022-08-01T07:49:59.000Z</time>
      </trkpt>
      <trkpt lat="42.93224" lon="1.20012">
        <ele>822.9</ele>
        <time>2022-08-01T07:50:02.000Z</time>
      </trkpt>
      <trkpt lat="42.93222" lon="1.20027">
        <ele>823.7</ele>
        <time>2022-08-01T07:50:05.000Z</time>
      </trkpt>
      <trkpt lat="42.93221" lon="1.20042">
        <ele>824.1</ele>
        <time>2022-08-01T07:50:08.000Z</time>
      </trkpt>
      <trkpt lat="42.93219" lon="1.20054">
        <ele>824.1</ele>
        <time>2022-08-01T07:50:11.000Z</time>
      </trkpt>
      <trkpt lat="42.93219" lon="1.20069">
        <ele>825.2</ele>
        <time>2022-08-01T07:50:15.000Z</time>
      </trkpt>
      <trkpt lat="42.93223" lon="1.20084">
        <ele>826.3</ele>
        <time>2022-08-01T07:50:18.000Z</time>
      </trkpt>
      <trkpt lat="42.93228" lon="1.20096">
        <ele>827.7</ele>
        <time>2022-08-01T07:50:22.000Z</time>
      </trkpt>
      <trkpt lat="42.93234" lon="1.20108">
        <ele>829.1</ele>
        <time>2022-08-01T07:50:26.000Z</time>
      </trkpt>
      <trkpt lat="42.93241" lon="1.20119">
        <ele>829.2</ele>
        <time>2022-08-01T07:50:30.000Z</time>
      </trkpt>
      <trkpt lat="42.93246" lon="1.20133">
        <ele>830.6</ele>
        <time>2022-08-01T07:50:34.000Z</time>
      </trkpt>
      <trkpt lat="42.93251" lon="1.20144">
        <ele>830.8</ele>
        <time>2022-08-01T07:50:37.000Z</time>
      </trkpt>
      <trkpt lat="42.93257" lon="1.20154">
        <ele>831.1</ele>
        <time>2022-08-01T07:50:40.000Z</time>
      </trkpt>
      <trkpt lat="42.93264" lon="1.20166">
        <ele>832.1</ele>
        <time>2022-08-01T07:50:44.000Z</time>
      </trkpt>
      <trkpt lat="42.93271" lon="1.20175">
        <ele>832.4</ele>
        <time>2022-08-01T07:50:47.000Z</time>
      </trkpt>
      <trkpt lat="42.93279" lon="1.20184">
        <ele>832.2</ele>
        <time>2022-08-01T07:50:50.000Z</time>
      </trkpt>
      <trkpt lat="42.93286" lon="1.20193">
        <ele>832.4</ele>
        <time>2022-08-01T07:50:54.000Z</time>
      </trkpt>
      <trkpt lat="42.93287" lon="1.20194">
        <ele>832.4</ele>
        <time>2022-08-01T07:50:57.000Z</time>
      </trkpt>
      <trkpt lat="42.93286" lon="1.20194">
        <ele>832.2</ele>
        <time>2022-08-01T07:51:04.000Z</time>
      </trkpt>
      <trkpt lat="42.93286" lon="1.20195">
        <ele>831.8</ele>
        <time>2022-08-01T07:51:39.000Z</time>
      </trkpt>
      <trkpt lat="42.93291" lon="1.20207">
        <ele>831.9</ele>
        <time>2022-08-01T07:51:46.000Z</time>
      </trkpt>
      <trkpt lat="42.93295" lon="1.20219">
        <ele>830.3</ele>
        <time>2022-08-01T07:51:52.000Z</time>
      </trkpt>
      <trkpt lat="42.93296" lon="1.20224">
        <ele>831</ele>
        <time>2022-08-01T07:51:59.000Z</time>
      </trkpt>
      <trkpt lat="42.93297" lon="1.20224">
        <ele>831.6</ele>
        <time>2022-08-01T07:52:34.000Z</time>
      </trkpt>
      <trkpt lat="42.93298" lon="1.20224">
        <ele>831.9</ele>
        <time>2022-08-01T07:53:12.000Z</time>
      </trkpt>
      <trkpt lat="42.93297" lon="1.20224">
        <ele>832.2</ele>
        <time>2022-08-01T07:53:20.000Z</time>
      </trkpt>
      <trkpt lat="42.93297" lon="1.20224">
        <ele>831.8</ele>
        <time>2022-08-01T07:57:45.000Z</time>
      </trkpt>
      <trkpt lat="42.93297" lon="1.20225">
        <ele>831.8</ele>
        <time>2022-08-01T07:58:35.000Z</time>
      </trkpt>
      <trkpt lat="42.93299" lon="1.20238">
        <ele>832.5</ele>
        <time>2022-08-01T07:58:46.000Z</time>
      </trkpt>
      <trkpt lat="42.93302" lon="1.20252">
        <ele>832.7</ele>
        <time>2022-08-01T07:58:51.000Z</time>
      </trkpt>
      <trkpt lat="42.93308" lon="1.20262">
        <ele>832.8</ele>
        <time>2022-08-01T07:58:56.000Z</time>
      </trkpt>
      <trkpt lat="42.93316" lon="1.20273">
        <ele>833.2</ele>
        <time>2022-08-01T07:59:01.000Z</time>
      </trkpt>
      <trkpt lat="42.93323" lon="1.20284">
        <ele>833.1</ele>
        <time>2022-08-01T07:59:04.000Z</time>
      </trkpt>
      <trkpt lat="42.9333" lon="1.20295">
        <ele>833.5</ele>
        <time>2022-08-01T07:59:07.000Z</time>
      </trkpt>
      <trkpt lat="42.93333" lon="1.20306">
        <ele>833.2</ele>
        <time>2022-08-01T07:59:10.000Z</time>
      </trkpt>
      <trkpt lat="42.93337" lon="1.20319">
        <ele>833.9</ele>
        <time>2022-08-01T07:59:13.000Z</time>
      </trkpt>
      <trkpt lat="42.9334" lon="1.20331">
        <ele>833.5</ele>
        <time>2022-08-01T07:59:16.000Z</time>
      </trkpt>
      <trkpt lat="42.93342" lon="1.20344">
        <ele>833.5</ele>
        <time>2022-08-01T07:59:19.000Z</time>
      </trkpt>
      <trkpt lat="42.93345" lon="1.20356">
        <ele>833.7</ele>
        <time>2022-08-01T07:59:22.000Z</time>
      </trkpt>
      <trkpt lat="42.93347" lon="1.20369">
        <ele>834.2</ele>
        <time>2022-08-01T07:59:25.000Z</time>
      </trkpt>
      <trkpt lat="42.93349" lon="1.20381">
        <ele>834.1</ele>
        <time>2022-08-01T07:59:28.000Z</time>
      </trkpt>
      <trkpt lat="42.93352" lon="1.20394">
        <ele>834.4</ele>
        <time>2022-08-01T07:59:31.000Z</time>
      </trkpt>
      <trkpt lat="42.93356" lon="1.20408">
        <ele>835.1</ele>
        <time>2022-08-01T07:59:34.000Z</time>
      </trkpt>
      <trkpt lat="42.9336" lon="1.2042">
        <ele>835.1</ele>
        <time>2022-08-01T07:59:37.000Z</time>
      </trkpt>
      <trkpt lat="42.93365" lon="1.20432">
        <ele>834.9</ele>
        <time>2022-08-01T07:59:40.000Z</time>
      </trkpt>
      <trkpt lat="42.93372" lon="1.20441">
        <ele>835</ele>
        <time>2022-08-01T07:59:43.000Z</time>
      </trkpt>
      <trkpt lat="42.9338" lon="1.20449">
        <ele>835.5</ele>
        <time>2022-08-01T07:59:46.000Z</time>
      </trkpt>
      <trkpt lat="42.93388" lon="1.20456">
        <ele>836</ele>
        <time>2022-08-01T07:59:49.000Z</time>
      </trkpt>
      <trkpt lat="42.93397" lon="1.20461">
        <ele>835.6</ele>
        <time>2022-08-01T07:59:52.000Z</time>
      </trkpt>
      <trkpt lat="42.93407" lon="1.20464">
        <ele>836.3</ele>
        <time>2022-08-01T07:59:55.000Z</time>
      </trkpt>
      <trkpt lat="42.93418" lon="1.20467">
        <ele>836.1</ele>
        <time>2022-08-01T07:59:58.000Z</time>
      </trkpt>
      <trkpt lat="42.93428" lon="1.20471">
        <ele>836.1</ele>
        <time>2022-08-01T08:00:01.000Z</time>
      </trkpt>
      <trkpt lat="42.93438" lon="1.20474">
        <ele>835.6</ele>
        <time>2022-08-01T08:00:04.000Z</time>
      </trkpt>
      <trkpt lat="42.93448" lon="1.20477">
        <ele>836.5</ele>
        <time>2022-08-01T08:00:07.000Z</time>
      </trkpt>
      <trkpt lat="42.93458" lon="1.20481">
        <ele>836.7</ele>
        <time>2022-08-01T08:00:10.000Z</time>
      </trkpt>
      <trkpt lat="42.93469" lon="1.20488">
        <ele>836.3</ele>
        <time>2022-08-01T08:00:13.000Z</time>
      </trkpt>
      <trkpt lat="42.93479" lon="1.20498">
        <ele>836.2</ele>
        <time>2022-08-01T08:00:16.000Z</time>
      </trkpt>
      <trkpt lat="42.93488" lon="1.20511">
        <ele>835.7</ele>
        <time>2022-08-01T08:00:19.000Z</time>
      </trkpt>
      <trkpt lat="42.93495" lon="1.2052">
        <ele>835.8</ele>
        <time>2022-08-01T08:00:21.000Z</time>
      </trkpt>
      <trkpt lat="42.93502" lon="1.20535">
        <ele>834.8</ele>
        <time>2022-08-01T08:00:24.000Z</time>
      </trkpt>
      <trkpt lat="42.93501" lon="1.20551">
        <ele>834</ele>
        <time>2022-08-01T08:00:27.000Z</time>
      </trkpt>
      <trkpt lat="42.93496" lon="1.20566">
        <ele>833.6</ele>
        <time>2022-08-01T08:00:30.000Z</time>
      </trkpt>
      <trkpt lat="42.93493" lon="1.20578">
        <ele>833.4</ele>
        <time>2022-08-01T08:00:32.000Z</time>
      </trkpt>
      <trkpt lat="42.9349" lon="1.20591">
        <ele>832.9</ele>
        <time>2022-08-01T08:00:34.000Z</time>
      </trkpt>
      <trkpt lat="42.93487" lon="1.20604">
        <ele>832.5</ele>
        <time>2022-08-01T08:00:36.000Z</time>
      </trkpt>
      <trkpt lat="42.93483" lon="1.20618">
        <ele>832.2</ele>
        <time>2022-08-01T08:00:38.000Z</time>
      </trkpt>
      <trkpt lat="42.93476" lon="1.2063">
        <ele>832.5</ele>
        <time>2022-08-01T08:00:40.000Z</time>
      </trkpt>
      <trkpt lat="42.93467" lon="1.2064">
        <ele>831.7</ele>
        <time>2022-08-01T08:00:42.000Z</time>
      </trkpt>
      <trkpt lat="42.93457" lon="1.20646">
        <ele>831.1</ele>
        <time>2022-08-01T08:00:44.000Z</time>
      </trkpt>
      <trkpt lat="42.93447" lon="1.20655">
        <ele>830.8</ele>
        <time>2022-08-01T08:00:46.000Z</time>
      </trkpt>
      <trkpt lat="42.93438" lon="1.20664">
        <ele>830.8</ele>
        <time>2022-08-01T08:00:48.000Z</time>
      </trkpt>
      <trkpt lat="42.9343" lon="1.20675">
        <ele>830.5</ele>
        <time>2022-08-01T08:00:50.000Z</time>
      </trkpt>
      <trkpt lat="42.93422" lon="1.20686">
        <ele>830.6</ele>
        <time>2022-08-01T08:00:52.000Z</time>
      </trkpt>
      <trkpt lat="42.93414" lon="1.20696">
        <ele>829.7</ele>
        <time>2022-08-01T08:00:54.000Z</time>
      </trkpt>
      <trkpt lat="42.93406" lon="1.20709">
        <ele>828.9</ele>
        <time>2022-08-01T08:00:56.000Z</time>
      </trkpt>
      <trkpt lat="42.93403" lon="1.20723">
        <ele>827.9</ele>
        <time>2022-08-01T08:00:58.000Z</time>
      </trkpt>
      <trkpt lat="42.93409" lon="1.20735">
        <ele>827.5</ele>
        <time>2022-08-01T08:01:00.000Z</time>
      </trkpt>
      <trkpt lat="42.93421" lon="1.20743">
        <ele>827.3</ele>
        <time>2022-08-01T08:01:02.000Z</time>
      </trkpt>
      <trkpt lat="42.93433" lon="1.2075">
        <ele>825.9</ele>
        <time>2022-08-01T08:01:04.000Z</time>
      </trkpt>
      <trkpt lat="42.93446" lon="1.20761">
        <ele>825.3</ele>
        <time>2022-08-01T08:01:06.000Z</time>
      </trkpt>
      <trkpt lat="42.93459" lon="1.20775">
        <ele>824.7</ele>
        <time>2022-08-01T08:01:08.000Z</time>
      </trkpt>
      <trkpt lat="42.93471" lon="1.20792">
        <ele>825</ele>
        <time>2022-08-01T08:01:10.000Z</time>
      </trkpt>
      <trkpt lat="42.93481" lon="1.2081">
        <ele>823.3</ele>
        <time>2022-08-01T08:01:12.000Z</time>
      </trkpt>
      <trkpt lat="42.93491" lon="1.20828">
        <ele>822.9</ele>
        <time>2022-08-01T08:01:14.000Z</time>
      </trkpt>
      <trkpt lat="42.935" lon="1.20844">
        <ele>820.9</ele>
        <time>2022-08-01T08:01:16.000Z</time>
      </trkpt>
      <trkpt lat="42.93506" lon="1.20861">
        <ele>820.5</ele>
        <time>2022-08-01T08:01:18.000Z</time>
      </trkpt>
      <trkpt lat="42.93508" lon="1.2088">
        <ele>820.8</ele>
        <time>2022-08-01T08:01:20.000Z</time>
      </trkpt>
      <trkpt lat="42.93508" lon="1.20898">
        <ele>819.8</ele>
        <time>2022-08-01T08:01:22.000Z</time>
      </trkpt>
      <trkpt lat="42.93512" lon="1.20913">
        <ele>818.4</ele>
        <time>2022-08-01T08:01:24.000Z</time>
      </trkpt>
      <trkpt lat="42.93518" lon="1.2093">
        <ele>818.4</ele>
        <time>2022-08-01T08:01:26.000Z</time>
      </trkpt>
      <trkpt lat="42.93522" lon="1.20946">
        <ele>818.5</ele>
        <time>2022-08-01T08:01:28.000Z</time>
      </trkpt>
      <trkpt lat="42.93528" lon="1.20957">
        <ele>818.5</ele>
        <time>2022-08-01T08:01:30.000Z</time>
      </trkpt>
      <trkpt lat="42.9354" lon="1.20957">
        <ele>818.6</ele>
        <time>2022-08-01T08:01:32.000Z</time>
      </trkpt>
      <trkpt lat="42.93551" lon="1.20949">
        <ele>816.9</ele>
        <time>2022-08-01T08:01:34.000Z</time>
      </trkpt>
      <trkpt lat="42.93564" lon="1.20943">
        <ele>816.9</ele>
        <time>2022-08-01T08:01:36.000Z</time>
      </trkpt>
      <trkpt lat="42.93577" lon="1.20939">
        <ele>816.2</ele>
        <time>2022-08-01T08:01:38.000Z</time>
      </trkpt>
      <trkpt lat="42.9359" lon="1.20938">
        <ele>815.3</ele>
        <time>2022-08-01T08:01:40.000Z</time>
      </trkpt>
      <trkpt lat="42.93604" lon="1.2094">
        <ele>814.1</ele>
        <time>2022-08-01T08:01:42.000Z</time>
      </trkpt>
      <trkpt lat="42.93616" lon="1.20943">
        <ele>814.1</ele>
        <time>2022-08-01T08:01:44.000Z</time>
      </trkpt>
      <trkpt lat="42.93629" lon="1.20946">
        <ele>813.9</ele>
        <time>2022-08-01T08:01:46.000Z</time>
      </trkpt>
      <trkpt lat="42.93642" lon="1.2095">
        <ele>812.6</ele>
        <time>2022-08-01T08:01:48.000Z</time>
      </trkpt>
      <trkpt lat="42.93653" lon="1.20956">
        <ele>812.5</ele>
        <time>2022-08-01T08:01:50.000Z</time>
      </trkpt>
      <trkpt lat="42.93664" lon="1.20965">
        <ele>812.7</ele>
        <time>2022-08-01T08:01:52.000Z</time>
      </trkpt>
      <trkpt lat="42.93674" lon="1.20977">
        <ele>812.5</ele>
        <time>2022-08-01T08:01:54.000Z</time>
      </trkpt>
      <trkpt lat="42.93685" lon="1.20992">
        <ele>812.2</ele>
        <time>2022-08-01T08:01:56.000Z</time>
      </trkpt>
      <trkpt lat="42.93693" lon="1.21005">
        <ele>811.3</ele>
        <time>2022-08-01T08:01:58.000Z</time>
      </trkpt>
      <trkpt lat="42.93699" lon="1.2102">
        <ele>811.5</ele>
        <time>2022-08-01T08:02:00.000Z</time>
      </trkpt>
      <trkpt lat="42.93698" lon="1.21038">
        <ele>811.7</ele>
        <time>2022-08-01T08:02:02.000Z</time>
      </trkpt>
      <trkpt lat="42.93693" lon="1.21052">
        <ele>810.7</ele>
        <time>2022-08-01T08:02:04.000Z</time>
      </trkpt>
      <trkpt lat="42.93685" lon="1.21063">
        <ele>810.5</ele>
        <time>2022-08-01T08:02:06.000Z</time>
      </trkpt>
      <trkpt lat="42.93675" lon="1.21072">
        <ele>810.6</ele>
        <time>2022-08-01T08:02:08.000Z</time>
      </trkpt>
      <trkpt lat="42.93668" lon="1.21081">
        <ele>810.8</ele>
        <time>2022-08-01T08:02:10.000Z</time>
      </trkpt>
      <trkpt lat="42.93663" lon="1.21092">
        <ele>809.6</ele>
        <time>2022-08-01T08:02:12.000Z</time>
      </trkpt>
      <trkpt lat="42.93662" lon="1.21106">
        <ele>809.7</ele>
        <time>2022-08-01T08:02:14.000Z</time>
      </trkpt>
      <trkpt lat="42.93666" lon="1.2112">
        <ele>809.1</ele>
        <time>2022-08-01T08:02:16.000Z</time>
      </trkpt>
      <trkpt lat="42.93671" lon="1.21131">
        <ele>808.7</ele>
        <time>2022-08-01T08:02:18.000Z</time>
      </trkpt>
      <trkpt lat="42.93679" lon="1.2114">
        <ele>808.3</ele>
        <time>2022-08-01T08:02:20.000Z</time>
      </trkpt>
      <trkpt lat="42.93687" lon="1.2115">
        <ele>808.3</ele>
        <time>2022-08-01T08:02:22.000Z</time>
      </trkpt>
      <trkpt lat="42.93693" lon="1.21163">
        <ele>808.4</ele>
        <time>2022-08-01T08:02:24.000Z</time>
      </trkpt>
      <trkpt lat="42.937" lon="1.21176">
        <ele>808.5</ele>
        <time>2022-08-01T08:02:26.000Z</time>
      </trkpt>
      <trkpt lat="42.93708" lon="1.21186">
        <ele>808.3</ele>
        <time>2022-08-01T08:02:28.000Z</time>
      </trkpt>
      <trkpt lat="42.93717" lon="1.21195">
        <ele>808.2</ele>
        <time>2022-08-01T08:02:30.000Z</time>
      </trkpt>
      <trkpt lat="42.93726" lon="1.21201">
        <ele>808.5</ele>
        <time>2022-08-01T08:02:32.000Z</time>
      </trkpt>
      <trkpt lat="42.93738" lon="1.21209">
        <ele>808.4</ele>
        <time>2022-08-01T08:02:35.000Z</time>
      </trkpt>
      <trkpt lat="42.93747" lon="1.21214">
        <ele>808.6</ele>
        <time>2022-08-01T08:02:37.000Z</time>
      </trkpt>
      <trkpt lat="42.93756" lon="1.21224">
        <ele>809.1</ele>
        <time>2022-08-01T08:02:40.000Z</time>
      </trkpt>
      <trkpt lat="42.93764" lon="1.21233">
        <ele>809</ele>
        <time>2022-08-01T08:02:43.000Z</time>
      </trkpt>
      <trkpt lat="42.93772" lon="1.21244">
        <ele>809.2</ele>
        <time>2022-08-01T08:02:46.000Z</time>
      </trkpt>
      <trkpt lat="42.93782" lon="1.21256">
        <ele>810.1</ele>
        <time>2022-08-01T08:02:49.000Z</time>
      </trkpt>
      <trkpt lat="42.93789" lon="1.21268">
        <ele>809.9</ele>
        <time>2022-08-01T08:02:52.000Z</time>
      </trkpt>
      <trkpt lat="42.93796" lon="1.21279">
        <ele>810.5</ele>
        <time>2022-08-01T08:02:55.000Z</time>
      </trkpt>
      <trkpt lat="42.93802" lon="1.21292">
        <ele>810.9</ele>
        <time>2022-08-01T08:02:58.000Z</time>
      </trkpt>
      <trkpt lat="42.93807" lon="1.21306">
        <ele>811.1</ele>
        <time>2022-08-01T08:03:01.000Z</time>
      </trkpt>
      <trkpt lat="42.93811" lon="1.21319">
        <ele>811.4</ele>
        <time>2022-08-01T08:03:04.000Z</time>
      </trkpt>
      <trkpt lat="42.93814" lon="1.21333">
        <ele>812</ele>
        <time>2022-08-01T08:03:07.000Z</time>
      </trkpt>
      <trkpt lat="42.93818" lon="1.21348">
        <ele>812.2</ele>
        <time>2022-08-01T08:03:10.000Z</time>
      </trkpt>
      <trkpt lat="42.93823" lon="1.21362">
        <ele>812.6</ele>
        <time>2022-08-01T08:03:13.000Z</time>
      </trkpt>
      <trkpt lat="42.93826" lon="1.21379">
        <ele>813</ele>
        <time>2022-08-01T08:03:16.000Z</time>
      </trkpt>
      <trkpt lat="42.93825" lon="1.21395">
        <ele>813.8</ele>
        <time>2022-08-01T08:03:19.000Z</time>
      </trkpt>
      <trkpt lat="42.93825" lon="1.21412">
        <ele>813.6</ele>
        <time>2022-08-01T08:03:22.000Z</time>
      </trkpt>
      <trkpt lat="42.93821" lon="1.21427">
        <ele>813.7</ele>
        <time>2022-08-01T08:03:25.000Z</time>
      </trkpt>
      <trkpt lat="42.93814" lon="1.2144">
        <ele>814.6</ele>
        <time>2022-08-01T08:03:28.000Z</time>
      </trkpt>
      <trkpt lat="42.93809" lon="1.21454">
        <ele>814.1</ele>
        <time>2022-08-01T08:03:31.000Z</time>
      </trkpt>
      <trkpt lat="42.93804" lon="1.21468">
        <ele>815.3</ele>
        <time>2022-08-01T08:03:34.000Z</time>
      </trkpt>
      <trkpt lat="42.938" lon="1.21483">
        <ele>815</ele>
        <time>2022-08-01T08:03:37.000Z</time>
      </trkpt>
      <trkpt lat="42.938" lon="1.215">
        <ele>815.4</ele>
        <time>2022-08-01T08:03:40.000Z</time>
      </trkpt>
      <trkpt lat="42.93804" lon="1.21514">
        <ele>815.4</ele>
        <time>2022-08-01T08:03:43.000Z</time>
      </trkpt>
      <trkpt lat="42.93812" lon="1.21526">
        <ele>816.1</ele>
        <time>2022-08-01T08:03:46.000Z</time>
      </trkpt>
      <trkpt lat="42.93816" lon="1.21542">
        <ele>816.3</ele>
        <time>2022-08-01T08:03:49.000Z</time>
      </trkpt>
      <trkpt lat="42.93818" lon="1.21558">
        <ele>816.7</ele>
        <time>2022-08-01T08:03:52.000Z</time>
      </trkpt>
      <trkpt lat="42.93818" lon="1.21574">
        <ele>817</ele>
        <time>2022-08-01T08:03:55.000Z</time>
      </trkpt>
      <trkpt lat="42.9382" lon="1.2159">
        <ele>817.4</ele>
        <time>2022-08-01T08:03:58.000Z</time>
      </trkpt>
      <trkpt lat="42.93821" lon="1.21605">
        <ele>817.1</ele>
        <time>2022-08-01T08:04:01.000Z</time>
      </trkpt>
      <trkpt lat="42.93822" lon="1.21619">
        <ele>818.4</ele>
        <time>2022-08-01T08:04:04.000Z</time>
      </trkpt>
      <trkpt lat="42.93823" lon="1.21633">
        <ele>818.8</ele>
        <time>2022-08-01T08:04:07.000Z</time>
      </trkpt>
      <trkpt lat="42.93824" lon="1.21647">
        <ele>819.4</ele>
        <time>2022-08-01T08:04:10.000Z</time>
      </trkpt>
      <trkpt lat="42.93824" lon="1.21661">
        <ele>819.4</ele>
        <time>2022-08-01T08:04:13.000Z</time>
      </trkpt>
      <trkpt lat="42.93824" lon="1.21676">
        <ele>820.1</ele>
        <time>2022-08-01T08:04:16.000Z</time>
      </trkpt>
      <trkpt lat="42.93825" lon="1.21691">
        <ele>820.5</ele>
        <time>2022-08-01T08:04:19.000Z</time>
      </trkpt>
      <trkpt lat="42.93825" lon="1.21705">
        <ele>821</ele>
        <time>2022-08-01T08:04:22.000Z</time>
      </trkpt>
      <trkpt lat="42.93824" lon="1.21719">
        <ele>820.7</ele>
        <time>2022-08-01T08:04:25.000Z</time>
      </trkpt>
      <trkpt lat="42.93824" lon="1.21733">
        <ele>821.1</ele>
        <time>2022-08-01T08:04:28.000Z</time>
      </trkpt>
      <trkpt lat="42.93823" lon="1.21749">
        <ele>821.4</ele>
        <time>2022-08-01T08:04:31.000Z</time>
      </trkpt>
      <trkpt lat="42.93825" lon="1.21764">
        <ele>821.5</ele>
        <time>2022-08-01T08:04:34.000Z</time>
      </trkpt>
      <trkpt lat="42.93829" lon="1.21777">
        <ele>822.2</ele>
        <time>2022-08-01T08:04:37.000Z</time>
      </trkpt>
      <trkpt lat="42.93832" lon="1.21792">
        <ele>822.3</ele>
        <time>2022-08-01T08:04:40.000Z</time>
      </trkpt>
      <trkpt lat="42.93833" lon="1.21806">
        <ele>823</ele>
        <time>2022-08-01T08:04:43.000Z</time>
      </trkpt>
      <trkpt lat="42.93835" lon="1.2182">
        <ele>823.2</ele>
        <time>2022-08-01T08:04:46.000Z</time>
      </trkpt>
      <trkpt lat="42.93837" lon="1.21833">
        <ele>824.1</ele>
        <time>2022-08-01T08:04:49.000Z</time>
      </trkpt>
      <trkpt lat="42.93841" lon="1.21846">
        <ele>823.2</ele>
        <time>2022-08-01T08:04:52.000Z</time>
      </trkpt>
      <trkpt lat="42.93844" lon="1.21859">
        <ele>824.2</ele>
        <time>2022-08-01T08:04:55.000Z</time>
      </trkpt>
      <trkpt lat="42.93849" lon="1.21876">
        <ele>824.8</ele>
        <time>2022-08-01T08:04:58.000Z</time>
      </trkpt>
      <trkpt lat="42.93853" lon="1.21892">
        <ele>825</ele>
        <time>2022-08-01T08:05:01.000Z</time>
      </trkpt>
      <trkpt lat="42.93859" lon="1.21903">
        <ele>825.5</ele>
        <time>2022-08-01T08:05:04.000Z</time>
      </trkpt>
      <trkpt lat="42.93866" lon="1.21912">
        <ele>825.2</ele>
        <time>2022-08-01T08:05:09.000Z</time>
      </trkpt>
      <trkpt lat="42.93874" lon="1.21918">
        <ele>825.2</ele>
        <time>2022-08-01T08:05:18.000Z</time>
      </trkpt>
      <trkpt lat="42.93877" lon="1.21915">
        <ele>825.1</ele>
        <time>2022-08-01T08:05:37.000Z</time>
      </trkpt>
      <trkpt lat="42.93878" lon="1.21915">
        <ele>825.6</ele>
        <time>2022-08-01T08:06:21.000Z</time>
      </trkpt>
      <trkpt lat="42.93878" lon="1.21914">
        <ele>825.8</ele>
        <time>2022-08-01T08:06:23.000Z</time>
      </trkpt>
      <trkpt lat="42.93878" lon="1.21915">
        <ele>825.7</ele>
        <time>2022-08-01T08:06:42.000Z</time>
      </trkpt>
      <trkpt lat="42.93877" lon="1.21915">
        <ele>825.9</ele>
        <time>2022-08-01T08:06:49.000Z</time>
      </trkpt>
      <trkpt lat="42.93878" lon="1.21915">
        <ele>825.7</ele>
        <time>2022-08-01T08:07:09.000Z</time>
      </trkpt>
      <trkpt lat="42.93878" lon="1.21914">
        <ele>825.6</ele>
        <time>2022-08-01T08:07:12.000Z</time>
      </trkpt>
      <trkpt lat="42.93883" lon="1.21926">
        <ele>825.9</ele>
        <time>2022-08-01T08:07:44.000Z</time>
      </trkpt>
      <trkpt lat="42.9389" lon="1.21936">
        <ele>826.1</ele>
        <time>2022-08-01T08:07:49.000Z</time>
      </trkpt>
      <trkpt lat="42.93898" lon="1.21949">
        <ele>826.7</ele>
        <time>2022-08-01T08:07:53.000Z</time>
      </trkpt>
      <trkpt lat="42.93904" lon="1.21958">
        <ele>827</ele>
        <time>2022-08-01T08:07:56.000Z</time>
      </trkpt>
      <trkpt lat="42.93911" lon="1.21968">
        <ele>827.2</ele>
        <time>2022-08-01T08:07:59.000Z</time>
      </trkpt>
      <trkpt lat="42.93919" lon="1.21971">
        <ele>827.3</ele>
        <time>2022-08-01T08:08:02.000Z</time>
      </trkpt>
      <trkpt lat="42.93931" lon="1.21966">
        <ele>827.9</ele>
        <time>2022-08-01T08:08:06.000Z</time>
      </trkpt>
      <trkpt lat="42.93937" lon="1.21955">
        <ele>827.8</ele>
        <time>2022-08-01T08:08:09.000Z</time>
      </trkpt>
      <trkpt lat="42.93942" lon="1.21943">
        <ele>828.2</ele>
        <time>2022-08-01T08:08:12.000Z</time>
      </trkpt>
      <trkpt lat="42.93949" lon="1.21932">
        <ele>828.3</ele>
        <time>2022-08-01T08:08:15.000Z</time>
      </trkpt>
      <trkpt lat="42.93955" lon="1.21923">
        <ele>829.2</ele>
        <time>2022-08-01T08:08:18.000Z</time>
      </trkpt>
      <trkpt lat="42.93962" lon="1.21914">
        <ele>828.9</ele>
        <time>2022-08-01T08:08:21.000Z</time>
      </trkpt>
      <trkpt lat="42.93971" lon="1.21905">
        <ele>829.6</ele>
        <time>2022-08-01T08:08:25.000Z</time>
      </trkpt>
      <trkpt lat="42.93979" lon="1.21897">
        <ele>829.9</ele>
        <time>2022-08-01T08:08:28.000Z</time>
      </trkpt>
      <trkpt lat="42.93989" lon="1.21892">
        <ele>829.9</ele>
        <time>2022-08-01T08:08:31.000Z</time>
      </trkpt>
      <trkpt lat="42.93999" lon="1.2189">
        <ele>829.9</ele>
        <time>2022-08-01T08:08:34.000Z</time>
      </trkpt>
      <trkpt lat="42.94009" lon="1.2189">
        <ele>830.7</ele>
        <time>2022-08-01T08:08:38.000Z</time>
      </trkpt>
      <trkpt lat="42.94002" lon="1.219">
        <ele>831.1</ele>
        <time>2022-08-01T08:08:45.000Z</time>
      </trkpt>
      <trkpt lat="42.93993" lon="1.219">
        <ele>832.5</ele>
        <time>2022-08-01T08:08:48.000Z</time>
      </trkpt>
      <trkpt lat="42.93984" lon="1.21903">
        <ele>833.4</ele>
        <time>2022-08-01T08:08:51.000Z</time>
      </trkpt>
      <trkpt lat="42.93974" lon="1.21913">
        <ele>834.2</ele>
        <time>2022-08-01T08:08:55.000Z</time>
      </trkpt>
      <trkpt lat="42.93968" lon="1.21923">
        <ele>835.3</ele>
        <time>2022-08-01T08:08:59.000Z</time>
      </trkpt>
      <trkpt lat="42.93961" lon="1.21936">
        <ele>837</ele>
        <time>2022-08-01T08:09:04.000Z</time>
      </trkpt>
      <trkpt lat="42.93956" lon="1.21949">
        <ele>837.8</ele>
        <time>2022-08-01T08:09:08.000Z</time>
      </trkpt>
      <trkpt lat="42.93951" lon="1.21961">
        <ele>839.3</ele>
        <time>2022-08-01T08:09:12.000Z</time>
      </trkpt>
      <trkpt lat="42.93945" lon="1.21974">
        <ele>840.1</ele>
        <time>2022-08-01T08:09:17.000Z</time>
      </trkpt>
      <trkpt lat="42.9394" lon="1.21984">
        <ele>841.4</ele>
        <time>2022-08-01T08:09:21.000Z</time>
      </trkpt>
      <trkpt lat="42.93935" lon="1.21998">
        <ele>842.7</ele>
        <time>2022-08-01T08:09:26.000Z</time>
      </trkpt>
      <trkpt lat="42.9393" lon="1.22011">
        <ele>843.6</ele>
        <time>2022-08-01T08:09:31.000Z</time>
      </trkpt>
      <trkpt lat="42.93925" lon="1.22021">
        <ele>844.9</ele>
        <time>2022-08-01T08:09:35.000Z</time>
      </trkpt>
      <trkpt lat="42.93918" lon="1.22032">
        <ele>846.6</ele>
        <time>2022-08-01T08:09:40.000Z</time>
      </trkpt>
      <trkpt lat="42.93912" lon="1.22043">
        <ele>848</ele>
        <time>2022-08-01T08:09:45.000Z</time>
      </trkpt>
      <trkpt lat="42.93904" lon="1.22048">
        <ele>848.9</ele>
        <time>2022-08-01T08:09:49.000Z</time>
      </trkpt>
      <trkpt lat="42.93895" lon="1.2205">
        <ele>849.8</ele>
        <time>2022-08-01T08:09:53.000Z</time>
      </trkpt>
      <trkpt lat="42.93888" lon="1.2206">
        <ele>851</ele>
        <time>2022-08-01T08:09:59.000Z</time>
      </trkpt>
      <trkpt lat="42.93897" lon="1.22067">
        <ele>851.4</ele>
        <time>2022-08-01T08:10:04.000Z</time>
      </trkpt>
      <trkpt lat="42.93907" lon="1.22061">
        <ele>851.8</ele>
        <time>2022-08-01T08:10:08.000Z</time>
      </trkpt>
      <trkpt lat="42.93916" lon="1.22054">
        <ele>852.6</ele>
        <time>2022-08-01T08:10:12.000Z</time>
      </trkpt>
      <trkpt lat="42.93923" lon="1.22047">
        <ele>853.3</ele>
        <time>2022-08-01T08:10:16.000Z</time>
      </trkpt>
      <trkpt lat="42.93932" lon="1.22038">
        <ele>854.2</ele>
        <time>2022-08-01T08:10:21.000Z</time>
      </trkpt>
      <trkpt lat="42.93941" lon="1.22029">
        <ele>854.7</ele>
        <time>2022-08-01T08:10:26.000Z</time>
      </trkpt>
      <trkpt lat="42.93948" lon="1.22021">
        <ele>855.5</ele>
        <time>2022-08-01T08:10:30.000Z</time>
      </trkpt>
      <trkpt lat="42.93955" lon="1.22012">
        <ele>856.1</ele>
        <time>2022-08-01T08:10:35.000Z</time>
      </trkpt>
      <trkpt lat="42.93964" lon="1.22004">
        <ele>856.8</ele>
        <time>2022-08-01T08:10:40.000Z</time>
      </trkpt>
      <trkpt lat="42.93974" lon="1.21997">
        <ele>857.5</ele>
        <time>2022-08-01T08:10:45.000Z</time>
      </trkpt>
      <trkpt lat="42.93983" lon="1.21993">
        <ele>858.4</ele>
        <time>2022-08-01T08:10:50.000Z</time>
      </trkpt>
      <trkpt lat="42.93992" lon="1.21992">
        <ele>859.2</ele>
        <time>2022-08-01T08:10:55.000Z</time>
      </trkpt>
      <trkpt lat="42.94003" lon="1.21993">
        <ele>860.1</ele>
        <time>2022-08-01T08:11:00.000Z</time>
      </trkpt>
      <trkpt lat="42.94013" lon="1.21996">
        <ele>860.8</ele>
        <time>2022-08-01T08:11:05.000Z</time>
      </trkpt>
      <trkpt lat="42.94023" lon="1.22001">
        <ele>861.9</ele>
        <time>2022-08-01T08:11:10.000Z</time>
      </trkpt>
      <trkpt lat="42.94031" lon="1.22006">
        <ele>862.5</ele>
        <time>2022-08-01T08:11:14.000Z</time>
      </trkpt>
      <trkpt lat="42.9404" lon="1.22011">
        <ele>863.3</ele>
        <time>2022-08-01T08:11:18.000Z</time>
      </trkpt>
      <trkpt lat="42.94048" lon="1.22015">
        <ele>863.8</ele>
        <time>2022-08-01T08:11:23.000Z</time>
      </trkpt>
      <trkpt lat="42.94058" lon="1.22013">
        <ele>864.9</ele>
        <time>2022-08-01T08:11:28.000Z</time>
      </trkpt>
      <trkpt lat="42.94067" lon="1.2201">
        <ele>866.6</ele>
        <time>2022-08-01T08:11:33.000Z</time>
      </trkpt>
      <trkpt lat="42.94076" lon="1.22008">
        <ele>867.2</ele>
        <time>2022-08-01T08:11:38.000Z</time>
      </trkpt>
      <trkpt lat="42.94069" lon="1.22019">
        <ele>869.4</ele>
        <time>2022-08-01T08:11:51.000Z</time>
      </trkpt>
      <trkpt lat="42.94059" lon="1.22023">
        <ele>870.7</ele>
        <time>2022-08-01T08:11:57.000Z</time>
      </trkpt>
      <trkpt lat="42.9405" lon="1.22029">
        <ele>871.1</ele>
        <time>2022-08-01T08:12:01.000Z</time>
      </trkpt>
      <trkpt lat="42.94041" lon="1.22033">
        <ele>872.5</ele>
        <time>2022-08-01T08:12:06.000Z</time>
      </trkpt>
      <trkpt lat="42.94031" lon="1.22039">
        <ele>874.4</ele>
        <time>2022-08-01T08:12:11.000Z</time>
      </trkpt>
      <trkpt lat="42.94022" lon="1.22043">
        <ele>876.8</ele>
        <time>2022-08-01T08:12:16.000Z</time>
      </trkpt>
      <trkpt lat="42.94013" lon="1.22048">
        <ele>878.5</ele>
        <time>2022-08-01T08:12:21.000Z</time>
      </trkpt>
      <trkpt lat="42.94005" lon="1.22052">
        <ele>880.5</ele>
        <time>2022-08-01T08:12:26.000Z</time>
      </trkpt>
      <trkpt lat="42.93997" lon="1.22058">
        <ele>881.9</ele>
        <time>2022-08-01T08:12:31.000Z</time>
      </trkpt>
      <trkpt lat="42.93989" lon="1.22065">
        <ele>883.4</ele>
        <time>2022-08-01T08:12:36.000Z</time>
      </trkpt>
      <trkpt lat="42.93981" lon="1.22072">
        <ele>884.6</ele>
        <time>2022-08-01T08:12:41.000Z</time>
      </trkpt>
      <trkpt lat="42.93975" lon="1.22082">
        <ele>886.1</ele>
        <time>2022-08-01T08:12:46.000Z</time>
      </trkpt>
      <trkpt lat="42.93969" lon="1.22093">
        <ele>887.2</ele>
        <time>2022-08-01T08:12:51.000Z</time>
      </trkpt>
      <trkpt lat="42.93962" lon="1.22102">
        <ele>889.2</ele>
        <time>2022-08-01T08:12:56.000Z</time>
      </trkpt>
      <trkpt lat="42.93955" lon="1.22112">
        <ele>890.9</ele>
        <time>2022-08-01T08:13:02.000Z</time>
      </trkpt>
      <trkpt lat="42.93949" lon="1.22122">
        <ele>892.3</ele>
        <time>2022-08-01T08:13:07.000Z</time>
      </trkpt>
      <trkpt lat="42.93942" lon="1.22132">
        <ele>893.6</ele>
        <time>2022-08-01T08:13:12.000Z</time>
      </trkpt>
      <trkpt lat="42.93937" lon="1.22143">
        <ele>894.3</ele>
        <time>2022-08-01T08:13:17.000Z</time>
      </trkpt>
      <trkpt lat="42.9393" lon="1.22151">
        <ele>895.7</ele>
        <time>2022-08-01T08:13:22.000Z</time>
      </trkpt>
      <trkpt lat="42.93922" lon="1.22161">
        <ele>897</ele>
        <time>2022-08-01T08:13:27.000Z</time>
      </trkpt>
      <trkpt lat="42.93914" lon="1.2217">
        <ele>898.7</ele>
        <time>2022-08-01T08:13:32.000Z</time>
      </trkpt>
      <trkpt lat="42.93906" lon="1.22179">
        <ele>900.4</ele>
        <time>2022-08-01T08:13:37.000Z</time>
      </trkpt>
      <trkpt lat="42.93898" lon="1.22188">
        <ele>902.3</ele>
        <time>2022-08-01T08:13:42.000Z</time>
      </trkpt>
      <trkpt lat="42.93891" lon="1.22198">
        <ele>904.8</ele>
        <time>2022-08-01T08:13:48.000Z</time>
      </trkpt>
      <trkpt lat="42.93883" lon="1.22205">
        <ele>906.6</ele>
        <time>2022-08-01T08:13:53.000Z</time>
      </trkpt>
      <trkpt lat="42.93874" lon="1.22211">
        <ele>908.4</ele>
        <time>2022-08-01T08:13:58.000Z</time>
      </trkpt>
      <trkpt lat="42.93865" lon="1.22216">
        <ele>910.4</ele>
        <time>2022-08-01T08:14:03.000Z</time>
      </trkpt>
      <trkpt lat="42.93857" lon="1.22224">
        <ele>912.8</ele>
        <time>2022-08-01T08:14:08.000Z</time>
      </trkpt>
      <trkpt lat="42.93848" lon="1.22232">
        <ele>915.8</ele>
        <time>2022-08-01T08:14:14.000Z</time>
      </trkpt>
      <trkpt lat="42.93839" lon="1.22236">
        <ele>918.3</ele>
        <time>2022-08-01T08:14:19.000Z</time>
      </trkpt>
      <trkpt lat="42.93829" lon="1.22237">
        <ele>920.4</ele>
        <time>2022-08-01T08:14:24.000Z</time>
      </trkpt>
      <trkpt lat="42.93818" lon="1.22235">
        <ele>922.5</ele>
        <time>2022-08-01T08:14:29.000Z</time>
      </trkpt>
      <trkpt lat="42.93807" lon="1.22232">
        <ele>923.9</ele>
        <time>2022-08-01T08:14:34.000Z</time>
      </trkpt>
      <trkpt lat="42.93798" lon="1.22228">
        <ele>926.6</ele>
        <time>2022-08-01T08:14:40.000Z</time>
      </trkpt>
      <trkpt lat="42.93788" lon="1.22226">
        <ele>929</ele>
        <time>2022-08-01T08:14:46.000Z</time>
      </trkpt>
      <trkpt lat="42.93778" lon="1.22226">
        <ele>930.5</ele>
        <time>2022-08-01T08:14:51.000Z</time>
      </trkpt>
      <trkpt lat="42.93769" lon="1.22227">
        <ele>932.8</ele>
        <time>2022-08-01T08:14:56.000Z</time>
      </trkpt>
      <trkpt lat="42.9376" lon="1.22222">
        <ele>935.2</ele>
        <time>2022-08-01T08:15:02.000Z</time>
      </trkpt>
      <trkpt lat="42.9375" lon="1.22219">
        <ele>939.4</ele>
        <time>2022-08-01T08:15:09.000Z</time>
      </trkpt>
      <trkpt lat="42.93741" lon="1.22225">
        <ele>942.9</ele>
        <time>2022-08-01T08:15:16.000Z</time>
      </trkpt>
      <trkpt lat="42.93733" lon="1.2223">
        <ele>946</ele>
        <time>2022-08-01T08:15:22.000Z</time>
      </trkpt>
      <trkpt lat="42.93724" lon="1.22233">
        <ele>949.6</ele>
        <time>2022-08-01T08:15:28.000Z</time>
      </trkpt>
      <trkpt lat="42.93716" lon="1.22241">
        <ele>952.2</ele>
        <time>2022-08-01T08:15:34.000Z</time>
      </trkpt>
      <trkpt lat="42.93708" lon="1.22247">
        <ele>954.6</ele>
        <time>2022-08-01T08:15:40.000Z</time>
      </trkpt>
      <trkpt lat="42.93698" lon="1.22254">
        <ele>956.6</ele>
        <time>2022-08-01T08:15:45.000Z</time>
      </trkpt>
      <trkpt lat="42.9369" lon="1.22259">
        <ele>959.1</ele>
        <time>2022-08-01T08:15:50.000Z</time>
      </trkpt>
      <trkpt lat="42.9368" lon="1.22262">
        <ele>961.8</ele>
        <time>2022-08-01T08:15:56.000Z</time>
      </trkpt>
      <trkpt lat="42.9367" lon="1.22264">
        <ele>963.4</ele>
        <time>2022-08-01T08:16:03.000Z</time>
      </trkpt>
      <trkpt lat="42.93661" lon="1.22267">
        <ele>964.1</ele>
        <time>2022-08-01T08:16:12.000Z</time>
      </trkpt>
      <trkpt lat="42.93669" lon="1.22264">
        <ele>964</ele>
        <time>2022-08-01T08:16:23.000Z</time>
      </trkpt>
      <trkpt lat="42.9367" lon="1.22263">
        <ele>963.9</ele>
        <time>2022-08-01T08:16:25.000Z</time>
      </trkpt>
      <trkpt lat="42.9367" lon="1.22262">
        <ele>963.8</ele>
        <time>2022-08-01T08:17:53.000Z</time>
      </trkpt>
      <trkpt lat="42.9367" lon="1.22261">
        <ele>963.5</ele>
        <time>2022-08-01T08:18:40.000Z</time>
      </trkpt>
      <trkpt lat="42.9367" lon="1.22259">
        <ele>963.6</ele>
        <time>2022-08-01T08:18:45.000Z</time>
      </trkpt>
      <trkpt lat="42.9367" lon="1.22258">
        <ele>962.5</ele>
        <time>2022-08-01T08:19:10.000Z</time>
      </trkpt>
      <trkpt lat="42.93676" lon="1.22246">
        <ele>961.3</ele>
        <time>2022-08-01T08:19:17.000Z</time>
      </trkpt>
      <trkpt lat="42.93681" lon="1.22233">
        <ele>961.1</ele>
        <time>2022-08-01T08:19:23.000Z</time>
      </trkpt>
      <trkpt lat="42.93687" lon="1.22222">
        <ele>960.5</ele>
        <time>2022-08-01T08:19:28.000Z</time>
      </trkpt>
      <trkpt lat="42.93692" lon="1.22209">
        <ele>960.1</ele>
        <time>2022-08-01T08:19:33.000Z</time>
      </trkpt>
      <trkpt lat="42.93695" lon="1.22195">
        <ele>959.6</ele>
        <time>2022-08-01T08:19:38.000Z</time>
      </trkpt>
      <trkpt lat="42.93694" lon="1.22182">
        <ele>959.4</ele>
        <time>2022-08-01T08:19:42.000Z</time>
      </trkpt>
      <trkpt lat="42.93691" lon="1.22169">
        <ele>959.1</ele>
        <time>2022-08-01T08:19:47.000Z</time>
      </trkpt>
      <trkpt lat="42.9369" lon="1.22169">
        <ele>959.3</ele>
        <time>2022-08-01T08:19:53.000Z</time>
      </trkpt>
      <trkpt lat="42.93684" lon="1.22157">
        <ele>958.9</ele>
        <time>2022-08-01T08:20:06.000Z</time>
      </trkpt>
      <trkpt lat="42.93679" lon="1.22146">
        <ele>958</ele>
        <time>2022-08-01T08:20:11.000Z</time>
      </trkpt>
      <trkpt lat="42.93674" lon="1.22135">
        <ele>957.6</ele>
        <time>2022-08-01T08:20:15.000Z</time>
      </trkpt>
      <trkpt lat="42.93668" lon="1.22124">
        <ele>957.3</ele>
        <time>2022-08-01T08:20:21.000Z</time>
      </trkpt>
      <trkpt lat="42.93662" lon="1.22112">
        <ele>956.2</ele>
        <time>2022-08-01T08:20:26.000Z</time>
      </trkpt>
      <trkpt lat="42.93656" lon="1.22101">
        <ele>955.5</ele>
        <time>2022-08-01T08:20:30.000Z</time>
      </trkpt>
      <trkpt lat="42.93649" lon="1.22091">
        <ele>954.6</ele>
        <time>2022-08-01T08:20:35.000Z</time>
      </trkpt>
      <trkpt lat="42.93644" lon="1.22083">
        <ele>953.6</ele>
        <time>2022-08-01T08:20:42.000Z</time>
      </trkpt>
      <trkpt lat="42.93643" lon="1.22082">
        <ele>954.5</ele>
        <time>2022-08-01T08:21:02.000Z</time>
      </trkpt>
      <trkpt lat="42.93636" lon="1.22073">
        <ele>953.9</ele>
        <time>2022-08-01T08:21:06.000Z</time>
      </trkpt>
      <trkpt lat="42.9363" lon="1.22063">
        <ele>953.7</ele>
        <time>2022-08-01T08:21:10.000Z</time>
      </trkpt>
      <trkpt lat="42.93625" lon="1.22051">
        <ele>953.4</ele>
        <time>2022-08-01T08:21:14.000Z</time>
      </trkpt>
      <trkpt lat="42.93619" lon="1.22039">
        <ele>952.9</ele>
        <time>2022-08-01T08:21:19.000Z</time>
      </trkpt>
      <trkpt lat="42.93615" lon="1.22027">
        <ele>952.4</ele>
        <time>2022-08-01T08:21:28.000Z</time>
      </trkpt>
      <trkpt lat="42.93617" lon="1.22013">
        <ele>951.5</ele>
        <time>2022-08-01T08:21:34.000Z</time>
      </trkpt>
      <trkpt lat="42.9362" lon="1.22001">
        <ele>948.8</ele>
        <time>2022-08-01T08:21:39.000Z</time>
      </trkpt>
      <trkpt lat="42.93619" lon="1.21988">
        <ele>947.2</ele>
        <time>2022-08-01T08:21:44.000Z</time>
      </trkpt>
      <trkpt lat="42.93618" lon="1.21975">
        <ele>945.7</ele>
        <time>2022-08-01T08:21:50.000Z</time>
      </trkpt>
      <trkpt lat="42.9362" lon="1.21974">
        <ele>945.7</ele>
        <time>2022-08-01T08:21:55.000Z</time>
      </trkpt>
      <trkpt lat="42.93622" lon="1.2196">
        <ele>944.1</ele>
        <time>2022-08-01T08:22:10.000Z</time>
      </trkpt>
      <trkpt lat="42.93625" lon="1.21946">
        <ele>943.2</ele>
        <time>2022-08-01T08:22:15.000Z</time>
      </trkpt>
      <trkpt lat="42.93628" lon="1.21934">
        <ele>941.2</ele>
        <time>2022-08-01T08:22:18.000Z</time>
      </trkpt>
      <trkpt lat="42.93635" lon="1.21923">
        <ele>939.9</ele>
        <time>2022-08-01T08:22:21.000Z</time>
      </trkpt>
      <trkpt lat="42.93638" lon="1.2191">
        <ele>936.4</ele>
        <time>2022-08-01T08:22:24.000Z</time>
      </trkpt>
      <trkpt lat="42.93645" lon="1.21899">
        <ele>932.8</ele>
        <time>2022-08-01T08:22:27.000Z</time>
      </trkpt>
      <trkpt lat="42.93652" lon="1.21889">
        <ele>930.4</ele>
        <time>2022-08-01T08:22:30.000Z</time>
      </trkpt>
      <trkpt lat="42.93658" lon="1.21877">
        <ele>928.9</ele>
        <time>2022-08-01T08:22:33.000Z</time>
      </trkpt>
      <trkpt lat="42.93666" lon="1.21887">
        <ele>926.1</ele>
        <time>2022-08-01T08:22:40.000Z</time>
      </trkpt>
      <trkpt lat="42.93668" lon="1.21899">
        <ele>925.9</ele>
        <time>2022-08-01T08:22:44.000Z</time>
      </trkpt>
      <trkpt lat="42.93678" lon="1.21905">
        <ele>922.6</ele>
        <time>2022-08-01T08:22:48.000Z</time>
      </trkpt>
      <trkpt lat="42.93684" lon="1.21894">
        <ele>918.2</ele>
        <time>2022-08-01T08:22:53.000Z</time>
      </trkpt>
      <trkpt lat="42.93685" lon="1.2188">
        <ele>915.8</ele>
        <time>2022-08-01T08:22:57.000Z</time>
      </trkpt>
      <trkpt lat="42.9369" lon="1.21866">
        <ele>912.2</ele>
        <time>2022-08-01T08:23:01.000Z</time>
      </trkpt>
      <trkpt lat="42.93691" lon="1.21853">
        <ele>909.6</ele>
        <time>2022-08-01T08:23:03.000Z</time>
      </trkpt>
      <trkpt lat="42.93688" lon="1.21841">
        <ele>908.8</ele>
        <time>2022-08-01T08:23:05.000Z</time>
      </trkpt>
      <trkpt lat="42.93698" lon="1.21835">
        <ele>904.3</ele>
        <time>2022-08-01T08:23:11.000Z</time>
      </trkpt>
      <trkpt lat="42.93707" lon="1.21841">
        <ele>901.5</ele>
        <time>2022-08-01T08:23:13.000Z</time>
      </trkpt>
      <trkpt lat="42.93718" lon="1.21847">
        <ele>899.9</ele>
        <time>2022-08-01T08:23:15.000Z</time>
      </trkpt>
      <trkpt lat="42.93726" lon="1.21853">
        <ele>897.2</ele>
        <time>2022-08-01T08:23:18.000Z</time>
      </trkpt>
      <trkpt lat="42.93734" lon="1.21859">
        <ele>894.6</ele>
        <time>2022-08-01T08:23:22.000Z</time>
      </trkpt>
      <trkpt lat="42.93738" lon="1.21873">
        <ele>893.4</ele>
        <time>2022-08-01T08:23:25.000Z</time>
      </trkpt>
      <trkpt lat="42.93738" lon="1.21887">
        <ele>892</ele>
        <time>2022-08-01T08:23:29.000Z</time>
      </trkpt>
      <trkpt lat="42.93744" lon="1.219">
        <ele>887.8</ele>
        <time>2022-08-01T08:23:34.000Z</time>
      </trkpt>
      <trkpt lat="42.93744" lon="1.21913">
        <ele>885.4</ele>
        <time>2022-08-01T08:23:38.000Z</time>
      </trkpt>
      <trkpt lat="42.93745" lon="1.2193">
        <ele>881.6</ele>
        <time>2022-08-01T08:23:42.000Z</time>
      </trkpt>
      <trkpt lat="42.93754" lon="1.21946">
        <ele>879</ele>
        <time>2022-08-01T08:23:45.000Z</time>
      </trkpt>
      <trkpt lat="42.93762" lon="1.21955">
        <ele>877.3</ele>
        <time>2022-08-01T08:23:47.000Z</time>
      </trkpt>
      <trkpt lat="42.93768" lon="1.21964">
        <ele>874.3</ele>
        <time>2022-08-01T08:23:50.000Z</time>
      </trkpt>
      <trkpt lat="42.93776" lon="1.2197">
        <ele>871.5</ele>
        <time>2022-08-01T08:23:54.000Z</time>
      </trkpt>
      <trkpt lat="42.93779" lon="1.21969">
        <ele>871.4</ele>
        <time>2022-08-01T08:23:57.000Z</time>
      </trkpt>
      <trkpt lat="42.93778" lon="1.21969">
        <ele>871.3</ele>
        <time>2022-08-01T08:24:04.000Z</time>
      </trkpt>
      <trkpt lat="42.93778" lon="1.21968">
        <ele>871.2</ele>
        <time>2022-08-01T08:24:06.000Z</time>
      </trkpt>
      <trkpt lat="42.93778" lon="1.21954">
        <ele>868.6</ele>
        <time>2022-08-01T08:24:13.000Z</time>
      </trkpt>
      <trkpt lat="42.93783" lon="1.21943">
        <ele>865.6</ele>
        <time>2022-08-01T08:24:17.000Z</time>
      </trkpt>
      <trkpt lat="42.93784" lon="1.21927">
        <ele>863.7</ele>
        <time>2022-08-01T08:24:20.000Z</time>
      </trkpt>
      <trkpt lat="42.93783" lon="1.21914">
        <ele>862.6</ele>
        <time>2022-08-01T08:24:22.000Z</time>
      </trkpt>
      <trkpt lat="42.93782" lon="1.219">
        <ele>859.6</ele>
        <time>2022-08-01T08:24:26.000Z</time>
      </trkpt>
      <trkpt lat="42.93791" lon="1.219">
        <ele>856.5</ele>
        <time>2022-08-01T08:24:41.000Z</time>
      </trkpt>
      <trkpt lat="42.93796" lon="1.21913">
        <ele>853.3</ele>
        <time>2022-08-01T08:25:03.000Z</time>
      </trkpt>
      <trkpt lat="42.93805" lon="1.21912">
        <ele>849.5</ele>
        <time>2022-08-01T08:25:10.000Z</time>
      </trkpt>
      <trkpt lat="42.93811" lon="1.21902">
        <ele>845.7</ele>
        <time>2022-08-01T08:25:14.000Z</time>
      </trkpt>
      <trkpt lat="42.93811" lon="1.21887">
        <ele>844.9</ele>
        <time>2022-08-01T08:25:18.000Z</time>
      </trkpt>
      <trkpt lat="42.93809" lon="1.21881">
        <ele>845.2</ele>
        <time>2022-08-01T08:25:29.000Z</time>
      </trkpt>
      <trkpt lat="42.93814" lon="1.21871">
        <ele>843</ele>
        <time>2022-08-01T08:25:40.000Z</time>
      </trkpt>
      <trkpt lat="42.93818" lon="1.21858">
        <ele>840.8</ele>
        <time>2022-08-01T08:25:46.000Z</time>
      </trkpt>
      <trkpt lat="42.93824" lon="1.21848">
        <ele>837</ele>
        <time>2022-08-01T08:25:50.000Z</time>
      </trkpt>
      <trkpt lat="42.93823" lon="1.21839">
        <ele>835.1</ele>
        <time>2022-08-01T08:25:58.000Z</time>
      </trkpt>
      <trkpt lat="42.93824" lon="1.21838">
        <ele>834.9</ele>
        <time>2022-08-01T08:26:00.000Z</time>
      </trkpt>
      <trkpt lat="42.93832" lon="1.21835">
        <ele>832.8</ele>
        <time>2022-08-01T08:26:10.000Z</time>
      </trkpt>
      <trkpt lat="42.93833" lon="1.21839">
        <ele>832.4</ele>
        <time>2022-08-01T08:26:14.000Z</time>
      </trkpt>
      <trkpt lat="42.9384" lon="1.2185">
        <ele>829.1</ele>
        <time>2022-08-01T08:26:28.000Z</time>
      </trkpt>
      <trkpt lat="42.93846" lon="1.21862">
        <ele>827.2</ele>
        <time>2022-08-01T08:26:33.000Z</time>
      </trkpt>
      <trkpt lat="42.93853" lon="1.21874">
        <ele>825.4</ele>
        <time>2022-08-01T08:26:36.000Z</time>
      </trkpt>
      <trkpt lat="42.93858" lon="1.21886">
        <ele>824.8</ele>
        <time>2022-08-01T08:26:38.000Z</time>
      </trkpt>
      <trkpt lat="42.93863" lon="1.21899">
        <ele>825</ele>
        <time>2022-08-01T08:26:41.000Z</time>
      </trkpt>
      <trkpt lat="42.9387" lon="1.21907">
        <ele>825.5</ele>
        <time>2022-08-01T08:26:45.000Z</time>
      </trkpt>
      <trkpt lat="42.93878" lon="1.21915">
        <ele>825.6</ele>
        <time>2022-08-01T08:26:51.000Z</time>
      </trkpt>
      <trkpt lat="42.93885" lon="1.21925">
        <ele>825.8</ele>
        <time>2022-08-01T08:26:55.000Z</time>
      </trkpt>
      <trkpt lat="42.93892" lon="1.21935">
        <ele>826.7</ele>
        <time>2022-08-01T08:26:59.000Z</time>
      </trkpt>
      <trkpt lat="42.93899" lon="1.21948">
        <ele>826.2</ele>
        <time>2022-08-01T08:27:03.000Z</time>
      </trkpt>
      <trkpt lat="42.93905" lon="1.21957">
        <ele>826.7</ele>
        <time>2022-08-01T08:27:06.000Z</time>
      </trkpt>
      <trkpt lat="42.93912" lon="1.21967">
        <ele>826.9</ele>
        <time>2022-08-01T08:27:10.000Z</time>
      </trkpt>
      <trkpt lat="42.93923" lon="1.2197">
        <ele>827.5</ele>
        <time>2022-08-01T08:27:14.000Z</time>
      </trkpt>
      <trkpt lat="42.93931" lon="1.21964">
        <ele>827.4</ele>
        <time>2022-08-01T08:27:17.000Z</time>
      </trkpt>
      <trkpt lat="42.93938" lon="1.21951">
        <ele>827.9</ele>
        <time>2022-08-01T08:27:21.000Z</time>
      </trkpt>
      <trkpt lat="42.93943" lon="1.21938">
        <ele>828.1</ele>
        <time>2022-08-01T08:27:24.000Z</time>
      </trkpt>
      <trkpt lat="42.9395" lon="1.21926">
        <ele>828.7</ele>
        <time>2022-08-01T08:27:27.000Z</time>
      </trkpt>
      <trkpt lat="42.93957" lon="1.21917">
        <ele>829.2</ele>
        <time>2022-08-01T08:27:30.000Z</time>
      </trkpt>
      <trkpt lat="42.93964" lon="1.21908">
        <ele>829.5</ele>
        <time>2022-08-01T08:27:33.000Z</time>
      </trkpt>
      <trkpt lat="42.93972" lon="1.219">
        <ele>829.9</ele>
        <time>2022-08-01T08:27:37.000Z</time>
      </trkpt>
      <trkpt lat="42.93982" lon="1.21891">
        <ele>830.1</ele>
        <time>2022-08-01T08:27:41.000Z</time>
      </trkpt>
      <trkpt lat="42.93992" lon="1.21888">
        <ele>830.5</ele>
        <time>2022-08-01T08:27:44.000Z</time>
      </trkpt>
      <trkpt lat="42.94002" lon="1.21887">
        <ele>830.6</ele>
        <time>2022-08-01T08:27:47.000Z</time>
      </trkpt>
      <trkpt lat="42.94011" lon="1.21894">
        <ele>830.6</ele>
        <time>2022-08-01T08:27:50.000Z</time>
      </trkpt>
      <trkpt lat="42.94023" lon="1.21899">
        <ele>830.6</ele>
        <time>2022-08-01T08:27:53.000Z</time>
      </trkpt>
      <trkpt lat="42.94033" lon="1.21907">
        <ele>831</ele>
        <time>2022-08-01T08:27:56.000Z</time>
      </trkpt>
      <trkpt lat="42.94042" lon="1.21915">
        <ele>831.2</ele>
        <time>2022-08-01T08:27:59.000Z</time>
      </trkpt>
      <trkpt lat="42.94053" lon="1.21921">
        <ele>832.2</ele>
        <time>2022-08-01T08:28:02.000Z</time>
      </trkpt>
      <trkpt lat="42.94063" lon="1.21923">
        <ele>831.9</ele>
        <time>2022-08-01T08:28:05.000Z</time>
      </trkpt>
      <trkpt lat="42.94074" lon="1.21923">
        <ele>832.4</ele>
        <time>2022-08-01T08:28:08.000Z</time>
      </trkpt>
      <trkpt lat="42.94085" lon="1.21916">
        <ele>832.2</ele>
        <time>2022-08-01T08:28:11.000Z</time>
      </trkpt>
      <trkpt lat="42.94094" lon="1.21906">
        <ele>832.8</ele>
        <time>2022-08-01T08:28:14.000Z</time>
      </trkpt>
      <trkpt lat="42.941" lon="1.21893">
        <ele>832.9</ele>
        <time>2022-08-01T08:28:17.000Z</time>
      </trkpt>
      <trkpt lat="42.94108" lon="1.21881">
        <ele>833.6</ele>
        <time>2022-08-01T08:28:20.000Z</time>
      </trkpt>
      <trkpt lat="42.94113" lon="1.21866">
        <ele>833.1</ele>
        <time>2022-08-01T08:28:23.000Z</time>
      </trkpt>
      <trkpt lat="42.94118" lon="1.2185">
        <ele>834.1</ele>
        <time>2022-08-01T08:28:26.000Z</time>
      </trkpt>
      <trkpt lat="42.94121" lon="1.21834">
        <ele>833.9</ele>
        <time>2022-08-01T08:28:29.000Z</time>
      </trkpt>
      <trkpt lat="42.94125" lon="1.2182">
        <ele>834.5</ele>
        <time>2022-08-01T08:28:32.000Z</time>
      </trkpt>
      <trkpt lat="42.9413" lon="1.21808">
        <ele>834.5</ele>
        <time>2022-08-01T08:28:35.000Z</time>
      </trkpt>
      <trkpt lat="42.94134" lon="1.21795">
        <ele>835</ele>
        <time>2022-08-01T08:28:39.000Z</time>
      </trkpt>
      <trkpt lat="42.9414" lon="1.21781">
        <ele>834.9</ele>
        <time>2022-08-01T08:28:43.000Z</time>
      </trkpt>
      <trkpt lat="42.94143" lon="1.21765">
        <ele>834.8</ele>
        <time>2022-08-01T08:28:47.000Z</time>
      </trkpt>
      <trkpt lat="42.94144" lon="1.21752">
        <ele>834.5</ele>
        <time>2022-08-01T08:28:50.000Z</time>
      </trkpt>
      <trkpt lat="42.94148" lon="1.21736">
        <ele>833.6</ele>
        <time>2022-08-01T08:28:53.000Z</time>
      </trkpt>
      <trkpt lat="42.94152" lon="1.21724">
        <ele>833.1</ele>
        <time>2022-08-01T08:28:55.000Z</time>
      </trkpt>
      <trkpt lat="42.94159" lon="1.21714">
        <ele>833.1</ele>
        <time>2022-08-01T08:28:57.000Z</time>
      </trkpt>
      <trkpt lat="42.94168" lon="1.21707">
        <ele>832.6</ele>
        <time>2022-08-01T08:28:59.000Z</time>
      </trkpt>
      <trkpt lat="42.94178" lon="1.21705">
        <ele>832.5</ele>
        <time>2022-08-01T08:29:01.000Z</time>
      </trkpt>
      <trkpt lat="42.94188" lon="1.21706">
        <ele>831.7</ele>
        <time>2022-08-01T08:29:03.000Z</time>
      </trkpt>
      <trkpt lat="42.942" lon="1.21709">
        <ele>831.4</ele>
        <time>2022-08-01T08:29:05.000Z</time>
      </trkpt>
      <trkpt lat="42.94215" lon="1.21713">
        <ele>830.5</ele>
        <time>2022-08-01T08:29:07.000Z</time>
      </trkpt>
      <trkpt lat="42.94229" lon="1.21718">
        <ele>829.1</ele>
        <time>2022-08-01T08:29:09.000Z</time>
      </trkpt>
      <trkpt lat="42.94245" lon="1.21722">
        <ele>828.5</ele>
        <time>2022-08-01T08:29:11.000Z</time>
      </trkpt>
      <trkpt lat="42.94262" lon="1.21726">
        <ele>827.3</ele>
        <time>2022-08-01T08:29:13.000Z</time>
      </trkpt>
      <trkpt lat="42.94271" lon="1.21728">
        <ele>826.9</ele>
        <time>2022-08-01T08:29:14.000Z</time>
      </trkpt>
      <trkpt lat="42.94289" lon="1.21731">
        <ele>825.2</ele>
        <time>2022-08-01T08:29:16.000Z</time>
      </trkpt>
      <trkpt lat="42.94299" lon="1.21733">
        <ele>824</ele>
        <time>2022-08-01T08:29:17.000Z</time>
      </trkpt>
      <trkpt lat="42.94309" lon="1.21735">
        <ele>822.8</ele>
        <time>2022-08-01T08:29:18.000Z</time>
      </trkpt>
      <trkpt lat="42.94318" lon="1.21739">
        <ele>822.4</ele>
        <time>2022-08-01T08:29:19.000Z</time>
      </trkpt>
      <trkpt lat="42.94328" lon="1.21743">
        <ele>821.4</ele>
        <time>2022-08-01T08:29:20.000Z</time>
      </trkpt>
      <trkpt lat="42.94338" lon="1.21749">
        <ele>820.6</ele>
        <time>2022-08-01T08:29:21.000Z</time>
      </trkpt>
      <trkpt lat="42.94348" lon="1.21756">
        <ele>819.5</ele>
        <time>2022-08-01T08:29:22.000Z</time>
      </trkpt>
      <trkpt lat="42.94356" lon="1.21762">
        <ele>817.4</ele>
        <time>2022-08-01T08:29:23.000Z</time>
      </trkpt>
      <trkpt lat="42.94364" lon="1.21769">
        <ele>816.6</ele>
        <time>2022-08-01T08:29:24.000Z</time>
      </trkpt>
      <trkpt lat="42.94379" lon="1.21783">
        <ele>815.4</ele>
        <time>2022-08-01T08:29:26.000Z</time>
      </trkpt>
      <trkpt lat="42.94386" lon="1.21793">
        <ele>814.5</ele>
        <time>2022-08-01T08:29:27.000Z</time>
      </trkpt>
      <trkpt lat="42.94393" lon="1.21805">
        <ele>813.1</ele>
        <time>2022-08-01T08:29:28.000Z</time>
      </trkpt>
      <trkpt lat="42.94399" lon="1.21818">
        <ele>812.1</ele>
        <time>2022-08-01T08:29:29.000Z</time>
      </trkpt>
      <trkpt lat="42.94405" lon="1.2183">
        <ele>811.3</ele>
        <time>2022-08-01T08:29:30.000Z</time>
      </trkpt>
      <trkpt lat="42.94411" lon="1.21841">
        <ele>810.2</ele>
        <time>2022-08-01T08:29:31.000Z</time>
      </trkpt>
      <trkpt lat="42.94418" lon="1.21851">
        <ele>809.2</ele>
        <time>2022-08-01T08:29:32.000Z</time>
      </trkpt>
      <trkpt lat="42.94427" lon="1.21858">
        <ele>807.4</ele>
        <time>2022-08-01T08:29:33.000Z</time>
      </trkpt>
      <trkpt lat="42.94436" lon="1.21864">
        <ele>806.5</ele>
        <time>2022-08-01T08:29:34.000Z</time>
      </trkpt>
      <trkpt lat="42.94447" lon="1.21868">
        <ele>805.5</ele>
        <time>2022-08-01T08:29:35.000Z</time>
      </trkpt>
      <trkpt lat="42.94458" lon="1.21868">
        <ele>804.9</ele>
        <time>2022-08-01T08:29:36.000Z</time>
      </trkpt>
      <trkpt lat="42.94468" lon="1.21866">
        <ele>804</ele>
        <time>2022-08-01T08:29:37.000Z</time>
      </trkpt>
      <trkpt lat="42.94478" lon="1.21863">
        <ele>802.1</ele>
        <time>2022-08-01T08:29:38.000Z</time>
      </trkpt>
      <trkpt lat="42.94494" lon="1.21852">
        <ele>800</ele>
        <time>2022-08-01T08:29:40.000Z</time>
      </trkpt>
      <trkpt lat="42.94499" lon="1.21842">
        <ele>798.9</ele>
        <time>2022-08-01T08:29:41.000Z</time>
      </trkpt>
      <trkpt lat="42.94503" lon="1.21829">
        <ele>797.9</ele>
        <time>2022-08-01T08:29:42.000Z</time>
      </trkpt>
      <trkpt lat="42.94507" lon="1.21815">
        <ele>796.5</ele>
        <time>2022-08-01T08:29:43.000Z</time>
      </trkpt>
      <trkpt lat="42.94509" lon="1.21801">
        <ele>795.8</ele>
        <time>2022-08-01T08:29:44.000Z</time>
      </trkpt>
      <trkpt lat="42.9451" lon="1.21787">
        <ele>795</ele>
        <time>2022-08-01T08:29:45.000Z</time>
      </trkpt>
      <trkpt lat="42.94509" lon="1.21774">
        <ele>793.9</ele>
        <time>2022-08-01T08:29:46.000Z</time>
      </trkpt>
      <trkpt lat="42.94505" lon="1.21752">
        <ele>790.9</ele>
        <time>2022-08-01T08:29:48.000Z</time>
      </trkpt>
      <trkpt lat="42.94503" lon="1.21732">
        <ele>789.5</ele>
        <time>2022-08-01T08:29:50.000Z</time>
      </trkpt>
      <trkpt lat="42.94503" lon="1.21712">
        <ele>788</ele>
        <time>2022-08-01T08:29:52.000Z</time>
      </trkpt>
      <trkpt lat="42.94506" lon="1.21689">
        <ele>786.5</ele>
        <time>2022-08-01T08:29:54.000Z</time>
      </trkpt>
      <trkpt lat="42.94507" lon="1.21676">
        <ele>785.6</ele>
        <time>2022-08-01T08:29:55.000Z</time>
      </trkpt>
      <trkpt lat="42.94509" lon="1.21663">
        <ele>784.6</ele>
        <time>2022-08-01T08:29:56.000Z</time>
      </trkpt>
      <trkpt lat="42.9451" lon="1.21649">
        <ele>783.5</ele>
        <time>2022-08-01T08:29:57.000Z</time>
      </trkpt>
      <trkpt lat="42.94511" lon="1.21635">
        <ele>782.3</ele>
        <time>2022-08-01T08:29:58.000Z</time>
      </trkpt>
      <trkpt lat="42.94513" lon="1.21621">
        <ele>781.6</ele>
        <time>2022-08-01T08:29:59.000Z</time>
      </trkpt>
      <trkpt lat="42.94517" lon="1.21607">
        <ele>780.9</ele>
        <time>2022-08-01T08:30:00.000Z</time>
      </trkpt>
      <trkpt lat="42.94521" lon="1.21593">
        <ele>779.7</ele>
        <time>2022-08-01T08:30:01.000Z</time>
      </trkpt>
      <trkpt lat="42.94525" lon="1.21578">
        <ele>778.8</ele>
        <time>2022-08-01T08:30:02.000Z</time>
      </trkpt>
      <trkpt lat="42.94529" lon="1.21563">
        <ele>776.9</ele>
        <time>2022-08-01T08:30:03.000Z</time>
      </trkpt>
      <trkpt lat="42.94534" lon="1.21549">
        <ele>775.9</ele>
        <time>2022-08-01T08:30:04.000Z</time>
      </trkpt>
      <trkpt lat="42.94538" lon="1.21533">
        <ele>774.7</ele>
        <time>2022-08-01T08:30:05.000Z</time>
      </trkpt>
      <trkpt lat="42.94542" lon="1.21518">
        <ele>772.9</ele>
        <time>2022-08-01T08:30:06.000Z</time>
      </trkpt>
      <trkpt lat="42.94545" lon="1.21502">
        <ele>771.3</ele>
        <time>2022-08-01T08:30:07.000Z</time>
      </trkpt>
      <trkpt lat="42.94546" lon="1.21485">
        <ele>769.4</ele>
        <time>2022-08-01T08:30:08.000Z</time>
      </trkpt>
      <trkpt lat="42.94548" lon="1.21469">
        <ele>768.4</ele>
        <time>2022-08-01T08:30:09.000Z</time>
      </trkpt>
      <trkpt lat="42.9455" lon="1.21454">
        <ele>767.5</ele>
        <time>2022-08-01T08:30:10.000Z</time>
      </trkpt>
      <trkpt lat="42.94552" lon="1.21442">
        <ele>766.6</ele>
        <time>2022-08-01T08:30:11.000Z</time>
      </trkpt>
      <trkpt lat="42.94555" lon="1.21429">
        <ele>765.8</ele>
        <time>2022-08-01T08:30:12.000Z</time>
      </trkpt>
      <trkpt lat="42.94559" lon="1.21417">
        <ele>764.5</ele>
        <time>2022-08-01T08:30:13.000Z</time>
      </trkpt>
      <trkpt lat="42.94565" lon="1.21405">
        <ele>763.9</ele>
        <time>2022-08-01T08:30:14.000Z</time>
      </trkpt>
      <trkpt lat="42.9457" lon="1.21393">
        <ele>762.8</ele>
        <time>2022-08-01T08:30:15.000Z</time>
      </trkpt>
      <trkpt lat="42.94576" lon="1.21381">
        <ele>761.5</ele>
        <time>2022-08-01T08:30:16.000Z</time>
      </trkpt>
      <trkpt lat="42.94581" lon="1.21367">
        <ele>760.6</ele>
        <time>2022-08-01T08:30:17.000Z</time>
      </trkpt>
      <trkpt lat="42.94586" lon="1.21353">
        <ele>758.9</ele>
        <time>2022-08-01T08:30:18.000Z</time>
      </trkpt>
      <trkpt lat="42.94591" lon="1.21339">
        <ele>758.2</ele>
        <time>2022-08-01T08:30:19.000Z</time>
      </trkpt>
      <trkpt lat="42.94597" lon="1.21326">
        <ele>757.4</ele>
        <time>2022-08-01T08:30:20.000Z</time>
      </trkpt>
      <trkpt lat="42.94604" lon="1.21312">
        <ele>756.7</ele>
        <time>2022-08-01T08:30:21.000Z</time>
      </trkpt>
      <trkpt lat="42.94611" lon="1.21297">
        <ele>755.4</ele>
        <time>2022-08-01T08:30:22.000Z</time>
      </trkpt>
      <trkpt lat="42.94618" lon="1.21283">
        <ele>753.8</ele>
        <time>2022-08-01T08:30:23.000Z</time>
      </trkpt>
      <trkpt lat="42.94625" lon="1.21269">
        <ele>752.8</ele>
        <time>2022-08-01T08:30:24.000Z</time>
      </trkpt>
      <trkpt lat="42.94631" lon="1.21255">
        <ele>751.9</ele>
        <time>2022-08-01T08:30:25.000Z</time>
      </trkpt>
      <trkpt lat="42.94636" lon="1.21242">
        <ele>750.2</ele>
        <time>2022-08-01T08:30:26.000Z</time>
      </trkpt>
      <trkpt lat="42.94641" lon="1.21229">
        <ele>748.6</ele>
        <time>2022-08-01T08:30:27.000Z</time>
      </trkpt>
      <trkpt lat="42.94645" lon="1.21218">
        <ele>747.1</ele>
        <time>2022-08-01T08:30:28.000Z</time>
      </trkpt>
      <trkpt lat="42.94651" lon="1.212">
        <ele>745.8</ele>
        <time>2022-08-01T08:30:30.000Z</time>
      </trkpt>
      <trkpt lat="42.94644" lon="1.21183">
        <ele>744.2</ele>
        <time>2022-08-01T08:30:32.000Z</time>
      </trkpt>
      <trkpt lat="42.94629" lon="1.21172">
        <ele>743.4</ele>
        <time>2022-08-01T08:30:34.000Z</time>
      </trkpt>
      <trkpt lat="42.94613" lon="1.2116">
        <ele>742.2</ele>
        <time>2022-08-01T08:30:36.000Z</time>
      </trkpt>
      <trkpt lat="42.94606" lon="1.21151">
        <ele>741</ele>
        <time>2022-08-01T08:30:37.000Z</time>
      </trkpt>
      <trkpt lat="42.94601" lon="1.2114">
        <ele>739.6</ele>
        <time>2022-08-01T08:30:38.000Z</time>
      </trkpt>
      <trkpt lat="42.94598" lon="1.21128">
        <ele>739</ele>
        <time>2022-08-01T08:30:39.000Z</time>
      </trkpt>
      <trkpt lat="42.94595" lon="1.21114">
        <ele>738.9</ele>
        <time>2022-08-01T08:30:40.000Z</time>
      </trkpt>
      <trkpt lat="42.94592" lon="1.21101">
        <ele>738.5</ele>
        <time>2022-08-01T08:30:41.000Z</time>
      </trkpt>
      <trkpt lat="42.94588" lon="1.21089">
        <ele>737.9</ele>
        <time>2022-08-01T08:30:42.000Z</time>
      </trkpt>
      <trkpt lat="42.94584" lon="1.21078">
        <ele>736.6</ele>
        <time>2022-08-01T08:30:43.000Z</time>
      </trkpt>
      <trkpt lat="42.94573" lon="1.2106">
        <ele>735.5</ele>
        <time>2022-08-01T08:30:45.000Z</time>
      </trkpt>
      <trkpt lat="42.94558" lon="1.21051">
        <ele>734.4</ele>
        <time>2022-08-01T08:30:47.000Z</time>
      </trkpt>
      <trkpt lat="42.94548" lon="1.21049">
        <ele>733.1</ele>
        <time>2022-08-01T08:30:48.000Z</time>
      </trkpt>
      <trkpt lat="42.94539" lon="1.21046">
        <ele>732.5</ele>
        <time>2022-08-01T08:30:49.000Z</time>
      </trkpt>
      <trkpt lat="42.94524" lon="1.21039">
        <ele>730.6</ele>
        <time>2022-08-01T08:30:51.000Z</time>
      </trkpt>
      <trkpt lat="42.94511" lon="1.2103">
        <ele>729.5</ele>
        <time>2022-08-01T08:30:53.000Z</time>
      </trkpt>
      <trkpt lat="42.945" lon="1.21021">
        <ele>728.4</ele>
        <time>2022-08-01T08:30:55.000Z</time>
      </trkpt>
      <trkpt lat="42.94494" lon="1.21006">
        <ele>727.7</ele>
        <time>2022-08-01T08:30:57.000Z</time>
      </trkpt>
      <trkpt lat="42.9449" lon="1.20985">
        <ele>726.6</ele>
        <time>2022-08-01T08:30:59.000Z</time>
      </trkpt>
      <trkpt lat="42.94486" lon="1.20963">
        <ele>724.9</ele>
        <time>2022-08-01T08:31:01.000Z</time>
      </trkpt>
      <trkpt lat="42.94482" lon="1.20938">
        <ele>722.4</ele>
        <time>2022-08-01T08:31:03.000Z</time>
      </trkpt>
      <trkpt lat="42.9448" lon="1.20925">
        <ele>721.7</ele>
        <time>2022-08-01T08:31:04.000Z</time>
      </trkpt>
      <trkpt lat="42.94478" lon="1.2091">
        <ele>720.6</ele>
        <time>2022-08-01T08:31:05.000Z</time>
      </trkpt>
      <trkpt lat="42.94477" lon="1.20896">
        <ele>719.6</ele>
        <time>2022-08-01T08:31:06.000Z</time>
      </trkpt>
      <trkpt lat="42.94475" lon="1.20882">
        <ele>718.5</ele>
        <time>2022-08-01T08:31:07.000Z</time>
      </trkpt>
      <trkpt lat="42.94473" lon="1.2087">
        <ele>717.2</ele>
        <time>2022-08-01T08:31:08.000Z</time>
      </trkpt>
      <trkpt lat="42.94467" lon="1.20848">
        <ele>715.7</ele>
        <time>2022-08-01T08:31:10.000Z</time>
      </trkpt>
      <trkpt lat="42.94453" lon="1.20834">
        <ele>714.5</ele>
        <time>2022-08-01T08:31:12.000Z</time>
      </trkpt>
      <trkpt lat="42.94435" lon="1.20828">
        <ele>711.6</ele>
        <time>2022-08-01T08:31:14.000Z</time>
      </trkpt>
      <trkpt lat="42.94426" lon="1.20827">
        <ele>710.7</ele>
        <time>2022-08-01T08:31:15.000Z</time>
      </trkpt>
      <trkpt lat="42.94416" lon="1.20825">
        <ele>710</ele>
        <time>2022-08-01T08:31:16.000Z</time>
      </trkpt>
      <trkpt lat="42.94407" lon="1.20823">
        <ele>709.5</ele>
        <time>2022-08-01T08:31:17.000Z</time>
      </trkpt>
      <trkpt lat="42.94389" lon="1.20819">
        <ele>707.5</ele>
        <time>2022-08-01T08:31:19.000Z</time>
      </trkpt>
      <trkpt lat="42.9438" lon="1.20814">
        <ele>706.5</ele>
        <time>2022-08-01T08:31:20.000Z</time>
      </trkpt>
      <trkpt lat="42.94371" lon="1.20808">
        <ele>705.3</ele>
        <time>2022-08-01T08:31:21.000Z</time>
      </trkpt>
      <trkpt lat="42.94364" lon="1.20799">
        <ele>704.4</ele>
        <time>2022-08-01T08:31:22.000Z</time>
      </trkpt>
      <trkpt lat="42.94357" lon="1.20789">
        <ele>702.7</ele>
        <time>2022-08-01T08:31:23.000Z</time>
      </trkpt>
      <trkpt lat="42.94347" lon="1.20771">
        <ele>700.8</ele>
        <time>2022-08-01T08:31:25.000Z</time>
      </trkpt>
      <trkpt lat="42.94339" lon="1.20753">
        <ele>698.3</ele>
        <time>2022-08-01T08:31:27.000Z</time>
      </trkpt>
      <trkpt lat="42.94332" lon="1.20729">
        <ele>696.5</ele>
        <time>2022-08-01T08:31:29.000Z</time>
      </trkpt>
      <trkpt lat="42.94329" lon="1.20715">
        <ele>695.2</ele>
        <time>2022-08-01T08:31:30.000Z</time>
      </trkpt>
      <trkpt lat="42.94324" lon="1.20701">
        <ele>693.5</ele>
        <time>2022-08-01T08:31:31.000Z</time>
      </trkpt>
      <trkpt lat="42.94321" lon="1.20686">
        <ele>691.7</ele>
        <time>2022-08-01T08:31:32.000Z</time>
      </trkpt>
      <trkpt lat="42.94319" lon="1.20672">
        <ele>689.1</ele>
        <time>2022-08-01T08:31:33.000Z</time>
      </trkpt>
      <trkpt lat="42.94318" lon="1.20659">
        <ele>688</ele>
        <time>2022-08-01T08:31:34.000Z</time>
      </trkpt>
      <trkpt lat="42.94311" lon="1.20637">
        <ele>685.7</ele>
        <time>2022-08-01T08:31:36.000Z</time>
      </trkpt>
      <trkpt lat="42.94303" lon="1.20629">
        <ele>684.9</ele>
        <time>2022-08-01T08:31:37.000Z</time>
      </trkpt>
      <trkpt lat="42.94295" lon="1.20624">
        <ele>684.1</ele>
        <time>2022-08-01T08:31:38.000Z</time>
      </trkpt>
      <trkpt lat="42.9428" lon="1.20613">
        <ele>682.6</ele>
        <time>2022-08-01T08:31:40.000Z</time>
      </trkpt>
      <trkpt lat="42.9427" lon="1.20596">
        <ele>681.2</ele>
        <time>2022-08-01T08:31:42.000Z</time>
      </trkpt>
      <trkpt lat="42.94268" lon="1.20572">
        <ele>679.2</ele>
        <time>2022-08-01T08:31:44.000Z</time>
      </trkpt>
      <trkpt lat="42.94268" lon="1.20559">
        <ele>678.6</ele>
        <time>2022-08-01T08:31:45.000Z</time>
      </trkpt>
      <trkpt lat="42.94267" lon="1.20546">
        <ele>678.2</ele>
        <time>2022-08-01T08:31:46.000Z</time>
      </trkpt>
      <trkpt lat="42.94265" lon="1.20533">
        <ele>677.8</ele>
        <time>2022-08-01T08:31:47.000Z</time>
      </trkpt>
      <trkpt lat="42.94261" lon="1.2052">
        <ele>676.5</ele>
        <time>2022-08-01T08:31:48.000Z</time>
      </trkpt>
      <trkpt lat="42.94257" lon="1.20507">
        <ele>675.8</ele>
        <time>2022-08-01T08:31:49.000Z</time>
      </trkpt>
      <trkpt lat="42.94253" lon="1.20494">
        <ele>675</ele>
        <time>2022-08-01T08:31:50.000Z</time>
      </trkpt>
      <trkpt lat="42.94249" lon="1.20481">
        <ele>674</ele>
        <time>2022-08-01T08:31:51.000Z</time>
      </trkpt>
      <trkpt lat="42.94245" lon="1.20468">
        <ele>672.9</ele>
        <time>2022-08-01T08:31:52.000Z</time>
      </trkpt>
      <trkpt lat="42.94242" lon="1.20455">
        <ele>671.4</ele>
        <time>2022-08-01T08:31:53.000Z</time>
      </trkpt>
      <trkpt lat="42.94241" lon="1.20441">
        <ele>670.9</ele>
        <time>2022-08-01T08:31:54.000Z</time>
      </trkpt>
      <trkpt lat="42.94241" lon="1.20426">
        <ele>669.9</ele>
        <time>2022-08-01T08:31:55.000Z</time>
      </trkpt>
      <trkpt lat="42.94242" lon="1.20411">
        <ele>668.8</ele>
        <time>2022-08-01T08:31:56.000Z</time>
      </trkpt>
      <trkpt lat="42.94245" lon="1.20396">
        <ele>667.8</ele>
        <time>2022-08-01T08:31:57.000Z</time>
      </trkpt>
      <trkpt lat="42.94248" lon="1.20383">
        <ele>665.7</ele>
        <time>2022-08-01T08:31:58.000Z</time>
      </trkpt>
      <trkpt lat="42.94251" lon="1.2037">
        <ele>664.6</ele>
        <time>2022-08-01T08:31:59.000Z</time>
      </trkpt>
      <trkpt lat="42.94254" lon="1.20352">
        <ele>662.6</ele>
        <time>2022-08-01T08:32:01.000Z</time>
      </trkpt>
      <trkpt lat="42.94253" lon="1.20338">
        <ele>662.3</ele>
        <time>2022-08-01T08:32:03.000Z</time>
      </trkpt>
      <trkpt lat="42.94251" lon="1.20325">
        <ele>662</ele>
        <time>2022-08-01T08:32:05.000Z</time>
      </trkpt>
      <trkpt lat="42.94248" lon="1.2031">
        <ele>661.6</ele>
        <time>2022-08-01T08:32:07.000Z</time>
      </trkpt>
      <trkpt lat="42.94247" lon="1.20293">
        <ele>660.7</ele>
        <time>2022-08-01T08:32:09.000Z</time>
      </trkpt>
      <trkpt lat="42.94245" lon="1.20275">
        <ele>659.8</ele>
        <time>2022-08-01T08:32:11.000Z</time>
      </trkpt>
      <trkpt lat="42.9424" lon="1.20255">
        <ele>658.4</ele>
        <time>2022-08-01T08:32:13.000Z</time>
      </trkpt>
      <trkpt lat="42.94232" lon="1.20234">
        <ele>656.9</ele>
        <time>2022-08-01T08:32:15.000Z</time>
      </trkpt>
      <trkpt lat="42.94224" lon="1.20215">
        <ele>655.6</ele>
        <time>2022-08-01T08:32:17.000Z</time>
      </trkpt>
      <trkpt lat="42.94215" lon="1.20197">
        <ele>654.8</ele>
        <time>2022-08-01T08:32:19.000Z</time>
      </trkpt>
      <trkpt lat="42.94207" lon="1.20179">
        <ele>653.4</ele>
        <time>2022-08-01T08:32:21.000Z</time>
      </trkpt>
      <trkpt lat="42.94197" lon="1.20161">
        <ele>651.4</ele>
        <time>2022-08-01T08:32:23.000Z</time>
      </trkpt>
      <trkpt lat="42.94188" lon="1.20147">
        <ele>650.5</ele>
        <time>2022-08-01T08:32:25.000Z</time>
      </trkpt>
      <trkpt lat="42.94181" lon="1.20132">
        <ele>649.6</ele>
        <time>2022-08-01T08:32:27.000Z</time>
      </trkpt>
      <trkpt lat="42.94179" lon="1.20117">
        <ele>648.6</ele>
        <time>2022-08-01T08:32:29.000Z</time>
      </trkpt>
      <trkpt lat="42.94183" lon="1.20101">
        <ele>649</ele>
        <time>2022-08-01T08:32:32.000Z</time>
      </trkpt>
      <trkpt lat="42.94186" lon="1.20087">
        <ele>650.2</ele>
        <time>2022-08-01T08:32:35.000Z</time>
      </trkpt>
      <trkpt lat="42.94187" lon="1.20073">
        <ele>650.7</ele>
        <time>2022-08-01T08:32:38.000Z</time>
      </trkpt>
      <trkpt lat="42.94188" lon="1.2006">
        <ele>650.8</ele>
        <time>2022-08-01T08:32:41.000Z</time>
      </trkpt>
      <trkpt lat="42.9419" lon="1.20047">
        <ele>651.1</ele>
        <time>2022-08-01T08:32:44.000Z</time>
      </trkpt>
      <trkpt lat="42.94193" lon="1.20034">
        <ele>651.6</ele>
        <time>2022-08-01T08:32:47.000Z</time>
      </trkpt>
      <trkpt lat="42.94195" lon="1.20022">
        <ele>652.6</ele>
        <time>2022-08-01T08:32:50.000Z</time>
      </trkpt>
      <trkpt lat="42.942" lon="1.20009">
        <ele>653.6</ele>
        <time>2022-08-01T08:32:55.000Z</time>
      </trkpt>
      <trkpt lat="42.94208" lon="1.20002">
        <ele>654.2</ele>
        <time>2022-08-01T08:32:59.000Z</time>
      </trkpt>
      <trkpt lat="42.94218" lon="1.19996">
        <ele>656.1</ele>
        <time>2022-08-01T08:33:03.000Z</time>
      </trkpt>
      <trkpt lat="42.94227" lon="1.19993">
        <ele>656.9</ele>
        <time>2022-08-01T08:33:07.000Z</time>
      </trkpt>
      <trkpt lat="42.94237" lon="1.1999">
        <ele>658.5</ele>
        <time>2022-08-01T08:33:11.000Z</time>
      </trkpt>
      <trkpt lat="42.94247" lon="1.19991">
        <ele>659.9</ele>
        <time>2022-08-01T08:33:16.000Z</time>
      </trkpt>
      <trkpt lat="42.94257" lon="1.19994">
        <ele>660.9</ele>
        <time>2022-08-01T08:33:21.000Z</time>
      </trkpt>
      <trkpt lat="42.94266" lon="1.2">
        <ele>661.4</ele>
        <time>2022-08-01T08:33:25.000Z</time>
      </trkpt>
      <trkpt lat="42.94274" lon="1.20008">
        <ele>662.3</ele>
        <time>2022-08-01T08:33:29.000Z</time>
      </trkpt>
      <trkpt lat="42.94282" lon="1.20017">
        <ele>663</ele>
        <time>2022-08-01T08:33:33.000Z</time>
      </trkpt>
      <trkpt lat="42.94287" lon="1.20027">
        <ele>664.7</ele>
        <time>2022-08-01T08:33:37.000Z</time>
      </trkpt>
      <trkpt lat="42.94297" lon="1.20035">
        <ele>665.5</ele>
        <time>2022-08-01T08:33:42.000Z</time>
      </trkpt>
      <trkpt lat="42.94307" lon="1.20041">
        <ele>665.2</ele>
        <time>2022-08-01T08:33:46.000Z</time>
      </trkpt>
      <trkpt lat="42.94318" lon="1.20047">
        <ele>665.1</ele>
        <time>2022-08-01T08:33:50.000Z</time>
      </trkpt>
      <trkpt lat="42.94327" lon="1.20048">
        <ele>665.4</ele>
        <time>2022-08-01T08:33:53.000Z</time>
      </trkpt>
      <trkpt lat="42.94337" lon="1.20051">
        <ele>665.3</ele>
        <time>2022-08-01T08:33:57.000Z</time>
      </trkpt>
      <trkpt lat="42.94346" lon="1.20056">
        <ele>665.7</ele>
        <time>2022-08-01T08:34:01.000Z</time>
      </trkpt>
      <trkpt lat="42.94354" lon="1.20065">
        <ele>666.6</ele>
        <time>2022-08-01T08:34:05.000Z</time>
      </trkpt>
      <trkpt lat="42.94361" lon="1.20073">
        <ele>667.4</ele>
        <time>2022-08-01T08:34:09.000Z</time>
      </trkpt>
      <trkpt lat="42.94368" lon="1.20082">
        <ele>668.9</ele>
        <time>2022-08-01T08:34:14.000Z</time>
      </trkpt>
      <trkpt lat="42.94373" lon="1.20092">
        <ele>669.6</ele>
        <time>2022-08-01T08:34:19.000Z</time>
      </trkpt>
      <trkpt lat="42.94381" lon="1.20102">
        <ele>670.7</ele>
        <time>2022-08-01T08:34:24.000Z</time>
      </trkpt>
      <trkpt lat="42.9439" lon="1.20097">
        <ele>671.6</ele>
        <time>2022-08-01T08:34:28.000Z</time>
      </trkpt>
      <trkpt lat="42.94397" lon="1.20088">
        <ele>672.3</ele>
        <time>2022-08-01T08:34:32.000Z</time>
      </trkpt>
      <trkpt lat="42.94404" lon="1.20079">
        <ele>674.3</ele>
        <time>2022-08-01T08:34:37.000Z</time>
      </trkpt>
      <trkpt lat="42.94412" lon="1.20069">
        <ele>676.1</ele>
        <time>2022-08-01T08:34:43.000Z</time>
      </trkpt>
      <trkpt lat="42.94416" lon="1.20058">
        <ele>677.1</ele>
        <time>2022-08-01T08:34:48.000Z</time>
      </trkpt>
      <trkpt lat="42.94421" lon="1.20047">
        <ele>678.9</ele>
        <time>2022-08-01T08:34:53.000Z</time>
      </trkpt>
      <trkpt lat="42.94427" lon="1.20035">
        <ele>680.7</ele>
        <time>2022-08-01T08:34:59.000Z</time>
      </trkpt>
      <trkpt lat="42.94433" lon="1.20024">
        <ele>681.8</ele>
        <time>2022-08-01T08:35:05.000Z</time>
      </trkpt>
      <trkpt lat="42.94439" lon="1.20012">
        <ele>683.1</ele>
        <time>2022-08-01T08:35:11.000Z</time>
      </trkpt>
      <trkpt lat="42.94445" lon="1.20001">
        <ele>685</ele>
        <time>2022-08-01T08:35:17.000Z</time>
      </trkpt>
      <trkpt lat="42.9445" lon="1.1999">
        <ele>686.1</ele>
        <time>2022-08-01T08:35:22.000Z</time>
      </trkpt>
      <trkpt lat="42.94455" lon="1.19977">
        <ele>688.1</ele>
        <time>2022-08-01T08:35:28.000Z</time>
      </trkpt>
      <trkpt lat="42.9446" lon="1.19966">
        <ele>689.4</ele>
        <time>2022-08-01T08:35:34.000Z</time>
      </trkpt>
      <trkpt lat="42.94463" lon="1.19953">
        <ele>691.1</ele>
        <time>2022-08-01T08:35:40.000Z</time>
      </trkpt>
      <trkpt lat="42.94467" lon="1.19942">
        <ele>692.8</ele>
        <time>2022-08-01T08:35:45.000Z</time>
      </trkpt>
      <trkpt lat="42.94464" lon="1.19955">
        <ele>692.1</ele>
        <time>2022-08-01T08:35:53.000Z</time>
      </trkpt>
      <trkpt lat="42.94464" lon="1.1997">
        <ele>692.7</ele>
        <time>2022-08-01T08:35:57.000Z</time>
      </trkpt>
      <trkpt lat="42.94464" lon="1.19983">
        <ele>693</ele>
        <time>2022-08-01T08:36:01.000Z</time>
      </trkpt>
      <trkpt lat="42.94463" lon="1.19997">
        <ele>693.3</ele>
        <time>2022-08-01T08:36:06.000Z</time>
      </trkpt>
      <trkpt lat="42.94461" lon="1.2001">
        <ele>694.5</ele>
        <time>2022-08-01T08:36:11.000Z</time>
      </trkpt>
      <trkpt lat="42.94459" lon="1.20026">
        <ele>695.3</ele>
        <time>2022-08-01T08:36:16.000Z</time>
      </trkpt>
      <trkpt lat="42.94458" lon="1.2004">
        <ele>695.5</ele>
        <time>2022-08-01T08:36:22.000Z</time>
      </trkpt>
      <trkpt lat="42.94456" lon="1.20055">
        <ele>696.6</ele>
        <time>2022-08-01T08:36:29.000Z</time>
      </trkpt>
      <trkpt lat="42.94454" lon="1.20068">
        <ele>697.6</ele>
        <time>2022-08-01T08:36:34.000Z</time>
      </trkpt>
      <trkpt lat="42.94457" lon="1.2008">
        <ele>700.1</ele>
        <time>2022-08-01T08:36:41.000Z</time>
      </trkpt>
      <trkpt lat="42.94459" lon="1.20092">
        <ele>702</ele>
        <time>2022-08-01T08:36:48.000Z</time>
      </trkpt>
      <trkpt lat="42.94458" lon="1.20088">
        <ele>701.7</ele>
        <time>2022-08-01T08:36:55.000Z</time>
      </trkpt>
      <trkpt lat="42.94458" lon="1.20087">
        <ele>701.2</ele>
        <time>2022-08-01T08:36:59.000Z</time>
      </trkpt>
      <trkpt lat="42.94457" lon="1.20086">
        <ele>701</ele>
        <time>2022-08-01T08:37:01.000Z</time>
      </trkpt>
      <trkpt lat="42.94457" lon="1.20087">
        <ele>701.3</ele>
        <time>2022-08-01T08:37:12.000Z</time>
      </trkpt>
      <trkpt lat="42.94456" lon="1.20086">
        <ele>701.4</ele>
        <time>2022-08-01T08:37:19.000Z</time>
      </trkpt>
      <trkpt lat="42.94453" lon="1.20074">
        <ele>699.4</ele>
        <time>2022-08-01T08:37:34.000Z</time>
      </trkpt>
      <trkpt lat="42.94452" lon="1.20059">
        <ele>697.1</ele>
        <time>2022-08-01T08:37:39.000Z</time>
      </trkpt>
      <trkpt lat="42.94454" lon="1.20042">
        <ele>696.7</ele>
        <time>2022-08-01T08:37:42.000Z</time>
      </trkpt>
      <trkpt lat="42.94458" lon="1.20025">
        <ele>696.4</ele>
        <time>2022-08-01T08:37:45.000Z</time>
      </trkpt>
      <trkpt lat="42.94459" lon="1.20011">
        <ele>695.7</ele>
        <time>2022-08-01T08:37:47.000Z</time>
      </trkpt>
      <trkpt lat="42.9446" lon="1.19997">
        <ele>694.9</ele>
        <time>2022-08-01T08:37:49.000Z</time>
      </trkpt>
      <trkpt lat="42.94463" lon="1.1998">
        <ele>693.9</ele>
        <time>2022-08-01T08:37:52.000Z</time>
      </trkpt>
      <trkpt lat="42.94463" lon="1.19962">
        <ele>693.5</ele>
        <time>2022-08-01T08:37:55.000Z</time>
      </trkpt>
      <trkpt lat="42.94461" lon="1.19949">
        <ele>691.8</ele>
        <time>2022-08-01T08:37:59.000Z</time>
      </trkpt>
      <trkpt lat="42.94459" lon="1.19935">
        <ele>690.6</ele>
        <time>2022-08-01T08:38:04.000Z</time>
      </trkpt>
      <trkpt lat="42.94455" lon="1.19918">
        <ele>688.6</ele>
        <time>2022-08-01T08:38:07.000Z</time>
      </trkpt>
      <trkpt lat="42.94454" lon="1.199">
        <ele>687.5</ele>
        <time>2022-08-01T08:38:09.000Z</time>
      </trkpt>
      <trkpt lat="42.94453" lon="1.19877">
        <ele>686.1</ele>
        <time>2022-08-01T08:38:11.000Z</time>
      </trkpt>
      <trkpt lat="42.94453" lon="1.19864">
        <ele>684.5</ele>
        <time>2022-08-01T08:38:12.000Z</time>
      </trkpt>
      <trkpt lat="42.94454" lon="1.19843">
        <ele>683.1</ele>
        <time>2022-08-01T08:38:14.000Z</time>
      </trkpt>
      <trkpt lat="42.94458" lon="1.19825">
        <ele>682.9</ele>
        <time>2022-08-01T08:38:16.000Z</time>
      </trkpt>
      <trkpt lat="42.94464" lon="1.19807">
        <ele>681.3</ele>
        <time>2022-08-01T08:38:18.000Z</time>
      </trkpt>
      <trkpt lat="42.94473" lon="1.19789">
        <ele>679.6</ele>
        <time>2022-08-01T08:38:20.000Z</time>
      </trkpt>
      <trkpt lat="42.94481" lon="1.19769">
        <ele>678.4</ele>
        <time>2022-08-01T08:38:22.000Z</time>
      </trkpt>
      <trkpt lat="42.94487" lon="1.19748">
        <ele>677</ele>
        <time>2022-08-01T08:38:24.000Z</time>
      </trkpt>
      <trkpt lat="42.94491" lon="1.19731">
        <ele>676.4</ele>
        <time>2022-08-01T08:38:26.000Z</time>
      </trkpt>
      <trkpt lat="42.94492" lon="1.19716">
        <ele>676.3</ele>
        <time>2022-08-01T08:38:28.000Z</time>
      </trkpt>
      <trkpt lat="42.94489" lon="1.19699">
        <ele>675.1</ele>
        <time>2022-08-01T08:38:30.000Z</time>
      </trkpt>
      <trkpt lat="42.94483" lon="1.19683">
        <ele>674.6</ele>
        <time>2022-08-01T08:38:32.000Z</time>
      </trkpt>
      <trkpt lat="42.94478" lon="1.1967">
        <ele>674.2</ele>
        <time>2022-08-01T08:38:34.000Z</time>
      </trkpt>
      <trkpt lat="42.94471" lon="1.19657">
        <ele>674</ele>
        <time>2022-08-01T08:38:36.000Z</time>
      </trkpt>
      <trkpt lat="42.94464" lon="1.19647">
        <ele>673.7</ele>
        <time>2022-08-01T08:38:38.000Z</time>
      </trkpt>
      <trkpt lat="42.94457" lon="1.19638">
        <ele>673</ele>
        <time>2022-08-01T08:38:40.000Z</time>
      </trkpt>
      <trkpt lat="42.9445" lon="1.1963">
        <ele>673.5</ele>
        <time>2022-08-01T08:38:42.000Z</time>
      </trkpt>
      <trkpt lat="42.94442" lon="1.19619">
        <ele>673.5</ele>
        <time>2022-08-01T08:38:45.000Z</time>
      </trkpt>
      <trkpt lat="42.94438" lon="1.19605">
        <ele>674.5</ele>
        <time>2022-08-01T08:38:50.000Z</time>
      </trkpt>
      <trkpt lat="42.9444" lon="1.19592">
        <ele>676.5</ele>
        <time>2022-08-01T08:38:54.000Z</time>
      </trkpt>
      <trkpt lat="42.94444" lon="1.19578">
        <ele>677.7</ele>
        <time>2022-08-01T08:38:58.000Z</time>
      </trkpt>
      <trkpt lat="42.94452" lon="1.19569">
        <ele>678</ele>
        <time>2022-08-01T08:39:01.000Z</time>
      </trkpt>
      <trkpt lat="42.9446" lon="1.19561">
        <ele>678.3</ele>
        <time>2022-08-01T08:39:04.000Z</time>
      </trkpt>
      <trkpt lat="42.9447" lon="1.19554">
        <ele>678.4</ele>
        <time>2022-08-01T08:39:07.000Z</time>
      </trkpt>
      <trkpt lat="42.94479" lon="1.19551">
        <ele>679.3</ele>
        <time>2022-08-01T08:39:10.000Z</time>
      </trkpt>
      <trkpt lat="42.94488" lon="1.19551">
        <ele>680.2</ele>
        <time>2022-08-01T08:39:13.000Z</time>
      </trkpt>
      <trkpt lat="42.94498" lon="1.1955">
        <ele>681</ele>
        <time>2022-08-01T08:39:16.000Z</time>
      </trkpt>
      <trkpt lat="42.9451" lon="1.19547">
        <ele>682</ele>
        <time>2022-08-01T08:39:20.000Z</time>
      </trkpt>
      <trkpt lat="42.94519" lon="1.19542">
        <ele>682</ele>
        <time>2022-08-01T08:39:24.000Z</time>
      </trkpt>
      <trkpt lat="42.94528" lon="1.19536">
        <ele>682.3</ele>
        <time>2022-08-01T08:39:28.000Z</time>
      </trkpt>
      <trkpt lat="42.94538" lon="1.19528">
        <ele>682.7</ele>
        <time>2022-08-01T08:39:32.000Z</time>
      </trkpt>
      <trkpt lat="42.94545" lon="1.19518">
        <ele>683.6</ele>
        <time>2022-08-01T08:39:36.000Z</time>
      </trkpt>
      <trkpt lat="42.9455" lon="1.19504">
        <ele>683.8</ele>
        <time>2022-08-01T08:39:40.000Z</time>
      </trkpt>
      <trkpt lat="42.94553" lon="1.19489">
        <ele>684.1</ele>
        <time>2022-08-01T08:39:44.000Z</time>
      </trkpt>
      <trkpt lat="42.94553" lon="1.19472">
        <ele>683.3</ele>
        <time>2022-08-01T08:39:48.000Z</time>
      </trkpt>
      <trkpt lat="42.94554" lon="1.1946">
        <ele>683.6</ele>
        <time>2022-08-01T08:39:51.000Z</time>
      </trkpt>
      <trkpt lat="42.94555" lon="1.19447">
        <ele>683.3</ele>
        <time>2022-08-01T08:39:54.000Z</time>
      </trkpt>
      <trkpt lat="42.94557" lon="1.19433">
        <ele>683.9</ele>
        <time>2022-08-01T08:39:58.000Z</time>
      </trkpt>
      <trkpt lat="42.94559" lon="1.1942">
        <ele>683.3</ele>
        <time>2022-08-01T08:40:02.000Z</time>
      </trkpt>
      <trkpt lat="42.94562" lon="1.19408">
        <ele>683.6</ele>
        <time>2022-08-01T08:40:06.000Z</time>
      </trkpt>
      <trkpt lat="42.94565" lon="1.19396">
        <ele>683.6</ele>
        <time>2022-08-01T08:40:10.000Z</time>
      </trkpt>
      <trkpt lat="42.94564" lon="1.19383">
        <ele>683.7</ele>
        <time>2022-08-01T08:40:14.000Z</time>
      </trkpt>
      <trkpt lat="42.94558" lon="1.19371">
        <ele>684.3</ele>
        <time>2022-08-01T08:40:18.000Z</time>
      </trkpt>
      <trkpt lat="42.94552" lon="1.1936">
        <ele>684.6</ele>
        <time>2022-08-01T08:40:22.000Z</time>
      </trkpt>
      <trkpt lat="42.94547" lon="1.19348">
        <ele>684.8</ele>
        <time>2022-08-01T08:40:26.000Z</time>
      </trkpt>
      <trkpt lat="42.94544" lon="1.19334">
        <ele>684.9</ele>
        <time>2022-08-01T08:40:30.000Z</time>
      </trkpt>
      <trkpt lat="42.94543" lon="1.19321">
        <ele>683.6</ele>
        <time>2022-08-01T08:40:33.000Z</time>
      </trkpt>
      <trkpt lat="42.94547" lon="1.19302">
        <ele>683.2</ele>
        <time>2022-08-01T08:40:36.000Z</time>
      </trkpt>
      <trkpt lat="42.94551" lon="1.19284">
        <ele>681.8</ele>
        <time>2022-08-01T08:40:38.000Z</time>
      </trkpt>
      <trkpt lat="42.94555" lon="1.19264">
        <ele>680.6</ele>
        <time>2022-08-01T08:40:40.000Z</time>
      </trkpt>
      <trkpt lat="42.94559" lon="1.19248">
        <ele>679.3</ele>
        <time>2022-08-01T08:40:42.000Z</time>
      </trkpt>
      <trkpt lat="42.94563" lon="1.19233">
        <ele>677.1</ele>
        <time>2022-08-01T08:40:44.000Z</time>
      </trkpt>
      <trkpt lat="42.94568" lon="1.19221">
        <ele>676.2</ele>
        <time>2022-08-01T08:40:46.000Z</time>
      </trkpt>
      <trkpt lat="42.94575" lon="1.19206">
        <ele>677</ele>
        <time>2022-08-01T08:40:49.000Z</time>
      </trkpt>
      <trkpt lat="42.94582" lon="1.19197">
        <ele>676.9</ele>
        <time>2022-08-01T08:40:52.000Z</time>
      </trkpt>
      <trkpt lat="42.9459" lon="1.19188">
        <ele>678.6</ele>
        <time>2022-08-01T08:40:56.000Z</time>
      </trkpt>
      <trkpt lat="42.94597" lon="1.19178">
        <ele>679.1</ele>
        <time>2022-08-01T08:41:00.000Z</time>
      </trkpt>
      <trkpt lat="42.94601" lon="1.19167">
        <ele>679.3</ele>
        <time>2022-08-01T08:41:04.000Z</time>
      </trkpt>
      <trkpt lat="42.94604" lon="1.19151">
        <ele>679</ele>
        <time>2022-08-01T08:41:08.000Z</time>
      </trkpt>
      <trkpt lat="42.94605" lon="1.19135">
        <ele>679.6</ele>
        <time>2022-08-01T08:41:12.000Z</time>
      </trkpt>
      <trkpt lat="42.94603" lon="1.19119">
        <ele>678.4</ele>
        <time>2022-08-01T08:41:15.000Z</time>
      </trkpt>
      <trkpt lat="42.94602" lon="1.19104">
        <ele>678.2</ele>
        <time>2022-08-01T08:41:19.000Z</time>
      </trkpt>
      <trkpt lat="42.94604" lon="1.19089">
        <ele>678.5</ele>
        <time>2022-08-01T08:41:23.000Z</time>
      </trkpt>
      <trkpt lat="42.94606" lon="1.19077">
        <ele>678.4</ele>
        <time>2022-08-01T08:41:26.000Z</time>
      </trkpt>
      <trkpt lat="42.9461" lon="1.19064">
        <ele>677.8</ele>
        <time>2022-08-01T08:41:29.000Z</time>
      </trkpt>
      <trkpt lat="42.94613" lon="1.1905">
        <ele>678.1</ele>
        <time>2022-08-01T08:41:32.000Z</time>
      </trkpt>
      <trkpt lat="42.94617" lon="1.19036">
        <ele>677.1</ele>
        <time>2022-08-01T08:41:35.000Z</time>
      </trkpt>
      <trkpt lat="42.94621" lon="1.19021">
        <ele>675.5</ele>
        <time>2022-08-01T08:41:38.000Z</time>
      </trkpt>
      <trkpt lat="42.94624" lon="1.19006">
        <ele>676</ele>
        <time>2022-08-01T08:41:41.000Z</time>
      </trkpt>
      <trkpt lat="42.94627" lon="1.18991">
        <ele>675.8</ele>
        <time>2022-08-01T08:41:44.000Z</time>
      </trkpt>
      <trkpt lat="42.94625" lon="1.18979">
        <ele>676.1</ele>
        <time>2022-08-01T08:41:47.000Z</time>
      </trkpt>
      <trkpt lat="42.94624" lon="1.18966">
        <ele>676.1</ele>
        <time>2022-08-01T08:41:51.000Z</time>
      </trkpt>
      <trkpt lat="42.94624" lon="1.18951">
        <ele>676.2</ele>
        <time>2022-08-01T08:41:54.000Z</time>
      </trkpt>
      <trkpt lat="42.94624" lon="1.18938">
        <ele>675.4</ele>
        <time>2022-08-01T08:41:56.000Z</time>
      </trkpt>
      <trkpt lat="42.94625" lon="1.18926">
        <ele>674.6</ele>
        <time>2022-08-01T08:41:58.000Z</time>
      </trkpt>
      <trkpt lat="42.94627" lon="1.18912">
        <ele>673.5</ele>
        <time>2022-08-01T08:42:01.000Z</time>
      </trkpt>
      <trkpt lat="42.9463" lon="1.189">
        <ele>672.3</ele>
        <time>2022-08-01T08:42:05.000Z</time>
      </trkpt>
      <trkpt lat="42.94631" lon="1.18885">
        <ele>670.7</ele>
        <time>2022-08-01T08:42:08.000Z</time>
      </trkpt>
      <trkpt lat="42.94634" lon="1.18871">
        <ele>668.5</ele>
        <time>2022-08-01T08:42:11.000Z</time>
      </trkpt>
      <trkpt lat="42.94637" lon="1.18858">
        <ele>667.3</ele>
        <time>2022-08-01T08:42:14.000Z</time>
      </trkpt>
      <trkpt lat="42.9464" lon="1.18845">
        <ele>665.7</ele>
        <time>2022-08-01T08:42:18.000Z</time>
      </trkpt>
      <trkpt lat="42.94642" lon="1.18829">
        <ele>664.8</ele>
        <time>2022-08-01T08:42:22.000Z</time>
      </trkpt>
      <trkpt lat="42.94643" lon="1.18816">
        <ele>663.8</ele>
        <time>2022-08-01T08:42:26.000Z</time>
      </trkpt>
      <trkpt lat="42.94644" lon="1.188">
        <ele>661.7</ele>
        <time>2022-08-01T08:42:30.000Z</time>
      </trkpt>
      <trkpt lat="42.94646" lon="1.18787">
        <ele>659.8</ele>
        <time>2022-08-01T08:42:33.000Z</time>
      </trkpt>
      <trkpt lat="42.94647" lon="1.18774">
        <ele>658.1</ele>
        <time>2022-08-01T08:42:36.000Z</time>
      </trkpt>
      <trkpt lat="42.94648" lon="1.18762">
        <ele>655.8</ele>
        <time>2022-08-01T08:42:39.000Z</time>
      </trkpt>
      <trkpt lat="42.94651" lon="1.18745">
        <ele>653.9</ele>
        <time>2022-08-01T08:42:43.000Z</time>
      </trkpt>
      <trkpt lat="42.94655" lon="1.18731">
        <ele>652.3</ele>
        <time>2022-08-01T08:42:46.000Z</time>
      </trkpt>
      <trkpt lat="42.94657" lon="1.18719">
        <ele>650.3</ele>
        <time>2022-08-01T08:42:50.000Z</time>
      </trkpt>
      <trkpt lat="42.94659" lon="1.18705">
        <ele>648.3</ele>
        <time>2022-08-01T08:42:53.000Z</time>
      </trkpt>
      <trkpt lat="42.9466" lon="1.1869">
        <ele>647.1</ele>
        <time>2022-08-01T08:42:56.000Z</time>
      </trkpt>
      <trkpt lat="42.94663" lon="1.18677">
        <ele>645.4</ele>
        <time>2022-08-01T08:42:59.000Z</time>
      </trkpt>
      <trkpt lat="42.94666" lon="1.18664">
        <ele>642.4</ele>
        <time>2022-08-01T08:43:04.000Z</time>
      </trkpt>
      <trkpt lat="42.94672" lon="1.18653">
        <ele>640.6</ele>
        <time>2022-08-01T08:43:15.000Z</time>
      </trkpt>
      <trkpt lat="42.94674" lon="1.18639">
        <ele>639.7</ele>
        <time>2022-08-01T08:43:19.000Z</time>
      </trkpt>
      <trkpt lat="42.94678" lon="1.18628">
        <ele>638.5</ele>
        <time>2022-08-01T08:43:22.000Z</time>
      </trkpt>
      <trkpt lat="42.94682" lon="1.18614">
        <ele>636.8</ele>
        <time>2022-08-01T08:43:25.000Z</time>
      </trkpt>
      <trkpt lat="42.94686" lon="1.18602">
        <ele>635</ele>
        <time>2022-08-01T08:43:29.000Z</time>
      </trkpt>
      <trkpt lat="42.9469" lon="1.18587">
        <ele>633.6</ele>
        <time>2022-08-01T08:43:33.000Z</time>
      </trkpt>
      <trkpt lat="42.94694" lon="1.18571">
        <ele>633.1</ele>
        <time>2022-08-01T08:43:37.000Z</time>
      </trkpt>
      <trkpt lat="42.94699" lon="1.18555">
        <ele>631.8</ele>
        <time>2022-08-01T08:43:40.000Z</time>
      </trkpt>
      <trkpt lat="42.94701" lon="1.18542">
        <ele>629</ele>
        <time>2022-08-01T08:43:44.000Z</time>
      </trkpt>
      <trkpt lat="42.94703" lon="1.18527">
        <ele>626.7</ele>
        <time>2022-08-01T08:43:47.000Z</time>
      </trkpt>
      <trkpt lat="42.94704" lon="1.18511">
        <ele>625.1</ele>
        <time>2022-08-01T08:43:50.000Z</time>
      </trkpt>
      <trkpt lat="42.94704" lon="1.18498">
        <ele>623</ele>
        <time>2022-08-01T08:43:55.000Z</time>
      </trkpt>
      <trkpt lat="42.94704" lon="1.18484">
        <ele>621.7</ele>
        <time>2022-08-01T08:43:59.000Z</time>
      </trkpt>
      <trkpt lat="42.94703" lon="1.18469">
        <ele>619.5</ele>
        <time>2022-08-01T08:44:02.000Z</time>
      </trkpt>
      <trkpt lat="42.947" lon="1.18456">
        <ele>617.8</ele>
        <time>2022-08-01T08:44:07.000Z</time>
      </trkpt>
      <trkpt lat="42.94697" lon="1.18443">
        <ele>616.4</ele>
        <time>2022-08-01T08:44:11.000Z</time>
      </trkpt>
      <trkpt lat="42.94695" lon="1.1843">
        <ele>613.7</ele>
        <time>2022-08-01T08:44:16.000Z</time>
      </trkpt>
      <trkpt lat="42.94694" lon="1.18416">
        <ele>610.9</ele>
        <time>2022-08-01T08:44:20.000Z</time>
      </trkpt>
      <trkpt lat="42.94691" lon="1.18402">
        <ele>608</ele>
        <time>2022-08-01T08:44:24.000Z</time>
      </trkpt>
      <trkpt lat="42.94691" lon="1.18389">
        <ele>606.5</ele>
        <time>2022-08-01T08:44:28.000Z</time>
      </trkpt>
      <trkpt lat="42.94689" lon="1.18376">
        <ele>604.2</ele>
        <time>2022-08-01T08:44:32.000Z</time>
      </trkpt>
      <trkpt lat="42.94688" lon="1.18361">
        <ele>602.3</ele>
        <time>2022-08-01T08:44:36.000Z</time>
      </trkpt>
      <trkpt lat="42.94687" lon="1.18347">
        <ele>600</ele>
        <time>2022-08-01T08:44:40.000Z</time>
      </trkpt>
      <trkpt lat="42.94687" lon="1.18332">
        <ele>598.9</ele>
        <time>2022-08-01T08:44:43.000Z</time>
      </trkpt>
      <trkpt lat="42.94689" lon="1.18318">
        <ele>597</ele>
        <time>2022-08-01T08:44:46.000Z</time>
      </trkpt>
      <trkpt lat="42.94689" lon="1.183">
        <ele>593.5</ele>
        <time>2022-08-01T08:44:50.000Z</time>
      </trkpt>
      <trkpt lat="42.9469" lon="1.18285">
        <ele>592.1</ele>
        <time>2022-08-01T08:44:52.000Z</time>
      </trkpt>
      <trkpt lat="42.94691" lon="1.18273">
        <ele>589.9</ele>
        <time>2022-08-01T08:44:54.000Z</time>
      </trkpt>
      <trkpt lat="42.94694" lon="1.18256">
        <ele>586.7</ele>
        <time>2022-08-01T08:44:57.000Z</time>
      </trkpt>
      <trkpt lat="42.94698" lon="1.18242">
        <ele>585.6</ele>
        <time>2022-08-01T08:44:59.000Z</time>
      </trkpt>
      <trkpt lat="42.94702" lon="1.18226">
        <ele>583.6</ele>
        <time>2022-08-01T08:45:01.000Z</time>
      </trkpt>
      <trkpt lat="42.94705" lon="1.18212">
        <ele>582.3</ele>
        <time>2022-08-01T08:45:03.000Z</time>
      </trkpt>
      <trkpt lat="42.9471" lon="1.182">
        <ele>581.5</ele>
        <time>2022-08-01T08:45:05.000Z</time>
      </trkpt>
      <trkpt lat="42.94714" lon="1.18187">
        <ele>579.4</ele>
        <time>2022-08-01T08:45:08.000Z</time>
      </trkpt>
      <trkpt lat="42.94722" lon="1.18178">
        <ele>579.4</ele>
        <time>2022-08-01T08:45:13.000Z</time>
      </trkpt>
      <trkpt lat="42.94731" lon="1.1817">
        <ele>578.8</ele>
        <time>2022-08-01T08:45:18.000Z</time>
      </trkpt>
      <trkpt lat="42.9474" lon="1.18164">
        <ele>578.4</ele>
        <time>2022-08-01T08:45:22.000Z</time>
      </trkpt>
      <trkpt lat="42.94746" lon="1.18152">
        <ele>576</ele>
        <time>2022-08-01T08:45:27.000Z</time>
      </trkpt>
      <trkpt lat="42.94749" lon="1.18139">
        <ele>573.6</ele>
        <time>2022-08-01T08:45:34.000Z</time>
      </trkpt>
      <trkpt lat="42.94754" lon="1.18134">
        <ele>572.5</ele>
        <time>2022-08-01T08:45:41.000Z</time>
      </trkpt>
      <trkpt lat="42.94756" lon="1.18133">
        <ele>572.3</ele>
        <time>2022-08-01T08:45:53.000Z</time>
      </trkpt>
      <trkpt lat="42.94756" lon="1.18132">
        <ele>571.2</ele>
        <time>2022-08-01T08:53:11.000Z</time>
      </trkpt>
      <trkpt lat="42.94756" lon="1.18132">
        <ele>569.6</ele>
        <time>2022-08-01T08:55:57.000Z</time>
      </trkpt>
      <trkpt lat="42.94756" lon="1.18131">
        <ele>552.3</ele>
        <time>2022-08-01T09:43:36.000Z</time>
      </trkpt>
      <trkpt lat="42.94755" lon="1.18132">
        <ele>552.1</ele>
        <time>2022-08-01T09:43:41.000Z</time>
      </trkpt>
      <trkpt lat="42.94754" lon="1.18132">
        <ele>552</ele>
        <time>2022-08-01T09:44:06.000Z</time>
      </trkpt>
      <trkpt lat="42.94754" lon="1.18133">
        <ele>551.9</ele>
        <time>2022-08-01T09:45:42.000Z</time>
      </trkpt>
      <trkpt lat="42.9475" lon="1.18121">
        <ele>550.5</ele>
        <time>2022-08-01T09:46:02.000Z</time>
      </trkpt>
      <trkpt lat="42.94758" lon="1.18109">
        <ele>549.1</ele>
        <time>2022-08-01T09:46:05.000Z</time>
      </trkpt>
      <trkpt lat="42.94769" lon="1.18101">
        <ele>547.7</ele>
        <time>2022-08-01T09:46:07.000Z</time>
      </trkpt>
      <trkpt lat="42.94782" lon="1.181">
        <ele>546.3</ele>
        <time>2022-08-01T09:46:09.000Z</time>
      </trkpt>
      <trkpt lat="42.94795" lon="1.18102">
        <ele>545.8</ele>
        <time>2022-08-01T09:46:11.000Z</time>
      </trkpt>
      <trkpt lat="42.94807" lon="1.18106">
        <ele>543.6</ele>
        <time>2022-08-01T09:46:13.000Z</time>
      </trkpt>
      <trkpt lat="42.94819" lon="1.1811">
        <ele>541.8</ele>
        <time>2022-08-01T09:46:16.000Z</time>
      </trkpt>
      <trkpt lat="42.94826" lon="1.18101">
        <ele>540.5</ele>
        <time>2022-08-01T09:46:19.000Z</time>
      </trkpt>
      <trkpt lat="42.94829" lon="1.18085">
        <ele>538.5</ele>
        <time>2022-08-01T09:46:21.000Z</time>
      </trkpt>
      <trkpt lat="42.94832" lon="1.18066">
        <ele>536.7</ele>
        <time>2022-08-01T09:46:23.000Z</time>
      </trkpt>
      <trkpt lat="42.94833" lon="1.18048">
        <ele>535.1</ele>
        <time>2022-08-01T09:46:25.000Z</time>
      </trkpt>
      <trkpt lat="42.94831" lon="1.18032">
        <ele>532.7</ele>
        <time>2022-08-01T09:46:27.000Z</time>
      </trkpt>
      <trkpt lat="42.94828" lon="1.18017">
        <ele>531.9</ele>
        <time>2022-08-01T09:46:29.000Z</time>
      </trkpt>
      <trkpt lat="42.94826" lon="1.18001">
        <ele>530.2</ele>
        <time>2022-08-01T09:46:31.000Z</time>
      </trkpt>
      <trkpt lat="42.94824" lon="1.17984">
        <ele>528.5</ele>
        <time>2022-08-01T09:46:33.000Z</time>
      </trkpt>
      <trkpt lat="42.94823" lon="1.17967">
        <ele>527.6</ele>
        <time>2022-08-01T09:46:35.000Z</time>
      </trkpt>
      <trkpt lat="42.94824" lon="1.1795">
        <ele>526.6</ele>
        <time>2022-08-01T09:46:37.000Z</time>
      </trkpt>
      <trkpt lat="42.94826" lon="1.17934">
        <ele>526.7</ele>
        <time>2022-08-01T09:46:39.000Z</time>
      </trkpt>
      <trkpt lat="42.94826" lon="1.17918">
        <ele>526.1</ele>
        <time>2022-08-01T09:46:41.000Z</time>
      </trkpt>
      <trkpt lat="42.94825" lon="1.17905">
        <ele>526.6</ele>
        <time>2022-08-01T09:46:44.000Z</time>
      </trkpt>
      <trkpt lat="42.94822" lon="1.17892">
        <ele>527.9</ele>
        <time>2022-08-01T09:46:48.000Z</time>
      </trkpt>
      <trkpt lat="42.94814" lon="1.17882">
        <ele>528.5</ele>
        <time>2022-08-01T09:46:52.000Z</time>
      </trkpt>
      <trkpt lat="42.94805" lon="1.17871">
        <ele>528</ele>
        <time>2022-08-01T09:46:56.000Z</time>
      </trkpt>
      <trkpt lat="42.94797" lon="1.17863">
        <ele>527.2</ele>
        <time>2022-08-01T09:46:59.000Z</time>
      </trkpt>
      <trkpt lat="42.94789" lon="1.17854">
        <ele>525.6</ele>
        <time>2022-08-01T09:47:02.000Z</time>
      </trkpt>
      <trkpt lat="42.94779" lon="1.17848">
        <ele>524.2</ele>
        <time>2022-08-01T09:47:05.000Z</time>
      </trkpt>
      <trkpt lat="42.9477" lon="1.17842">
        <ele>522.8</ele>
        <time>2022-08-01T09:47:07.000Z</time>
      </trkpt>
      <trkpt lat="42.94759" lon="1.17835">
        <ele>520.1</ele>
        <time>2022-08-01T09:47:10.000Z</time>
      </trkpt>
      <trkpt lat="42.94752" lon="1.1783">
        <ele>517.7</ele>
        <time>2022-08-01T09:47:16.000Z</time>
      </trkpt>
      <trkpt lat="42.94752" lon="1.17829">
        <ele>517.6</ele>
        <time>2022-08-01T09:47:18.000Z</time>
      </trkpt>
      <trkpt lat="42.94752" lon="1.1783">
        <ele>517.8</ele>
        <time>2022-08-01T09:47:19.000Z</time>
      </trkpt>
      <trkpt lat="42.94752" lon="1.17829">
        <ele>517.2</ele>
        <time>2022-08-01T09:47:27.000Z</time>
      </trkpt>
      <trkpt lat="42.94744" lon="1.17819">
        <ele>515.3</ele>
        <time>2022-08-01T09:47:32.000Z</time>
      </trkpt>
      <trkpt lat="42.94736" lon="1.17806">
        <ele>513.7</ele>
        <time>2022-08-01T09:47:35.000Z</time>
      </trkpt>
      <trkpt lat="42.94729" lon="1.17794">
        <ele>510</ele>
        <time>2022-08-01T09:47:38.000Z</time>
      </trkpt>
      <trkpt lat="42.94722" lon="1.17783">
        <ele>508.4</ele>
        <time>2022-08-01T09:47:41.000Z</time>
      </trkpt>
      <trkpt lat="42.94716" lon="1.17773">
        <ele>504.1</ele>
        <time>2022-08-01T09:47:44.000Z</time>
      </trkpt>
      <trkpt lat="42.94708" lon="1.1776">
        <ele>499.6</ele>
        <time>2022-08-01T09:47:48.000Z</time>
      </trkpt>
      <trkpt lat="42.94703" lon="1.17749">
        <ele>497.8</ele>
        <time>2022-08-01T09:47:50.000Z</time>
      </trkpt>
      <trkpt lat="42.94696" lon="1.17733">
        <ele>495</ele>
        <time>2022-08-01T09:47:53.000Z</time>
      </trkpt>
      <trkpt lat="42.94689" lon="1.17719">
        <ele>492.3</ele>
        <time>2022-08-01T09:47:55.000Z</time>
      </trkpt>
      <trkpt lat="42.94683" lon="1.17705">
        <ele>489.5</ele>
        <time>2022-08-01T09:47:58.000Z</time>
      </trkpt>
      <trkpt lat="42.94676" lon="1.17696">
        <ele>486.3</ele>
        <time>2022-08-01T09:48:02.000Z</time>
      </trkpt>
      <trkpt lat="42.9467" lon="1.17685">
        <ele>483.7</ele>
        <time>2022-08-01T09:48:08.000Z</time>
      </trkpt>
      <trkpt lat="42.94668" lon="1.17669">
        <ele>483.1</ele>
        <time>2022-08-01T09:48:12.000Z</time>
      </trkpt>
      <trkpt lat="42.94665" lon="1.17658">
        <ele>481.9</ele>
        <time>2022-08-01T09:48:15.000Z</time>
      </trkpt>
      <trkpt lat="42.94661" lon="1.17646">
        <ele>479.3</ele>
        <time>2022-08-01T09:48:18.000Z</time>
      </trkpt>
      <trkpt lat="42.94657" lon="1.17634">
        <ele>476.3</ele>
        <time>2022-08-01T09:48:21.000Z</time>
      </trkpt>
      <trkpt lat="42.94652" lon="1.17622">
        <ele>474.4</ele>
        <time>2022-08-01T09:48:24.000Z</time>
      </trkpt>
      <trkpt lat="42.94647" lon="1.17611">
        <ele>471.9</ele>
        <time>2022-08-01T09:48:27.000Z</time>
      </trkpt>
      <trkpt lat="42.94641" lon="1.17598">
        <ele>469</ele>
        <time>2022-08-01T09:48:31.000Z</time>
      </trkpt>
      <trkpt lat="42.94632" lon="1.17588">
        <ele>466.5</ele>
        <time>2022-08-01T09:48:35.000Z</time>
      </trkpt>
      <trkpt lat="42.94626" lon="1.17576">
        <ele>464.1</ele>
        <time>2022-08-01T09:48:39.000Z</time>
      </trkpt>
      <trkpt lat="42.94624" lon="1.17564">
        <ele>463.4</ele>
        <time>2022-08-01T09:48:42.000Z</time>
      </trkpt>
      <trkpt lat="42.94617" lon="1.17552">
        <ele>460.9</ele>
        <time>2022-08-01T09:48:45.000Z</time>
      </trkpt>
      <trkpt lat="42.94611" lon="1.17539">
        <ele>458.6</ele>
        <time>2022-08-01T09:48:49.000Z</time>
      </trkpt>
      <trkpt lat="42.94608" lon="1.17527">
        <ele>456.2</ele>
        <time>2022-08-01T09:48:51.000Z</time>
      </trkpt>
      <trkpt lat="42.94603" lon="1.17514">
        <ele>453.6</ele>
        <time>2022-08-01T09:48:54.000Z</time>
      </trkpt>
      <trkpt lat="42.94596" lon="1.17506">
        <ele>451.4</ele>
        <time>2022-08-01T09:48:57.000Z</time>
      </trkpt>
      <trkpt lat="42.94586" lon="1.17499">
        <ele>448.1</ele>
        <time>2022-08-01T09:49:02.000Z</time>
      </trkpt>
      <trkpt lat="42.94583" lon="1.17488">
        <ele>446.1</ele>
        <time>2022-08-01T09:49:06.000Z</time>
      </trkpt>
      <trkpt lat="42.9457" lon="1.17486">
        <ele>444.8</ele>
        <time>2022-08-01T09:49:13.000Z</time>
      </trkpt>
      <trkpt lat="42.94559" lon="1.17485">
        <ele>443.9</ele>
        <time>2022-08-01T09:49:16.000Z</time>
      </trkpt>
      <trkpt lat="42.94548" lon="1.17481">
        <ele>443.5</ele>
        <time>2022-08-01T09:49:19.000Z</time>
      </trkpt>
      <trkpt lat="42.94545" lon="1.17468">
        <ele>443.3</ele>
        <time>2022-08-01T09:49:21.000Z</time>
      </trkpt>
      <trkpt lat="42.94549" lon="1.17455">
        <ele>443.1</ele>
        <time>2022-08-01T09:49:24.000Z</time>
      </trkpt>
      <trkpt lat="42.9456" lon="1.17448">
        <ele>442.8</ele>
        <time>2022-08-01T09:49:27.000Z</time>
      </trkpt>
      <trkpt lat="42.94571" lon="1.17441">
        <ele>442.2</ele>
        <time>2022-08-01T09:49:30.000Z</time>
      </trkpt>
      <trkpt lat="42.9458" lon="1.17438">
        <ele>441.7</ele>
        <time>2022-08-01T09:49:32.000Z</time>
      </trkpt>
      <trkpt lat="42.94589" lon="1.17431">
        <ele>441.6</ele>
        <time>2022-08-01T09:49:34.000Z</time>
      </trkpt>
      <trkpt lat="42.94601" lon="1.17424">
        <ele>441.1</ele>
        <time>2022-08-01T09:49:37.000Z</time>
      </trkpt>
      <trkpt lat="42.94609" lon="1.17417">
        <ele>440.4</ele>
        <time>2022-08-01T09:49:40.000Z</time>
      </trkpt>
      <trkpt lat="42.94609" lon="1.1741">
        <ele>440</ele>
        <time>2022-08-01T09:49:45.000Z</time>
      </trkpt>
      <trkpt lat="42.94609" lon="1.17411">
        <ele>439.7</ele>
        <time>2022-08-01T09:49:47.000Z</time>
      </trkpt>
      <trkpt lat="42.94608" lon="1.17411">
        <ele>440</ele>
        <time>2022-08-01T09:49:52.000Z</time>
      </trkpt>
      <trkpt lat="42.94609" lon="1.17412">
        <ele>439.7</ele>
        <time>2022-08-01T09:49:55.000Z</time>
      </trkpt>
      <trkpt lat="42.94609" lon="1.17413">
        <ele>440.5</ele>
        <time>2022-08-01T09:50:12.000Z</time>
      </trkpt>
      <trkpt lat="42.94608" lon="1.17409">
        <ele>440.7</ele>
        <time>2022-08-01T09:50:36.000Z</time>
      </trkpt>
      <trkpt lat="42.94609" lon="1.17404">
        <ele>440.9</ele>
        <time>2022-08-01T09:50:50.000Z</time>
      </trkpt>
      <trkpt lat="42.9461" lon="1.17403">
        <ele>440.9</ele>
        <time>2022-08-01T09:50:51.000Z</time>
      </trkpt>
      <trkpt lat="42.94609" lon="1.17403">
        <ele>440.6</ele>
        <time>2022-08-01T09:50:53.000Z</time>
      </trkpt>
      <trkpt lat="42.94609" lon="1.17404">
        <ele>440.8</ele>
        <time>2022-08-01T09:50:55.000Z</time>
      </trkpt>
      <trkpt lat="42.94609" lon="1.17406">
        <ele>440.8</ele>
        <time>2022-08-01T09:51:00.000Z</time>
      </trkpt>
      <trkpt lat="42.94609" lon="1.17405">
        <ele>440.8</ele>
        <time>2022-08-01T09:51:01.000Z</time>
      </trkpt>
      <trkpt lat="42.9461" lon="1.17404">
        <ele>439.8</ele>
        <time>2022-08-01T09:51:13.000Z</time>
      </trkpt>
      <trkpt lat="42.94609" lon="1.17404">
        <ele>439.2</ele>
        <time>2022-08-01T09:51:14.000Z</time>
      </trkpt>
      <trkpt lat="42.94604" lon="1.1741">
        <ele>440</ele>
        <time>2022-08-01T09:51:28.000Z</time>
      </trkpt>
      <trkpt lat="42.94603" lon="1.1741">
        <ele>440.1</ele>
        <time>2022-08-01T09:51:29.000Z</time>
      </trkpt>
    </trkseg>
  </trk>
</gpx>